[[{"header":{"parameterUnit":"m.s-1","parameterCategory":1,"la1":31.0,"la2":29.5877,"lo1":-88.7671,"lo2":-86.6584,"dy":0.0162,"dx":0.0185,"nx":115,"ny":88,"refTime":"2026-04-12T12:00:00:Z","depth":0,"parameterNumber":2,"parameterNumberName":"U-component_of_WINDS"},"data":[0.0,0.0,0.0,0.0,0.0,0.0,0.0,0.0,0.0,0.0,0.0,0.0,0.0,0.0,0.0,0.0,0.0,0.0,0.0,0.0,0.0,0.0,0.0,0.0,0.0,0.0,0.0,0.0,0.0,0.0,0.0,0.0,0.0,0.0,0.0,0.0,0.0,0.0,0.0,0.0,0.0,0.0,0.0,0.0,0.0,0.0,0.0,0.0,0.0,0.0,0.0,0.0,0.0,0.0,0.0,0.0,0.0,0.0,0.0,0.0,0.0,0.0,0.0,0.0,0.0,0.0,0.0,0.0,0.0,0.0,0.0,0.0,0.0,0.0,0.0,0.0,0.0,0.0,0.0,0.0,0.0,0.0,0.0,0.0,0.0,0.0,0.0,0.0,0.0,0.0,0.0,0.0,0.0,0.0,0.0,0.0,0.0,0.0,0.0,0.0,0.0,0.0,0.0,0.0,0.0,0.0,0.0,0.0,0.0,0.0,0.0,0.0,0.0,0.0,0.0,0.0,0.0,0.0,0.0,0.0,0.0,0.0,0.0,0.0,0.0,0.0,0.0,0.0,0.0,0.0,0.0,0.0,0.0,0.0,0.0,0.0,0.0,0.0,0.0,0.0,0.0,0.0,0.0,0.0,0.0,0.0,0.0,0.0,0.0,0.0,0.0,0.0,0.0,0.0,0.0,0.0,0.0,0.0,0.0,0.0,0.0,0.0,0.0,0.0,0.0,0.0,0.0,0.0,0.0,0.0,0.0,0.0,0.0,0.0,0.0,0.0,0.0,0.0,0.0,0.0,0.0,0.0,0.0,0.0,0.0,0.0,0.0,0.0,0.0,0.0,0.0,0.0,0.0,0.0,0.0,0.0,0.0,0.0,0.0,0.0,0.0,0.0,0.0,0.0,0.0,0.0,0.0,0.0,0.0,0.0,0.0,0.0,0.0,0.0,0.0,0.0,0.0,0.0,0.0,0.0,0.0,0.0,0.0,0.0,0.0,0.0,0.0,0.0,0.0,0.0,0.0,0.0,0.0,0.0,0.0,0.0,0.0,0.0,0.0,0.0,0.0,0.0,0.0,0.0,0.0,0.0,0.0,0.0,0.0,0.0,0.0,0.0,0.0,0.0,0.0,0.0,0.0,0.0,0.0,0.0,0.0,0.0,0.0,0.0,0.0,0.0,0.0,0.0,0.0,0.0,0.0,0.0,0.0,0.0,0.0,0.0,0.0,0.0,0.0,0.0,0.0,0.0,0.0,0.0,0.0,0.0,0.0,0.0,0.0,0.0,0.0,0.0,0.0,0.0,0.0,0.0,0.0,0.0,0.0,0.0,0.0,0.0,0.0,0.0,0.0,0.0,0.0,0.0,0.0,0.0,0.0,0.0,0.0,0.0,0.0,0.0,0.0,0.0,0.0,0.0,0.0,0.0,0.0,0.0,0.0,0.0,0.0,0.0,0.0,0.0,0.0,0.0,0.0,0.0,0.0,0.0,0.0,0.0,0.0,0.0,0.0,0.0,0.0,0.0,0.0,0.0,0.0,0.0,0.0,0.0,0.0,0.0,0.0,0.0,0.0,0.0,0.0,0.0,0.0,0.0,0.0,0.0,0.0,0.0,0.0,0.0,0.0,0.0,0.0,0.0,0.0,0.0,0.0,0.0,0.0,0.0,0.0,0.0,0.0,0.0,0.0,0.0,0.0,0.0,0.0,0.0,0.0,0.0,0.0,0.0,0.0,0.0,0.0,0.0,0.0,0.0,0.0,0.0,0.0,0.0,0.0,0.0,0.0,0.0,0.0,0.0,0.0,0.0,0.0,0.0,0.0,0.0,0.0,0.0,0.0,0.0,0.0,0.0,0.0,0.0,0.0,0.0,0.0,0.0,0.0,0.0,0.0,0.0,0.0,0.0,0.0,0.0,0.0,0.0,0.0,0.0,0.0,0.0,0.0,0.0,0.0,0.0,0.0,0.0,0.0,0.0,0.0,0.0,0.0,0.0,0.0,0.0,0.0,0.0,0.0,0.0,0.0,0.0,0.0,0.0,0.0,0.0,0.0,0.0,0.0,0.0,0.0,0.0,0.0,0.0,0.0,0.0,0.0,0.0,0.0,0.0,0.0,0.0,0.0,0.0,0.0,0.0,0.0,0.0,0.0,0.0,0.0,0.0,0.0,0.0,0.0,0.0,0.0,0.0,0.0,0.0,0.0,0.0,0.0,0.0,0.0,0.0,0.0,0.0,0.0,0.0,0.0,0.0,0.0,0.0,0.0,0.0,0.0,0.0,0.0,0.0,0.0,0.0,0.0,0.0,0.0,0.0,0.0,0.0,0.0,0.0,0.0,0.0,0.0,0.0,0.0,0.0,0.0,0.0,0.0,0.0,0.0,0.0,0.0,0.0,0.0,0.0,0.0,0.0,0.0,0.0,0.0,0.0,0.0,0.0,0.0,0.0,0.0,0.0,0.0,0.0,0.0,0.0,0.0,0.0,0.0,0.0,0.0,0.0,0.0,0.0,0.0,0.0,0.0,0.0,0.0,0.0,0.0,0.0,0.0,0.0,0.0,0.0,0.0,0.0,0.0,0.0,0.0,0.0,0.0,0.0,0.0,0.0,0.0,0.0,0.0,0.0,0.0,0.0,0.0,0.0,0.0,0.0,0.0,0.0,0.0,0.0,0.0,0.0,0.0,0.0,0.0,0.0,0.0,0.0,0.0,0.0,0.0,0.0,0.0,0.0,0.0,0.0,0.0,0.0,0.0,0.0,0.0,0.0,0.0,0.0,0.0,0.0,0.0,0.0,0.0,0.0,0.0,0.0,0.0,0.0,0.0,0.0,0.0,0.0,0.0,0.0,0.0,0.0,0.0,0.0,0.0,0.0,0.0,0.0,0.0,0.0,0.0,0.0,0.0,0.0,0.0,0.0,0.0,0.0,0.0,0.0,0.0,0.0,0.0,0.0,0.0,0.0,0.0,0.0,0.0,0.0,0.0,0.0,0.0,0.0,0.0,0.0,0.0,0.0,0.0,0.0,0.0,0.0,0.0,0.0,0.0,0.0,0.0,0.0,0.0,0.0,0.0,0.0,0.0,0.0,0.0,0.0,0.0,0.0,0.0,0.0,0.0,0.0,0.0,0.0,0.0,0.0,0.0,0.0,0.0,0.0,0.0,0.0,0.0,0.0,0.0,0.0,0.0,0.0,0.0,0.0,0.0,0.0,0.0,0.0,0.0,0.0,0.0,0.0,0.0,0.0,0.0,0.0,0.0,0.0,0.0,0.0,0.0,0.0,0.0,0.0,0.0,0.0,0.0,0.0,0.0,0.0,0.0,0.0,0.0,0.0,0.0,0.0,0.0,0.0,0.0,0.0,0.0,0.0,0.0,0.0,0.0,0.0,0.0,0.0,0.0,0.0,0.0,0.0,0.0,0.0,0.0,0.0,0.0,0.0,0.0,0.0,0.0,0.0,0.0,0.0,0.0,0.0,0.0,0.0,0.0,0.0,0.0,0.0,0.0,0.0,0.0,0.0,0.0,0.0,0.0,0.0,0.0,0.0,0.0,0.0,0.0,0.0,0.0,0.0,0.0,0.0,0.0,0.0,0.0,0.0,0.0,0.0,0.0,0.0,0.0,0.0,0.0,0.0,0.0,0.0,0.0,0.0,0.0,0.0,0.0,0.0,0.0,0.0,0.0,0.0,0.0,0.0,0.0,0.0,0.0,0.0,0.0,0.0,0.0,0.0,0.0,0.0,0.0,0.0,0.0,0.0,0.0,0.0,0.0,0.0,0.0,0.0,0.0,0.0,0.0,0.0,0.0,0.0,0.0,0.0,0.0,0.0,0.0,0.0,0.0,0.0,0.0,0.0,0.0,0.0,0.0,0.0,0.0,0.0,0.0,0.0,0.0,0.0,0.0,0.0,0.0,0.0,0.0,0.0,0.0,0.0,0.0,0.0,0.0,0.0,0.0,0.0,0.0,0.0,0.0,0.0,0.0,0.0,0.0,0.0,0.0,0.0,0.0,0.0,0.0,0.0,0.0,0.0,0.0,0.0,0.0,0.0,0.0,0.0,0.0,0.0,0.0,0.0,0.0,0.0,0.0,0.0,0.0,0.0,0.0,0.0,0.0,0.0,0.0,0.0,0.0,0.0,0.0,0.0,0.0,0.0,0.0,0.0,0.0,0.0,0.0,0.0,0.0,0.0,0.0,0.0,0.0,0.0,0.0,0.0,0.0,0.0,0.0,0.0,0.0,0.0,0.0,0.0,0.0,0.0,0.0,0.0,0.0,0.0,-0.7906,0.0,0.0,0.0,0.0,0.0,0.0,0.0,0.0,0.0,0.0,0.0,0.0,0.0,0.0,0.0,0.0,0.0,0.0,0.0,0.0,0.0,0.0,0.0,0.0,0.0,0.0,0.0,0.0,0.0,0.0,0.0,0.0,0.0,0.0,0.0,0.0,0.0,0.0,0.0,0.0,0.0,0.0,0.0,0.0,0.0,0.0,0.0,0.0,0.0,0.0,0.0,0.0,0.0,0.0,0.0,0.0,0.0,0.0,0.0,0.0,0.0,0.0,0.0,0.0,0.0,0.0,0.0,0.0,0.0,0.0,0.0,0.0,0.0,0.0,0.0,0.0,0.0,0.0,0.0,0.0,0.0,0.0,0.0,0.0,0.0,0.0,0.0,0.0,0.0,0.0,0.0,0.0,0.0,0.0,0.0,0.0,0.0,0.0,0.0,0.0,0.0,0.0,0.0,0.0,0.0,0.0,0.0,0.0,0.0,0.0,-0.7906,-0.7906,-0.7906,-0.7906,-0.7906,0.0,0.0,0.0,0.0,0.0,0.0,0.0,0.0,0.0,0.0,0.0,0.0,0.0,0.0,0.0,0.0,0.0,0.0,0.0,0.0,0.0,0.0,0.0,0.0,0.0,0.0,0.0,0.0,0.0,0.0,0.0,0.0,0.0,0.0,0.0,0.0,0.0,0.0,0.0,0.0,0.0,0.0,0.0,0.0,0.0,0.0,0.0,0.0,0.0,0.0,0.0,0.0,0.0,0.0,0.0,0.0,0.0,0.0,0.0,0.0,0.0,0.0,0.0,0.0,0.0,0.0,0.0,0.0,0.0,0.0,0.0,0.0,0.0,0.0,0.0,0.0,0.0,0.0,0.0,0.0,0.0,0.0,0.0,0.0,0.0,0.0,0.0,0.0,0.0,0.0,0.0,0.0,0.0,0.0,0.0,0.0,0.0,0.0,0.0,0.0,0.0,0.0,0.0,0.0,0.0,0.0,0.0,0.0,0.0,0.0,0.0,0.0,-0.8199,-0.8124,-0.8132,0.0,0.0,0.0,0.0,0.0,0.0,0.0,0.0,0.0,0.0,0.0,0.0,0.0,0.0,0.0,0.0,0.0,0.0,0.0,0.0,0.0,0.0,0.0,0.0,0.0,0.0,0.0,0.0,0.0,0.0,0.0,0.0,0.0,0.0,0.0,0.0,0.0,0.0,0.0,0.0,0.0,0.0,0.0,0.0,0.0,0.0,0.0,0.0,0.0,0.0,0.0,0.0,0.0,0.0,0.0,0.0,0.0,0.0,0.0,0.0,0.0,0.0,0.0,0.0,0.0,0.0,0.0,0.0,0.0,0.0,0.0,0.0,0.0,0.0,0.0,0.0,0.0,0.0,0.0,0.0,0.0,0.0,0.0,0.0,0.0,0.0,0.0,0.0,0.0,0.0,0.0,0.0,0.0,0.0,0.0,0.0,0.0,0.0,0.0,0.0,0.0,0.0,0.0,0.0,0.0,0.0,0.0,0.0,0.0,0.0,-0.8476,-0.9659,-0.9122,0.0,-0.88,0.0,0.0,0.0,0.0,0.0,0.0,0.0,0.0,0.0,0.0,0.0,0.0,0.0,0.0,0.0,0.0,0.0,0.0,0.0,0.0,0.0,0.0,0.0,0.0,0.0,0.0,0.0,0.0,0.0,0.0,0.0,0.0,0.0,0.0,0.0,0.0,0.0,0.0,0.0,0.0,0.0,0.0,0.0,0.0,0.0,0.0,0.0,0.0,0.0,0.0,0.0,0.0,0.0,0.0,0.0,0.0,0.0,0.0,0.0,0.0,0.0,0.0,0.0,0.0,0.0,0.0,0.0,0.0,0.0,0.0,0.0,0.0,0.0,0.0,0.0,0.0,0.0,0.0,0.0,0.0,0.0,0.0,0.0,0.0,0.0,0.0,0.0,0.0,0.0,0.0,0.0,0.0,0.0,0.0,0.0,0.0,0.0,0.0,0.0,0.0,0.0,0.0,0.0,0.0,0.0,0.0,0.0,0.0,0.0,0.0,-0.8747,-0.9287,-0.9047,-0.8921,0.0,0.0,0.0,0.0,0.0,0.0,0.0,0.0,0.0,0.0,0.0,0.0,0.0,0.0,0.0,0.0,0.0,0.0,0.0,0.0,0.0,0.0,0.0,0.0,0.0,0.0,0.0,0.0,0.0,0.0,0.0,0.0,0.0,0.0,0.0,0.0,0.0,0.0,0.0,0.0,0.0,0.0,0.0,0.0,0.0,0.0,0.0,0.0,0.0,0.0,0.0,0.0,0.0,0.0,0.0,0.0,0.0,0.0,0.0,0.0,0.0,0.0,0.0,0.0,0.0,0.0,0.0,0.0,0.0,0.0,0.0,0.0,0.0,0.0,0.0,0.0,0.0,0.0,0.0,0.0,0.0,0.0,0.0,0.0,0.0,0.0,0.0,0.0,0.0,0.0,0.0,0.0,0.0,0.0,0.0,0.0,0.0,0.0,0.0,0.0,0.0,0.0,0.0,0.0,0.0,0.0,0.0,0.0,0.0,0.0,-0.8837,-0.8987,-0.9167,-0.9182,-0.9092,-0.8913,0.0,0.0,0.0,0.0,0.0,0.0,0.0,0.0,0.0,0.0,0.0,0.0,0.0,0.0,0.0,0.0,0.0,0.0,0.0,0.0,0.0,0.0,0.0,0.0,0.0,0.0,0.0,0.0,0.0,0.0,0.0,0.0,0.0,0.0,0.0,0.0,0.0,0.0,0.0,0.0,0.0,0.0,0.0,0.0,0.0,0.0,0.0,0.0,0.0,0.0,0.0,0.0,0.0,0.0,0.0,0.0,0.0,0.0,0.0,0.0,0.0,0.0,0.0,0.0,0.0,0.0,0.0,0.0,0.0,0.0,0.0,0.0,0.0,0.0,0.0,0.0,0.0,0.0,0.0,0.0,0.0,0.0,0.0,0.0,0.0,0.0,0.0,0.0,0.0,0.0,0.0,0.0,0.0,0.0,0.0,0.0,0.0,0.0,0.0,0.0,0.0,0.0,0.0,0.0,0.0,0.0,0.0,0.0,0.0,-0.9488,-0.922,-0.983,-0.9863,-0.9554,0.0,0.0,0.0,0.0,0.0,0.0,0.0,0.0,0.0,0.0,0.0,0.0,0.0,0.0,0.0,0.0,0.0,0.0,0.0,0.0,0.0,0.0,0.0,0.0,0.0,0.0,0.0,0.0,0.0,0.0,0.0,0.0,0.0,0.0,0.0,0.0,0.0,0.0,0.0,0.0,0.0,0.0,0.0,0.0,0.0,0.0,0.0,0.0,0.0,0.0,0.0,0.0,0.0,0.0,0.0,0.0,0.0,0.0,0.0,0.0,0.0,0.0,0.0,0.0,0.0,0.0,0.0,0.0,0.0,0.0,0.0,0.0,0.0,0.0,0.0,0.0,0.0,0.0,0.0,0.0,0.0,0.0,0.0,0.0,0.0,0.0,0.0,0.0,0.0,0.0,0.0,0.0,0.0,0.0,0.0,0.0,0.0,0.0,0.0,0.0,0.0,0.0,0.0,0.0,0.0,0.0,0.0,0.0,0.0,-0.8902,-0.8889,-0.9413,-1.0404,-0.9698,-0.9347,0.0,0.0,0.0,0.0,0.0,0.0,0.0,0.0,0.0,0.0,0.0,0.0,0.0,0.0,0.0,0.0,0.0,0.0,0.0,0.0,0.0,0.0,0.0,0.0,0.0,0.0,0.0,0.0,0.0,0.0,0.0,0.0,0.0,0.0,0.0,0.0,0.0,0.0,0.0,0.0,0.0,0.0,0.0,0.0,0.0,0.0,0.0,0.0,0.0,0.0,0.0,0.0,0.0,0.0,0.0,0.0,0.0,0.0,0.0,0.0,0.0,0.0,0.0,0.0,0.0,0.0,0.0,0.0,0.0,0.0,0.0,0.0,0.0,0.0,0.0,0.0,0.0,0.0,0.0,0.0,0.0,0.0,0.0,0.0,0.0,0.0,0.0,0.0,0.0,0.0,0.0,0.0,0.0,0.0,0.0,0.0,0.0,0.0,0.0,0.0,0.0,0.0,0.0,0.0,0.0,0.0,0.0,0.0,0.0,-0.8536,0.0,-0.983,0.0,-0.9683,-0.9248,0.0,0.0,0.0,0.0,0.0,0.0,0.0,0.0,0.0,0.0,0.0,0.0,0.0,0.0,0.0,0.0,0.0,0.0,0.0,0.0,0.0,0.0,0.0,0.0,0.0,0.0,0.0,0.0,0.0,0.0,0.0,0.0,0.0,0.0,0.0,0.0,0.0,0.0,0.0,0.0,0.0,0.0,0.0,0.0,0.0,0.0,0.0,0.0,0.0,0.0,0.0,0.0,0.0,0.0,0.0,0.0,0.0,0.0,0.0,0.0,0.0,0.0,0.0,0.0,0.0,0.0,0.0,0.0,0.0,0.0,0.0,0.0,0.0,0.0,0.0,0.0,0.0,0.0,0.0,0.0,0.0,0.0,0.0,0.0,0.0,0.0,0.0,0.0,0.0,0.0,0.0,0.0,0.0,0.0,0.0,0.0,0.0,0.0,0.0,0.0,0.0,0.0,0.0,0.0,0.0,0.0,0.0,0.0,-0.8589,-0.9824,-1.0434,-1.0508,-0.9974,-0.9899,-0.927,0.0,0.0,0.0,0.0,0.0,0.0,0.0,0.0,0.0,0.0,0.0,0.0,0.0,0.0,0.0,0.0,0.0,0.0,0.0,0.0,0.0,0.0,0.0,0.0,0.0,0.0,0.0,0.0,0.0,0.0,0.0,0.0,0.0,0.0,0.0,0.0,0.0,0.0,0.0,0.0,0.0,0.0,0.0,0.0,0.0,0.0,0.0,0.0,0.0,0.0,0.0,0.0,0.0,0.0,0.0,0.0,0.0,0.0,0.0,0.0,0.0,0.0,0.0,0.0,0.0,0.0,0.0,0.0,0.0,0.0,0.0,0.0,0.0,0.0,0.0,0.0,0.0,0.0,0.0,0.0,0.0,0.0,0.0,0.0,0.0,0.0,0.0,0.0,0.0,0.0,0.0,0.0,0.0,0.0,0.0,0.0,0.0,0.0,0.0,0.0,0.0,0.0,0.0,0.0,0.0,0.0,0.0,0.0,0.0,-0.9242,-1.0239,-1.0932,-1.1147,-0.9899,-0.9443,0.0,0.0,0.0,0.0,0.0,0.0,0.0,0.0,0.0,0.0,0.0,0.0,0.0,0.0,0.0,0.0,0.0,0.0,0.0,0.0,0.0,0.0,0.0,0.0,0.0,0.0,0.0,0.0,0.0,0.0,0.0,0.0,0.0,0.0,0.0,0.0,0.0,0.0,0.0,0.0,0.0,0.0,0.0,0.0,0.0,0.0,0.0,0.0,0.0,0.0,0.0,0.0,0.0,0.0,0.0,0.0,0.0,0.0,0.0,0.0,0.0,0.0,0.0,0.0,0.0,0.0,0.0,0.0,0.0,0.0,0.0,0.0,0.0,0.0,0.0,0.0,0.0,0.0,0.0,0.0,0.0,0.0,0.0,0.0,0.0,0.0,0.0,0.0,0.0,0.0,0.0,0.0,0.0,0.0,0.0,0.0,0.0,0.0,0.0,0.0,0.0,0.0,0.0,0.0,0.0,0.0,0.0,0.0,0.0,-1.0058,-1.1266,-1.1764,-1.1425,-1.0243,-0.974,-1.0039,0.0,0.0,0.0,0.0,0.0,0.0,0.0,0.0,0.0,0.0,0.0,0.0,0.0,0.0,0.0,0.0,0.0,0.0,0.0,0.0,0.0,0.0,0.0,0.0,0.0,0.0,0.0,0.0,0.0,0.0,0.0,0.0,0.0,0.0,0.0,0.0,0.0,0.0,0.0,0.0,0.0,0.0,0.0,0.0,0.0,0.0,0.0,0.0,0.0,0.0,0.0,0.0,0.0,0.0,0.0,0.0,0.0,0.0,0.0,0.0,0.0,0.0,0.0,0.0,0.0,0.0,0.0,0.0,0.0,0.0,0.0,0.0,0.0,0.0,0.0,0.0,0.0,0.0,0.0,0.0,0.0,0.0,0.0,0.0,0.0,0.0,0.0,0.0,0.0,0.0,0.0,0.0,0.0,0.0,0.0,0.0,0.0,0.0,0.0,0.0,0.0,0.0,0.0,0.0,0.0,0.0,0.0,0.0,-1.1835,-1.3196,-1.2978,-1.1166,-1.0932,-1.0294,0.0,0.0,0.0,0.0,0.0,0.0,0.0,0.0,0.0,0.0,0.0,0.0,0.0,0.0,0.0,0.0,0.0,0.0,0.0,0.0,0.0,0.0,0.0,0.0,0.0,0.0,0.0,0.0,0.0,0.0,0.0,0.0,0.0,0.0,0.0,0.0,0.0,0.0,0.0,0.0,0.0,0.0,0.0,0.0,0.0,0.0,0.0,0.0,0.0,0.0,0.0,0.0,0.0,0.0,0.0,0.0,0.0,0.0,0.0,0.0,0.0,0.0,0.0,0.0,0.0,0.0,0.0,0.0,0.0,0.0,0.0,0.0,0.0,0.0,0.0,0.0,0.0,0.0,0.0,0.0,0.0,0.0,0.0,0.0,0.0,0.0,0.0,0.0,0.0,0.0,0.0,0.0,0.0,0.0,0.0,0.0,0.0,0.0,0.0,0.0,0.0,0.0,0.0,0.0,0.0,0.0,0.0,0.0,0.0,-1.2576,-1.4332,-1.4796,-1.375,-1.2302,-1.1386,0.0,0.0,0.0,0.0,0.0,0.0,0.0,0.0,0.0,0.0,0.0,0.0,0.0,0.0,0.0,0.0,0.0,0.0,0.0,0.0,0.0,0.0,0.0,0.0,0.0,0.0,0.0,0.0,0.0,0.0,0.0,0.0,0.0,0.0,0.0,0.0,0.0,0.0,0.0,0.0,0.0,0.0,0.0,0.0,0.0,0.0,0.0,0.0,0.0,0.0,0.0,0.0,0.0,0.0,0.0,0.0,0.0,0.0,0.0,0.0,0.0,0.0,0.0,0.0,0.0,0.0,0.0,0.0,0.0,0.0,0.0,0.0,0.0,0.0,0.0,0.0,0.0,0.0,0.0,0.0,0.0,0.0,0.0,0.0,0.0,0.0,0.0,0.0,0.0,0.0,0.0,0.0,0.0,0.0,0.0,0.0,0.0,0.0,0.0,0.0,0.0,0.0,0.0,0.0,0.0,0.0,0.0,0.0,-1.2415,-1.364,-1.4794,-1.5335,-1.5215,-1.3837,-1.2523,0.0,0.0,0.0,0.0,0.0,0.0,0.0,0.0,0.0,0.0,0.0,0.0,0.0,0.0,0.0,0.0,0.0,0.0,0.0,0.0,0.0,0.0,0.0,0.0,0.0,0.0,0.0,0.0,0.0,0.0,0.0,0.0,0.0,0.0,0.0,0.0,0.0,0.0,0.0,0.0,0.0,0.0,0.0,0.0,0.0,0.0,0.0,0.0,0.0,0.0,0.0,0.0,0.0,0.0,0.0,0.0,0.0,0.0,0.0,0.0,0.0,0.0,0.0,0.0,0.0,0.0,0.0,0.0,0.0,0.0,0.0,0.0,0.0,0.0,0.0,0.0,0.0,0.0,0.0,0.0,0.0,0.0,0.0,0.0,0.0,0.0,0.0,0.0,0.0,0.0,0.0,0.0,0.0,0.0,0.0,0.0,0.0,0.0,0.0,0.0,0.0,0.0,0.0,0.0,0.0,0.0,0.0,0.0,-1.2924,-1.4737,-1.4857,-1.5155,-1.5649,-1.511,-1.3628,0.0,0.0,0.0,0.0,0.0,0.0,0.0,0.0,0.0,0.0,0.0,0.0,0.0,0.0,0.0,0.0,0.0,0.0,0.0,0.0,0.0,0.0,0.0,0.0,0.0,0.0,0.0,0.0,0.0,0.0,0.0,0.0,0.0,0.0,0.0,0.0,0.0,0.0,0.0,0.0,0.0,0.0,0.0,0.0,0.0,0.0,0.0,0.0,0.0,0.0,0.0,0.0,0.0,0.0,0.0,0.0,0.0,0.0,0.0,0.0,0.0,0.0,0.0,0.0,0.0,0.0,0.0,0.0,0.0,0.0,0.0,0.0,0.0,0.0,0.0,0.0,0.0,0.0,0.0,0.0,0.0,0.0,0.0,0.0,0.0,0.0,0.0,0.0,0.0,0.0,0.0,0.0,0.0,0.0,0.0,0.0,0.0,0.0,0.0,0.0,0.0,0.0,0.0,0.0,0.0,0.0,0.0,0.0,-1.3852,-1.4767,-1.532,-1.5409,-1.502,-1.4886,-1.4032,0.0,0.0,0.0,0.0,0.0,0.0,0.0,0.0,0.0,0.0,0.0,0.0,0.0,0.0,0.0,0.0,0.0,0.0,0.0,0.0,0.0,0.0,0.0,0.0,0.0,0.0,0.0,0.0,0.0,0.0,0.0,0.0,0.0,0.0,0.0,0.0,0.0,0.0,0.0,0.0,0.0,0.0,0.0,0.0,0.0,0.0,0.0,0.0,-0.3213,0.0,0.0,0.0,0.0,0.0,0.0,0.0,0.0,0.0,0.0,0.0,0.0,0.0,0.0,0.0,0.0,0.0,0.0,0.0,0.0,0.0,0.0,0.0,0.0,0.0,0.0,0.0,0.0,0.0,0.0,0.0,0.0,0.0,0.0,0.0,0.0,0.0,0.0,0.0,0.0,0.0,0.0,0.0,0.0,0.0,0.0,0.0,0.0,0.0,0.0,0.0,0.0,0.0,0.0,0.0,0.0,0.0,0.0,0.0,-1.4588,-1.5245,-1.5634,-1.5634,-1.5289,-1.496,-1.4182,0.0,0.0,0.0,0.0,0.0,0.0,0.0,0.0,0.0,0.0,0.0,0.0,0.0,0.0,0.0,0.0,0.0,0.0,0.0,0.0,0.0,0.0,0.0,0.0,0.0,0.0,0.0,0.0,0.0,0.0,0.0,0.0,0.0,0.0,0.0,0.0,0.0,0.0,0.0,0.0,0.0,0.0,0.0,0.0,0.0,0.0,0.0,0.0,0.0,0.0,0.0,0.0,0.0,0.0,0.0,0.0,0.0,0.0,0.0,0.0,0.0,0.0,0.0,0.0,0.0,0.0,0.0,0.0,0.0,0.0,0.0,0.0,0.0,0.0,0.0,0.0,0.0,0.0,0.0,0.0,0.0,0.0,0.0,0.0,0.0,0.0,0.0,0.0,0.0,0.0,0.0,0.0,0.0,0.0,0.0,0.0,0.0,0.0,0.0,0.0,0.0,0.0,0.0,0.0,0.0,0.0,0.0,-1.3957,-1.5125,-1.5784,-1.5814,-1.5814,-1.5784,-1.5245,-1.4332,-1.2999,0.0,0.0,0.0,0.0,0.0,0.0,0.0,0.0,0.0,0.0,0.0,0.0,0.0,0.0,0.0,0.0,0.0,0.0,0.0,0.0,0.0,0.0,0.0,0.0,0.0,0.0,0.0,0.0,0.0,0.0,0.0,0.0,0.0,0.0,0.0,0.0,0.0,0.0,-0.3712,-0.4172,0.0,0.0,0.0,0.0,0.0,0.0,0.0,0.0,-0.3724,0.0,0.0,0.0,0.0,0.0,0.0,0.0,0.0,0.0,0.0,0.0,0.0,0.0,0.0,0.0,0.0,0.0,0.0,0.0,0.0,0.0,0.0,0.0,0.0,0.0,0.0,0.0,0.0,0.0,0.0,0.0,0.0,0.0,0.0,0.0,0.0,0.0,0.0,0.0,0.0,0.0,0.0,0.0,0.0,0.0,0.0,0.0,0.0,0.0,0.0,0.0,0.0,0.0,0.0,0.0,0.0,-1.4274,-1.4631,-1.511,-1.5769,-1.5814,-1.5814,-1.5799,-1.5694,-1.499,-1.366,0.0,0.0,0.0,0.0,0.0,0.0,0.0,0.0,0.0,0.0,0.0,0.0,0.0,0.0,0.0,0.0,0.0,0.0,0.0,0.0,0.0,0.0,0.0,0.0,0.0,0.0,0.0,0.0,0.0,0.0,0.0,0.0,0.0,0.0,0.0,0.0,0.0,0.0,0.0,-0.4752,-0.5116,0.0,0.0,0.0,0.0,0.0,0.0,0.0,0.0,-0.3704,0.0,0.0,0.0,0.0,0.0,0.0,0.0,0.0,0.0,0.0,0.0,0.0,0.0,0.0,0.0,0.0,0.0,0.0,0.0,0.0,0.0,0.0,0.0,0.0,0.0,0.0,0.0,0.0,0.0,0.0,0.0,0.0,0.0,0.0,0.0,0.0,0.0,0.0,0.0,0.0,0.0,0.0,0.0,0.0,0.0,0.0,0.0,0.0,0.0,0.0,0.0,0.0,0.0,0.0,0.0,-1.3688,-1.4451,-1.5125,-1.5784,-1.5814,-1.5814,-1.5799,-1.5125,-1.4466,0.0,0.0,0.0,0.0,0.0,0.0,0.0,0.0,0.0,0.0,0.0,0.0,0.0,0.0,0.0,0.0,0.0,0.0,0.0,0.0,0.0,0.0,0.0,0.0,0.0,0.0,0.0,0.0,0.0,0.0,0.0,0.0,0.0,0.0,0.0,0.0,0.0,0.0,0.0,0.0,-0.515,-0.5421,-0.5199,0.0,0.0,0.0,0.0,0.0,0.0,-0.4347,-0.416,0.0,0.0,0.0,0.0,0.0,0.0,0.0,0.0,0.0,0.0,0.0,0.0,0.0,0.0,0.0,0.0,0.0,0.0,0.0,0.0,0.0,0.0,0.0,0.0,0.0,0.0,0.0,0.0,0.0,0.0,0.0,0.0,0.0,0.0,0.0,0.0,0.0,0.0,0.0,0.0,0.0,0.0,0.0,0.0,0.0,0.0,0.0,0.0,0.0,0.0,0.0,0.0,0.0,0.0,0.0,-1.2969,-1.4182,-1.5125,-1.5784,-1.5814,-1.5814,-1.5799,-1.4872,-1.4201,0.0,0.0,0.0,0.0,0.0,0.0,0.0,0.0,0.0,0.0,0.0,0.0,0.0,0.0,0.0,0.0,0.0,0.0,0.0,0.0,0.0,0.0,0.0,0.0,0.0,0.0,0.0,0.0,0.0,0.0,0.0,0.0,0.0,0.0,0.0,0.0,0.0,0.0,0.0,0.0,0.0,-0.587,-0.5878,-0.5747,0.0,0.0,0.0,0.0,-0.5171,-0.4976,0.0,0.0,0.0,0.0,0.0,0.0,0.0,0.0,0.0,0.0,0.0,0.0,0.0,0.0,0.0,0.0,0.0,0.0,0.0,0.0,0.0,0.0,0.0,0.0,0.0,0.0,0.0,0.0,0.0,0.0,0.0,0.0,0.0,0.0,0.0,0.0,0.0,0.0,0.0,0.0,0.0,0.0,0.0,0.0,0.0,0.0,0.0,0.0,0.0,0.0,0.0,0.0,0.0,0.0,0.0,0.0,-1.3618,-1.4421,-1.5125,-1.5769,-1.5814,-1.5814,-1.5814,-1.6159,-1.5562,0.0,0.0,0.0,0.0,0.0,0.0,0.0,0.0,0.0,0.0,0.0,0.0,0.0,0.0,0.0,0.0,0.0,0.0,0.0,0.0,0.0,0.0,0.0,0.0,0.0,0.0,0.0,0.0,0.0,0.0,0.0,0.0,0.0,0.0,0.0,0.0,0.0,0.0,0.0,0.0,0.0,-0.6955,-0.5642,-0.6077,-0.6319,0.0,0.0,-0.5757,-0.6379,-0.5929,0.0,0.0,0.0,0.0,0.0,0.0,0.0,0.0,0.0,0.0,0.0,0.0,0.0,0.0,0.0,0.0,0.0,0.0,0.0,0.0,0.0,0.0,0.0,0.0,0.0,0.0,0.0,0.0,0.0,0.0,0.0,0.0,0.0,0.0,0.0,0.0,0.0,0.0,0.0,0.0,0.0,0.0,0.0,0.0,0.0,0.0,0.0,0.0,0.0,0.0,0.0,0.0,0.0,0.0,0.0,-1.1794,-1.375,-1.4453,-1.5111,-1.5784,-1.5814,-1.5814,-1.5814,-1.5695,-1.5053,0.0,0.0,0.0,0.0,0.0,0.0,0.0,0.0,0.0,0.0,0.0,0.0,0.0,0.0,0.0,0.0,0.0,0.0,0.0,0.0,0.0,0.0,0.0,0.0,0.0,0.0,0.0,0.0,0.0,0.0,0.0,0.0,0.0,0.0,0.0,0.0,0.0,0.0,0.0,0.0,0.0,0.0,-0.6741,-0.7033,0.0,0.0,0.0,-0.6836,-0.6908,0.0,0.0,0.0,0.0,0.0,0.0,0.0,0.0,0.0,0.0,0.0,0.0,0.0,0.0,0.0,0.0,0.0,0.0,0.0,0.0,0.0,0.0,0.0,0.0,0.0,0.0,0.0,0.0,0.0,0.0,0.0,0.0,0.0,0.0,0.0,0.0,0.0,0.0,0.0,0.0,0.0,0.0,0.0,0.0,0.0,0.0,0.0,0.0,0.0,0.0,0.0,0.0,0.0,0.0,0.0,0.0,0.0,-1.3765,-1.4631,-1.529,-1.5784,-1.5814,-1.5814,-1.5799,-1.5305,0.0,0.0,0.0,0.0,0.0,0.0,0.0,0.0,0.0,0.0,0.0,0.0,0.0,0.0,0.0,0.0,0.0,0.0,0.0,0.0,0.0,0.0,0.0,0.0,0.0,0.0,0.0,-0.3794,0.0,0.0,0.0,0.0,0.0,0.0,0.0,0.0,0.0,0.0,0.0,0.0,0.0,0.0,-0.6826,-0.7466,-0.7739,-0.7983,0.0,0.0,-0.7733,-0.7307,-0.7087,-0.6643,0.0,0.0,0.0,0.0,0.0,0.0,0.0,0.0,0.0,0.0,0.0,0.0,0.0,0.0,0.0,0.0,0.0,0.0,0.0,0.0,0.0,0.0,0.0,0.0,0.0,0.0,0.0,0.0,0.0,0.0,0.0,0.0,0.0,0.0,0.0,0.0,0.0,0.0,0.0,0.0,0.0,0.0,0.0,0.0,0.0,0.0,0.0,0.0,0.0,0.0,0.0,0.0,0.0,0.0,0.0,-1.3795,-1.508,-1.5754,-1.5814,-1.5814,-1.5814,-1.5814,-1.5754,-1.511,0.0,0.0,0.0,0.0,0.0,0.0,0.0,0.0,0.0,0.0,0.0,0.0,0.0,0.0,0.0,0.0,0.0,0.0,0.0,0.0,0.0,0.0,0.0,0.0,0.0,0.0,0.0,0.0,0.0,0.0,0.0,0.0,0.0,0.0,0.0,0.0,0.0,0.0,0.0,0.0,0.0,-0.7084,-0.7139,-0.7847,-0.8219,0.0,0.0,-0.8193,-0.7758,-0.7632,-0.7267,-0.6156,0.0,0.0,0.0,0.0,0.0,0.0,0.0,0.0,0.0,0.0,0.0,0.0,0.0,0.0,0.0,0.0,0.0,0.0,0.0,0.0,0.0,0.0,0.0,0.0,0.0,0.0,0.0,0.0,0.0,0.0,0.0,0.0,0.0,0.0,0.0,0.0,0.0,0.0,0.0,0.0,0.0,0.0,0.0,0.0,0.0,0.0,0.0,0.0,0.0,0.0,0.0,0.0,0.0,-1.287,-1.3807,-1.5314,-1.6011,-1.5814,-1.5814,-1.5814,-1.5814,-1.5409,-1.4751,0.0,0.0,0.0,0.0,0.0,0.0,0.0,0.0,0.0,0.0,0.0,0.0,0.0,0.0,0.0,0.0,0.0,0.0,0.0,0.0,0.0,0.0,0.0,0.0,0.0,0.0,0.0,0.0,-0.4984,-0.5008,-0.5613,0.0,0.0,0.0,0.0,0.0,0.0,0.0,0.0,0.0,0.0,-0.7834,-0.7942,-0.8603,0.0,0.0,-0.8879,-0.8751,-0.8852,-0.8203,-0.756,-0.7114,-0.6843,0.0,0.0,0.0,0.0,0.0,0.0,0.0,0.0,0.0,0.0,0.0,0.0,0.0,0.0,0.0,0.0,0.0,0.0,0.0,0.0,0.0,0.0,0.0,0.0,0.0,0.0,0.0,0.0,0.0,0.0,0.0,0.0,0.0,0.0,0.0,0.0,0.0,0.0,0.0,0.0,0.0,0.0,0.0,0.0,0.0,0.0,0.0,0.0,0.0,0.0,0.0,0.0,-1.3262,-1.4403,-1.5962,-1.6772,-1.6746,-1.6435,-1.6271,-1.6256,-1.5509,-1.4706,0.0,0.0,0.0,0.0,0.0,0.0,0.0,0.0,0.0,0.0,0.0,0.0,0.0,0.0,0.0,0.0,0.0,0.0,0.0,0.0,0.0,0.0,0.0,0.0,0.0,0.0,0.0,0.0,-0.5777,-0.5767,-0.6145,0.0,0.0,0.0,0.0,0.0,0.0,0.0,0.0,0.0,0.0,-0.8359,-0.8762,-0.9359,-0.9829,-1.011,-0.9705,-0.9412,-0.9607,-0.9028,-0.846,-0.8173,0.0,0.0,0.0,0.0,0.0,0.0,0.0,0.0,0.0,0.0,0.0,0.0,0.0,0.0,0.0,0.0,0.0,0.0,0.0,0.0,0.0,0.0,0.0,0.0,0.0,0.0,0.0,-1.3278,0.0,0.0,-1.1142,0.0,0.0,0.0,0.0,0.0,0.0,0.0,0.0,0.0,0.0,0.0,0.0,0.0,0.0,0.0,0.0,0.0,0.0,0.0,0.0,0.0,0.0,-1.3854,-1.5727,-1.7097,-1.8182,-1.8822,-1.7906,-1.7332,-1.7287,-1.6315,-1.514,-1.3797,0.0,0.0,0.0,0.0,0.0,0.0,0.0,0.0,0.0,0.0,0.0,0.0,0.0,0.0,0.0,0.0,0.0,0.0,0.0,0.0,0.0,0.0,0.0,0.0,0.0,0.0,-0.7495,-0.6843,-0.6401,0.0,0.0,0.0,0.0,0.0,0.0,0.0,0.0,0.0,0.0,-0.8326,-0.8563,-0.9498,-1.0006,-1.0396,-1.0514,-1.0447,-1.0228,-0.9822,-1.0176,-1.0216,0.0,0.0,0.0,0.0,0.0,0.0,0.0,0.0,0.0,0.0,0.0,0.0,0.0,0.0,0.0,0.0,0.0,0.0,0.0,0.0,0.0,0.0,0.0,0.0,0.0,0.0,0.0,-1.679,-1.6238,0.0,0.0,0.0,0.0,0.0,0.0,0.0,0.0,0.0,0.0,0.0,-1.8915,-1.9447,0.0,0.0,0.0,0.0,0.0,0.0,0.0,0.0,0.0,0.0,0.0,0.0,-1.4678,-1.6103,-1.7241,-1.7922,-1.8099,-1.7349,-1.6924,-1.694,-1.578,-1.4288,-1.2512,0.0,0.0,0.0,0.0,0.0,0.0,0.0,0.0,0.0,0.0,0.0,0.0,0.0,0.0,0.0,0.0,0.0,0.0,0.0,0.0,0.0,0.0,0.0,0.0,0.0,-0.7761,0.0,0.0,0.0,0.0,0.0,0.0,0.0,0.0,0.0,0.0,0.0,-0.9724,-1.0109,-1.0803,-1.1397,-1.1801,-1.2004,-1.2005,0.0,0.0,0.0,0.0,0.0,0.0,0.0,0.0,0.0,0.0,0.0,0.0,0.0,0.0,-0.8588,-0.6828,-0.5937,-0.5499,-0.5615,0.0,0.0,0.0,0.0,0.0,0.0,0.0,0.0,0.0,0.0,0.0,0.0,0.0,0.0,-1.9304,0.0,-1.8025,0.0,0.0,0.0,0.0,0.0,0.0,0.0,0.0,-2.0281,-2.1181,-2.1197,-2.1718,-2.1444,0.0,-1.9976,-1.8746,0.0,0.0,0.0,0.0,0.0,0.0,0.0,0.0,-1.6027,-1.7548,-1.8497,-1.9085,-1.9248,-1.8346,-1.7746,-1.7469,-1.573,-1.4182,-1.2894,-1.24,-1.1756,0.0,0.0,0.0,0.0,0.0,0.0,0.0,0.0,0.0,0.0,0.0,0.0,0.0,0.0,0.0,0.0,0.0,0.0,0.0,0.0,0.0,0.0,0.0,-0.8094,0.0,0.0,0.0,0.0,0.0,0.0,0.0,0.0,0.0,-0.8921,-1.0093,-1.1162,-1.157,-1.2311,-1.3066,-1.3798,0.0,0.0,0.0,0.0,0.0,0.0,0.0,-1.2083,-1.2865,-1.2057,-1.1256,-1.1057,-1.0953,-1.0705,-1.0215,0.0,0.0,-0.8054,-0.7121,-0.6659,-0.6772,-0.6601,-0.6473,-0.6555,-0.6811,-0.6993,0.0,0.0,0.0,0.0,0.0,0.0,0.0,0.0,-2.0948,-2.1147,0.0,-2.0094,0.0,0.0,0.0,0.0,0.0,-2.0192,0.0,0.0,-2.2767,-2.346,-2.346,-2.346,-2.3444,-2.3441,-2.3325,-2.2578,-2.1038,-1.6853,0.0,0.0,0.0,0.0,0.0,0.0,-1.7845,-1.9913,-2.0702,-2.1505,-2.2096,-2.0727,-1.9626,-1.8869,-1.6232,-1.4781,-1.4736,-1.3538,-1.2846,-1.2786,-1.158,0.0,0.0,0.0,0.0,0.0,0.0,0.0,0.0,0.0,0.0,0.0,0.0,0.0,0.0,0.0,0.0,0.0,0.0,0.0,0.0,-0.8898,0.0,0.0,0.0,0.0,0.0,0.0,0.0,0.0,0.0,0.0,-1.0369,-1.0795,-1.1593,-1.2786,0.0,0.0,0.0,0.0,-1.5165,-1.6278,-1.5618,-1.4949,-1.486,-1.443,-1.3926,-1.3445,0.0,0.0,-1.0858,-1.1279,-1.1671,-1.1205,-1.1108,-1.0946,-1.0395,-0.931,-0.8682,-0.8857,-0.8391,-0.8138,-0.8378,-0.8798,-0.9333,-2.8314,0.0,0.0,0.0,0.0,-2.5134,-2.5558,-2.6201,-2.5761,-2.5221,-2.4594,-2.3424,0.0,0.0,0.0,0.0,0.0,0.0,-2.3052,-2.3594,-2.4526,-2.4983,-2.4983,-2.495,-2.4695,-2.4169,-2.3644,-2.3173,-2.268,-2.0412,-1.8093,-1.5801,0.0,0.0,0.0,0.0,-1.8946,-2.0268,-2.0597,-2.0933,-2.1353,-2.0473,-1.9314,-1.7876,-1.5881,-1.4796,-1.4796,-1.4421,-1.3792,-1.2861,-1.2909,0.0,0.0,0.0,0.0,0.0,0.0,0.0,0.0,0.0,0.0,0.0,0.0,0.0,0.0,0.0,0.0,0.0,0.0,0.0,-0.9548,-0.8754,-0.8679,0.0,0.0,0.0,0.0,0.0,0.0,0.0,0.0,0.0,-1.2736,-1.3723,-1.471,0.0,0.0,-1.6512,-1.7144,-1.669,-1.6287,-1.6361,-1.6423,0.0,-1.4925,-1.4707,-1.4636,-1.4447,-1.4014,-1.3434,-1.2645,-1.2394,-1.2146,-1.1692,-1.1597,-1.1545,-1.1344,-1.0274,-0.9487,-0.9443,-0.9083,-0.873,-0.8831,-0.9042,-0.9182,-3.3845,-3.1416,-2.9176,-2.8246,-2.8339,-2.8555,-2.8937,-2.94,-2.9127,-2.8544,-2.7757,-2.6725,-2.554,-2.4237,-2.3124,0.0,0.0,0.0,-2.5372,-2.5845,-2.6607,-2.6945,-2.6945,-2.6945,-2.6556,-2.5795,-2.505,-2.456,-2.424,-2.3086,-2.1444,-1.9379,0.0,0.0,-1.9159,-1.9587,-2.0279,-2.118,-2.1216,-2.1303,-2.1507,-2.0684,-1.9466,-1.7844,-1.6516,-1.5635,-1.5214,-1.4946,-1.4556,-1.4015,-1.36,-1.2852,0.0,0.0,0.0,0.0,0.0,0.0,0.0,0.0,0.0,0.0,0.0,-0.874,-0.8327,0.0,0.0,0.0,-0.9113,-0.9824,-1.0219,-1.0004,0.0,0.0,0.0,0.0,0.0,0.0,0.0,-1.3403,-1.3835,-1.4242,-1.4888,-1.5889,-1.6503,-1.6368,-1.6682,-1.7155,-1.7727,0.0,-1.7226,-1.7251,-1.7574,-1.7474,-1.6528,-1.6069,-1.5727,-1.5266,-1.4945,-1.4548,-1.4018,-1.3496,-1.3047,-1.2763,-1.2531,-1.2365,-1.2354,-1.1497,-1.0742,-1.0553,-1.0305,-1.006,-0.9849,-0.9795,-0.9742,-3.8916,-3.7799,-3.3263,-3.1292,-3.1202,-3.1705,-3.1944,-3.1965,-3.1271,-3.1123,-3.1157,-2.9856,-2.923,-2.9094,-2.769,0.0,-2.7097,-2.7689,-2.7993,-2.8094,-2.8772,-2.9077,-2.9094,-2.9077,-2.867,-2.7874,-2.7215,-2.6505,-2.5778,-2.5032,-2.4305,-2.3528,-2.1417,-2.0703,-2.1343,-2.1441,-2.1769,-2.2395,-2.2381,-2.2364,-2.2296,-2.1197,-1.9941,-1.8513,-1.7781,-1.6896,-1.5885,-1.5228,-1.511,-1.5559,-1.3972,-1.2939,-1.2696,0.0,0.0,0.0,0.0,0.0,0.0,0.0,0.0,0.0,0.0,0.0,0.0,0.0,0.0,0.0,-1.0114,0.0,-1.0882,-1.1916,0.0,0.0,0.0,-1.1278,-1.2073,-1.2618,-1.3446,-1.4749,0.0,0.0,-1.6622,-1.7311,-1.7282,-1.6113,-1.6053,-1.6533,-1.7682,-1.7847,-1.8027,-1.8636,-1.8822,-1.8834,-1.8358,-1.7655,-1.6771,-1.5922,-1.5768,-1.5557,-1.5126,-1.4668,-1.4337,-1.419,-1.3768,-1.3396,-1.3353,-1.2967,-1.2573,-1.2144,-1.1851,-1.1583,-1.1113,-1.1002,-1.0879,-4.0284,-3.9697,-3.89,-3.693,-3.4335,-3.4449,-3.3937,-3.3036,-3.2866,-3.2516,-3.2022,-3.1667,-3.121,-3.0649,-3.0277,-3.0125,-3.0127,-2.9736,-2.9835,-3.0345,-3.0006,-2.9837,-2.9837,-2.9837,-2.9448,-2.8739,-2.8553,-2.8044,-2.7266,-2.6522,-2.5795,-2.505,-2.3968,-2.3255,-2.2917,-2.3441,-2.3526,-2.3139,-2.3139,-2.2868,-2.2282,-2.1183,-2.0167,-1.9249,-1.8053,-1.701,-1.6208,-1.579,-1.517,-1.4348,-1.4796,-1.4165,-1.2145,-1.1595,0.0,0.0,0.0,0.0,0.0,0.0,0.0,0.0,0.0,-1.0468,-0.9025,0.0,-1.0344,0.0,-1.0628,-1.1017,-1.1506,-1.1129,0.0,0.0,-1.2727,-1.3036,-1.4995,-1.4699,-1.4648,-1.5465,-1.6154,-1.659,-1.6683,-1.7516,-1.7882,-1.7327,-1.8119,-1.8884,-1.9199,-1.8777,-1.8702,-1.9256,-1.9045,-1.8437,-1.7763,-1.7075,-1.6679,-1.6342,-1.631,-1.6243,-1.6149,-1.6009,-1.5793,-1.5409,-1.522,-1.4964,-1.4563,-1.44,-1.4299,-1.4079,-1.2918,-1.1785,-1.1627,-1.1627,-1.1571,-4.1986,-4.1758,-4.2055,-4.0581,-3.8099,-3.7986,-3.739,-3.6429,-3.5873,-3.5076,-3.4096,-3.3196,-3.256,-3.2188,-3.2171,-3.2171,-3.2154,-3.1765,-3.1799,-3.2121,-3.141,-3.1072,-3.1055,-3.0751,-3.0209,-2.9499,-2.9482,-2.9093,-2.8349,-2.7909,-2.7334,-2.6573,-2.6167,-2.5592,-2.4881,-2.4626,-2.4305,-2.3898,-2.3562,-2.3054,-2.233,-2.1689,-2.0919,-2.002,-1.9232,-1.8403,-1.7523,-1.7002,-1.6325,-1.5453,-1.552,-1.4849,-1.325,-1.2564,-1.195,0.0,0.0,0.0,0.0,0.0,0.0,0.0,0.0,0.0,0.0,0.0,-1.1129,-1.1439,-1.1744,-1.2314,-1.3279,-1.3074,-1.335,-1.4405,-1.4124,-1.4338,-1.5511,-1.5283,-1.5318,-1.6112,-1.6538,-1.6855,-1.7102,-1.7892,-1.8349,-1.818,-1.9046,-1.9483,-1.8927,-1.8717,-1.8837,-1.9166,-1.9196,-1.8979,-1.832,-1.8083,-1.7824,-1.7626,-1.7572,-1.7485,-1.7251,-1.7023,-1.6765,-1.6477,-1.6218,-1.5883,-1.5385,-1.5253,-1.5197,-1.4815,-1.3998,-1.3094,-1.2568,-1.2466,-1.2383,-4.3479,-4.3479,-4.3479,-4.2829,-4.1742,-4.1494,-4.0936,-4.013,-3.9036,-3.7895,-3.6672,-3.4806,-3.3931,-3.3846,-3.3829,-3.3795,-3.3677,-3.3571,-3.3541,-3.3508,-3.2763,-3.2446,-3.2412,-3.1684,-3.1004,-3.0395,-3.0277,-2.9854,-2.9162,-2.9145,-2.8721,-2.7976,-2.7841,-2.7486,-2.681,-2.5456,-2.4728,-2.4626,-2.3917,-2.319,-2.2465,-2.2462,-2.1883,-2.0749,-2.0643,-2.0125,-1.9109,-1.8398,-1.7864,-1.7474,-1.6336,-1.5468,-1.4888,-1.3713,-1.2984,0.0,-1.2175,0.0,0.0,0.0,0.0,0.0,0.0,0.0,0.0,-1.1931,-1.197,-1.257,-1.3209,-1.4065,-1.513,-1.5798,-1.588,-1.5243,-1.5428,-1.5554,-1.5425,-1.5705,-1.6182,-1.6909,-1.7076,-1.7365,-1.7954,-1.8544,-1.8941,-1.8976,-1.9426,-1.9421,-1.8343,-1.8536,-1.8897,-1.8822,-1.9333,-1.96,-1.9552,-1.9612,-1.9438,-1.907,-1.8937,-1.8836,-1.8368,-1.7955,-1.76,-1.7502,-1.7243,-1.678,-1.6143,-1.604,-1.5904,-1.555,-1.5318,-1.4806,-1.381,-1.3521,-1.3203,-4.3479,-4.3479,-4.3479,-4.3353,-4.3118,-4.3076,-4.1778,-3.9729,-3.9489,-3.8969,-3.8222,-3.7428,-3.6705,-3.6163,-3.6169,-3.5791,-3.516,-3.4556,-3.4307,-3.4252,-3.3525,-3.3203,-3.3152,-3.2425,-3.2022,-3.1853,-3.1275,-3.0615,-2.9888,-2.9888,-2.9516,-2.8755,-2.8128,-2.7722,-2.757,0.0,0.0,0.0,-2.4661,-2.3932,-2.3224,-2.319,-2.2533,-2.1147,-2.0772,0.0,-1.943,-1.9019,-1.8511,-1.7923,-1.7849,0.0,0.0,0.0,0.0,0.0,0.0,0.0,0.0,0.0,0.0,0.0,-1.4121,-1.3644,-1.2818,-1.3801,-1.4472,-1.4362,-1.4922,-1.5199,-1.4922,-1.5188,-1.5816,-1.6791,-1.7158,-1.764,-1.849,-1.8864,-1.9003,-1.8607,-1.9037,-1.9397,-1.9525,-1.9915,-2.0112,-1.9972,-2.01,-1.9945,-1.9386,-1.9378,-1.9498,-1.951,-1.9633,-1.9723,-1.9723,-1.9723,-1.9672,-1.9548,-1.9548,-1.9493,-1.9369,-1.9295,-1.9035,-1.8691,-1.8874,-1.8706,-1.781,-1.7644,-1.7523,-1.7474,-1.7117,-1.6399,-1.4947,-1.4599,-1.453,-4.3479,0.0,-4.3479,-4.3479,0.0,-4.3479,-4.2596,-4.1105,-4.0712,-3.9848,-3.8673,-3.812,-3.7702,-3.733,-3.733,-3.6924,-3.618,-3.5814,-3.5419,-3.5013,-3.4286,-3.3947,-3.3931,-3.3186,-3.2628,-3.2293,-3.1938,-3.136,-3.0666,-3.0649,-3.026,-2.9551,-2.9144,-2.8568,-2.779,-2.7063,-2.6336,-2.5609,-2.5236,-2.4509,-2.3475,-2.3408,-2.2868,-2.1803,-2.1535,0.0,0.0,0.0,0.0,0.0,0.0,0.0,0.0,0.0,0.0,-1.46,-1.4546,-1.4717,-1.5047,-1.5565,-1.6165,-1.6804,-1.6856,-1.6171,-1.463,-1.5315,-1.6031,-1.6586,-1.6942,-1.713,-1.7114,-1.7223,-1.7547,-1.8133,-1.8452,-1.8834,-1.9208,-1.9561,-1.9667,-1.956,-1.9784,-2.0105,-2.0444,-2.0633,-2.0715,-2.0652,-2.0449,-2.0244,-2.0017,-1.9803,-1.9723,-1.9723,-1.9723,-1.9723,-1.9723,-1.9723,-1.9723,-1.9723,-1.9723,-1.9723,-1.9723,-1.9723,-1.9603,-1.9369,-1.953,-1.9406,-1.8741,-1.8496,-1.8419,-1.8125,-1.7686,-1.7113,-1.6209,-1.5654,-1.5218,-4.3479,-4.3479,-4.3479,-4.3479,-4.3479,-4.3479,-4.325,-4.2772,0.0,0.0,0.0,-3.8529,-3.821,-3.8108,-3.8091,-3.7686,-3.6998,-3.6863,-3.6434,-3.5769,-3.5047,-3.4692,-3.4658,-3.3947,-3.3271,-3.2699,-3.2564,-3.2107,-3.141,-3.1396,-3.1021,-3.0362,-3.0156,-2.9328,-2.7858,-2.7199,-2.6522,-2.5845,-2.5795,-2.5152,-2.3833,-2.3782,-2.3376,-2.253,-2.2482,-2.2158,-2.141,-2.0758,-2.0004,-1.9124,-1.8451,-1.7759,-1.7105,-1.6995,-1.6907,-1.6811,-1.7352,-1.785,-1.8168,-1.8697,-1.9034,-1.909,-1.9146,-1.8473,-1.6817,-1.6784,-1.7399,-1.866,-1.8785,-1.8992,-1.9535,-1.9571,-1.9544,-1.9379,-1.9652,-1.9723,-1.9633,-1.9819,-2.0235,-2.0492,-2.0557,-2.0676,-2.1356,-2.134,-2.1246,-2.1231,-2.0925,-2.0562,-2.0539,-2.0109,-1.9723,-1.9723,-1.9723,-1.9723,-1.9723,-1.9723,-1.9723,-1.9723,-1.9723,-1.9723,-1.9723,-1.9723,-1.9723,-1.9672,-1.9723,-1.9512,-1.9151,-1.9024,-1.8893,-1.8458,-1.7953,-1.7598,-1.7504,-1.6753,-1.5868,-4.3479,-4.3479,-4.3479,-4.3479,-4.3479,-4.3479,-4.3462,-4.3249,-4.1676,-4.0821,-4.0568,-4.0012,-3.9453,-3.8836,-3.8836,-3.843,-3.7702,-3.71,-3.6745,-3.6609,-3.5825,-3.543,-3.5397,-3.4692,-3.4307,-3.4172,-3.3541,-3.2865,-3.2226,-3.2141,-3.1785,-3.1038,-3.0429,-2.9328,-2.7925,-2.7705,-2.7283,-2.6556,-2.6539,-2.6133,-2.5321,-2.5304,-2.4644,-2.3325,-2.3257,-2.2902,-2.2175,-2.2009,-2.1897,-2.1754,-2.1275,-2.0679,-2.0014,-1.9617,-1.9231,-1.8681,-1.8728,-1.8931,-1.9235,-1.9112,-1.9119,-1.941,-1.9697,-1.9387,-1.8323,-1.872,-1.9262,-1.9757,-1.9816,-1.9816,-1.9938,-1.9988,-2.0282,-2.0804,-2.0928,-2.1181,-2.1703,-2.1846,-2.2113,-2.2696,-2.2353,-2.2209,-2.2733,-2.2448,-2.2182,-2.2287,-2.1888,-2.1518,-2.1513,-2.0597,-1.981,-1.9723,-1.9723,-1.9723,-1.9857,-1.9723,-1.9768,-1.9723,-1.9723,-1.9723,-1.9723,-1.9723,-1.9723,-1.9723,-1.9723,-1.9672,-1.9566,-1.9584,-1.9493,-1.9332,-1.8912,-1.8607,-1.8516,-1.7705,-1.686,-4.3479,-4.3479,-4.3479,-4.3339,-4.3014,-4.2368,-4.2289,-4.2426,-4.1064,-4.0803,-4.1313,-4.0797,-4.018,-3.9622,-3.9605,-3.9216,-3.8481,-3.8125,-3.7533,-3.6812,-3.6417,-3.6028,-3.56,-3.525,-3.4878,-3.4489,-3.4167,-3.3609,-3.2916,-3.2513,-3.2141,-3.1715,-3.0683,-2.9753,-2.9058,-2.8653,-2.8095,-2.7334,-2.6911,-2.6336,-2.5642,-2.5609,-2.5068,-2.4002,-2.4,-2.3444,-2.2347,-2.2313,-2.1924,-2.1079,-2.0837,-2.052,-2.0036,-1.9822,-1.9589,-1.932,-1.9647,-2.0033,-2.0425,-2.0653,-2.0855,-2.1011,-2.1167,-2.1059,-2.0582,-2.0468,-2.0629,-2.1184,-2.1248,-2.1235,-2.1265,-2.1603,-2.1975,-2.2344,-2.2747,-2.312,-2.341,-2.3509,-2.363,-2.3881,-2.3342,-2.3038,-2.3342,-2.3105,-2.2943,-2.3038,-2.287,-2.272,-2.2369,-2.1701,-2.1188,-2.1152,-2.0959,-2.082,-2.0756,-2.0438,-2.0273,-2.0243,-1.9932,-1.9753,-1.9723,-1.9723,-1.9723,-1.9723,-1.9723,-1.9723,-1.9723,-1.9723,-1.9723,-1.9654,-1.9281,-1.8949,-1.8765,-1.8046,-1.7188,-4.3479,-4.3479,-4.3479,-4.3196,-4.2616,-4.1707,-4.1512,-4.1686,-4.0868,-4.0891,-4.1468,-4.099,-4.0497,-4.0121,-4.0113,-3.9791,-3.9259,-3.9073,-3.8379,-3.7354,-3.6948,-3.6451,-3.5887,-3.5701,-3.5295,-3.4793,-3.4742,-3.4353,-3.366,-3.3072,-3.2598,-3.2209,-3.0987,-3.026,-3.0089,-2.9533,-2.8839,-2.8077,-2.7334,-2.659,-2.5879,-2.5829,-2.549,-2.4812,-2.4762,-2.412,-2.2885,-2.2801,-2.226,-2.113,-2.1011,-2.0918,-2.0636,-2.0472,-2.0376,-2.0409,-2.0758,-2.1186,-2.1688,-2.2378,-2.2801,-2.2801,-2.2801,-2.2801,-2.275,-2.229,-2.2087,-2.2479,-2.2682,-2.2801,-2.2852,-2.3241,-2.3661,-2.368,-2.4152,-2.4372,-2.4474,-2.4508,-2.4575,-2.4609,-2.4086,-2.3697,-2.3833,-2.3731,-2.3663,-2.3703,-2.4141,-2.413,-2.3341,-2.3154,-2.3204,-2.3011,-2.2394,-2.1659,-2.1665,-2.1291,-2.0976,-2.0917,-2.0543,-2.0333,-2.0217,-2.0007,-1.9809,-1.9869,-1.9798,-1.9723,-1.9723,-1.9723,-1.9723,-1.9672,-1.9387,-1.908,-1.8893,-1.8185,-1.7353,-4.3479,-4.3479,-4.3479,-4.3196,-4.2713,-4.2539,-4.2203,-4.181,-4.1682,-4.1358,-4.0926,-4.0417,-4.0171,-4.0113,-4.0113,-4.0045,-3.9926,-3.9292,-3.8928,-3.8599,-3.7405,-3.6761,-3.6609,-3.5938,-3.5566,-3.5481,-3.5464,-3.5059,-3.4421,-3.4252,-3.3596,-3.2361,-3.1498,-3.0751,-3.0192,-3.004,-2.9617,-2.8908,-2.8112,-2.7334,-2.6657,-2.6607,-2.6234,-2.5508,-2.549,-2.5135,-2.4288,-2.4288,-2.422,-2.4101,-2.4,-2.4019,-2.3921,-2.3365,-2.3011,-2.296,-2.2473,-2.2451,-2.3139,-2.3898,-2.4237,-2.4288,-2.422,-2.422,-2.422,-2.4203,-2.3915,-2.3579,-2.3915,-2.4169,-2.4305,-2.4338,-2.4406,-2.4406,-2.4541,-2.4508,-2.4609,-2.4508,-2.4762,-2.5439,-2.4847,-2.4611,-2.505,-2.4746,-2.4423,-2.4525,-2.5425,-2.5832,-2.5196,-2.5151,-2.5263,-2.4987,-2.3528,-2.2023,-2.1884,-2.1699,-2.1708,-2.1688,-2.155,-2.1389,-2.115,-2.0516,-1.9869,-2.0468,-2.0198,-1.9932,-1.9798,-1.9723,-1.9738,-1.9723,-1.9584,-1.946,-1.9006,-1.8438,-1.7867,-4.3479,-4.3479,-4.3479,-4.3375,-4.3105,-4.2462,-4.2038,-4.1771,-4.1424,-4.0943,-4.0424,-4.0179,-4.0113,-4.0113,-4.0113,-4.0113,-4.0079,-3.9791,-3.9419,-3.8971,-3.8345,-3.7658,-3.6829,-3.6508,-3.6096,-3.5616,-3.5616,-3.543,-3.5042,-3.4303,-3.3305,-3.2344,-3.1565,-3.1038,-3.0751,-3.0751,-3.0395,-2.9668,-2.9347,-2.8568,-2.7435,-2.6911,-2.6573,-2.6285,-2.6251,-2.5896,-2.5236,-2.5152,-2.4965,-2.4541,-2.4508,-2.4508,-2.4508,-2.422,-2.4051,-2.4034,-2.3765,-2.3729,-2.4034,-2.4338,-2.4508,-2.4508,-2.4508,-2.4508,-2.4525,-2.4897,-2.5,-2.4763,-2.4609,-2.4508,-2.4558,-2.4881,-2.5169,-2.5203,-2.5524,-2.5794,-2.5811,-2.5778,-2.5963,-2.6167,-2.5609,-2.5236,-2.5507,-2.5355,-2.5355,-2.5692,-2.6387,-2.6421,-2.5965,-2.5955,-2.5855,-2.5494,-2.4426,-2.392,-2.3678,-2.3389,-2.3099,-2.274,-2.2351,-2.2064,-2.1694,-2.1365,-2.1006,-2.1261,-2.1051,-2.0707,-2.0363,-2.0273,-2.0213,-1.9974,-1.9723,-1.9621,-1.942,-1.8949,-1.8516,-4.3698,-4.3497,-4.3339,-4.3304,-4.3178,-4.2226,-4.1725,-4.1512,-4.1087,-4.0601,-4.0121,-4.0113,-4.0113,-4.0113,-4.0113,-4.0113,-4.0113,-4.0113,-3.9825,-3.9292,-3.9089,-3.8396,-3.7438,-3.6965,-3.6485,-3.5977,-3.5701,-3.56,-3.5464,-3.4349,-3.3322,-3.2577,-3.187,-3.1393,-3.1207,-3.119,-3.0937,-3.0446,-3.0226,-2.955,-2.8483,-2.7706,-2.7148,-2.6759,-2.6708,-2.6437,-2.5947,-2.5913,-2.5659,-2.5134,-2.5117,-2.51,-2.51,-2.4931,-2.4711,-2.4541,-2.4694,-2.4812,-2.4812,-2.4982,-2.51,-2.51,-2.51,-2.51,-2.5185,-2.5592,-2.5879,-2.5862,-2.5389,-2.5151,-2.5168,-2.5575,-2.5879,-2.593,-2.642,-2.6691,-2.6657,-2.6708,-2.6657,-2.664,-2.6201,-2.5913,-2.5913,-2.593,-2.6082,-2.6522,-2.6657,-2.6624,-2.6297,-2.6192,-2.6068,-2.5672,-2.5601,-2.5454,-2.5249,-2.4729,-2.4258,-2.3803,-2.3239,-2.2858,-2.2345,-2.2239,-2.2039,-2.2104,-2.2149,-2.1844,-2.1171,-2.0946,-2.0752,-2.0228,-1.9989,-1.9914,-1.9665,-1.924,-1.8949,-4.4195,-4.3446,-4.2939,-4.2732,-4.2674,-4.208,-4.1468,-4.0995,-4.0926,-4.0601,-4.0146,-4.0113,-4.0113,-4.0113,-4.0113,-4.0113,-4.0113,-4.0113,-4.0062,-3.9926,-3.9326,-3.8971,-3.8802,-3.7506,-3.6795,-3.6609,-3.6011,-3.5667,-3.5549,-3.481,-3.4083,-3.3355,-3.2581,-3.1887,-3.1343,-3.1224,-3.1173,-3.1021,-3.0497,-3.0038,-2.9871,-2.9211,-2.818,-2.6979,-2.6725,-2.6708,-2.6607,-2.6657,-2.6606,-2.6589,-2.6505,-2.6522,-2.6505,-2.593,-2.5253,-2.4728,-2.5186,-2.5558,-2.5642,-2.6116,-2.6471,-2.6522,-2.642,-2.6539,-2.6403,-2.6471,-2.6539,-2.6623,-2.6454,-2.6437,-2.6437,-2.6437,-2.6556,-2.6573,-2.664,-2.6708,-2.6708,-2.6708,-2.6708,-2.6708,-2.6607,-2.6522,-2.659,-2.664,-2.659,-2.6674,-2.6708,-2.6657,-2.6641,-2.6624,-2.6573,-2.6539,-2.647,-2.6281,-2.5468,-2.5303,-2.5003,-2.4595,-2.4339,-2.4045,-2.3764,-2.3482,-2.3122,-2.2942,-2.3056,-2.2757,-2.1994,-2.15,-2.1246,-2.0917,-2.0707,-2.0528,-2.0277,-1.9409,-1.9159,-4.3494,-4.2404,-4.2206,-4.2103,-4.2101,-4.1895,-4.1446,-4.0926,-4.0903,-4.0601,-4.0171,-4.0113,-4.0113,-4.0113,-4.0113,-4.0113,-4.0113,-4.0113,-4.0113,-4.0079,-3.9825,-3.9469,-3.8954,-3.8396,-3.7658,-3.6863,-3.6524,-3.6096,-3.5532,-3.4861,-3.437,-3.3947,-3.2865,-3.2158,-3.187,-3.1447,-3.119,-3.1157,-3.0903,-3.0581,-3.0159,-2.9837,-2.9213,-2.8231,-2.7672,-2.7182,-2.6708,-2.6708,-2.6708,-2.6708,-2.6708,-2.6708,-2.6674,-2.6437,-2.6201,-2.598,-2.6183,-2.6302,-2.6336,-2.6556,-2.6708,-2.6708,-2.6708,-2.6708,-2.6708,-2.6708,-2.6708,-2.6708,-2.6708,-2.6708,-2.6708,-2.6708,-2.6708,-2.6708,-2.6708,-2.6708,-2.6708,-2.6708,-2.6708,-2.6708,-2.6708,-2.6708,-2.6708,-2.6708,-2.6708,-2.6708,-2.6708,-2.6742,-2.6708,-2.6708,-2.6742,-2.6708,-2.6691,-2.6573,-2.6298,-2.6176,-2.6017,-2.5654,-2.5325,-2.4819,-2.446,-2.3779,-2.3323,-2.3342,-2.3591,-2.331,-2.2443,-2.2009,-2.1754,-2.153,-2.1335,-2.1231,-2.1055,-2.0311,-2.0047,-4.3438,-4.2235,-4.1965,-4.1868,-4.1768,-4.1617,-4.1308,-4.0903,-4.0903,-4.0583,-4.0171,-4.0113,-4.0113,-4.0113,-4.0113,-4.0113,-4.0113,-4.0113,-4.0113,-4.0113,-4.0113,-3.9817,-3.9402,-3.9106,-3.8481,-3.7533,-3.6998,-3.6366,-3.5616,-3.5115,-3.4742,-3.4426,-3.3478,-3.275,-3.231,-3.1782,-3.1481,-3.1258,-3.119,-3.0937,-3.0514,-3.0463,-3.0108,-2.9397,-2.8822,-2.8043,-2.7114,-2.6826,-2.6708,-2.6708,-2.6708,-2.6708,-2.6708,-2.6708,-2.6708,-2.6708,-2.6691,-2.6708,-2.6708,-2.6708,-2.6708,-2.6708,-2.6708,-2.6708,-2.6708,-2.6708,-2.6708,-2.6708,-2.6708,-2.6708,-2.6708,-2.6708,-2.6708,-2.6708,-2.6708,-2.6708,-2.6708,-2.6708,-2.6708,-2.6708,-2.6708,-2.6708,-2.6708,-2.6708,-2.6826,-2.6996,-2.7063,-2.7114,-2.7351,-2.7182,-2.7063,-2.7029,-2.6826,-2.6742,-2.6556,-2.6505,-2.6315,-2.5997,-2.5852,-2.543,-2.4934,-2.4204,-2.3815,-2.3815,-2.3655,-2.3404,-2.3062,-2.2598,-2.2293,-2.2069,-2.1984,-2.1924,-2.164,-2.1291,-2.1034,-4.4124,-4.282,-4.2335,-4.1963,-4.1688,-4.1267,-4.099,-4.085,-4.085,-4.0528,-4.0121,-4.0113,-4.0113,-4.0113,-4.0113,-4.0113,-4.0113,-4.0113,-4.0113,-4.0113,-4.0113,-4.0096,-3.9977,-3.9402,-3.9022,-3.87,-3.7472,-3.6417,-3.5718,-3.5549,-3.5177,-3.4641,-3.4438,-3.3681,-3.2378,-3.231,-3.1904,-3.1447,-3.1258,-3.1157,-3.1173,-3.1106,-3.0784,-3.0192,-2.9971,-2.9277,-2.7908,-2.7165,-2.6776,-2.6708,-2.6708,-2.6708,-2.6708,-2.6708,-2.6708,-2.6708,-2.6708,-2.6708,-2.6708,-2.6708,-2.6708,-2.6725,-2.6725,-2.6826,-2.686,-2.6894,-2.6945,-2.6979,-2.6945,-2.686,-2.6911,-2.6928,-2.686,-2.6708,-2.6708,-2.6708,-2.6708,-2.6708,-2.6708,-2.6708,-2.6742,-2.6742,-2.6742,-2.6945,-2.7232,-2.7672,-2.7824,-2.7942,-2.8349,-2.8095,-2.7858,-2.7638,-2.7317,-2.6996,-2.6843,-2.6657,-2.6401,-2.6156,-2.6103,-2.5872,-2.5376,-2.4776,-2.4516,-2.445,-2.3991,-2.3749,-2.3445,-2.3056,-2.3002,-2.2808,-2.2718,-2.2553,-2.2293,-2.2024,-2.1799,-4.3763,-4.2499,-4.2313,-4.1903,-4.1393,-4.122,-4.0847,-4.0377,-4.0343,-4.0254,-4.0121,-4.0113,-4.0113,-4.0113,-4.0113,-4.0113,-4.0113,-4.0113,-4.0113,-4.0113,-4.0113,-4.0113,-4.0062,-3.9876,-3.9486,-3.8819,-3.7506,-3.6694,-3.6349,-3.5876,-3.5447,-3.5211,-3.4742,-3.4286,-3.3711,-3.2852,-3.2141,-3.1938,-3.1464,-3.119,-3.119,-3.119,-3.1072,-3.0835,-3.0378,-2.9818,-2.9362,-2.8145,-2.7232,-2.6776,-2.6708,-2.6708,-2.6708,-2.6708,-2.6708,-2.6708,-2.6708,-2.6708,-2.6708,-2.6725,-2.6742,-2.681,-2.7165,-2.7418,-2.7537,-2.7943,-2.8214,-2.8248,-2.8282,-2.8299,-2.8299,-2.8282,-2.7825,-2.6826,-2.6708,-2.6793,-2.6843,-2.6776,-2.6708,-2.6759,-2.7131,-2.7435,-2.7571,-2.7807,-2.8265,-2.8518,-2.8619,-2.8704,-2.8535,-2.8704,-2.8416,-2.8111,-2.7706,-2.7469,-2.7452,-2.7317,-2.7027,-2.6737,-2.6567,-2.6313,-2.5817,-2.5468,-2.5224,-2.4736,-2.4328,-2.3985,-2.3702,-2.3535,-2.34,-2.3385,-2.3236,-2.3101,-2.2981,-2.2757,-2.2493,-4.3967,-4.2753,-4.2709,-4.2286,-4.1627,-4.161,-4.1187,-4.0561,-4.0519,-4.0367,-4.0146,-4.0113,-4.0113,-4.0113,-4.0113,-4.0113,-4.0113,-4.0113,-4.0113,-4.0113,-4.0113,-4.0113,-4.0113,-4.0113,-3.9723,-3.8903,-3.7794,-3.7083,-3.6761,-3.6028,-3.56,-3.5498,-3.5131,-3.4742,-3.4472,-3.3647,-3.3021,-3.2662,-3.1985,-3.1616,-3.1529,-3.1326,-3.119,-3.1123,-3.0751,-3.0378,-3.0074,-2.9144,-2.8314,-2.7706,-2.7571,-2.7453,-2.7165,-2.7114,-2.6996,-2.6742,-2.6725,-2.681,-2.7029,-2.7148,-2.7266,-2.7571,-2.7977,-2.8247,-2.8332,-2.879,-2.8976,-2.8993,-2.8942,-2.8993,-2.8976,-2.8976,-2.8519,-2.7706,-2.7622,-2.7571,-2.7537,-2.7537,-2.7571,-2.7723,-2.7994,-2.8213,-2.8399,-2.8586,-2.9128,-2.9297,-2.9397,-2.9533,-2.9279,-2.9381,-2.9161,-2.8873,-2.8535,-2.8366,-2.823,-2.7994,-2.7672,-2.7384,-2.7096,-2.6706,-2.6245,-2.5998,-2.5762,-2.4796,-2.4204,-2.3879,-2.3595,-2.3595,-2.352,-2.3595,-2.3595,-2.346,-2.3281,-2.3221,-2.3032,-4.4687,-4.3504,-4.3487,-4.3047,-4.2388,-4.2354,-4.188,-4.1238,-4.1153,-4.0747,-4.0214,-4.0113,-4.0113,-4.0113,-4.0113,-4.0113,-4.0113,-4.0113,-4.0113,-4.0113,-4.0113,-4.0113,-4.0113,-4.0113,-3.9774,-3.9123,-3.8345,-3.7652,-3.7168,-3.6248,-3.5667,-3.5752,-3.5583,-3.5284,-3.4709,-3.4523,-3.4015,-3.344,-3.275,-3.2378,-3.2327,-3.1664,-3.1309,-3.1309,-3.1173,-3.0852,-3.0328,-3.0108,-2.9719,-2.9094,-2.879,-2.8485,-2.801,-2.7874,-2.7588,-2.708,-2.6877,-2.7283,-2.7722,-2.7874,-2.8112,-2.8688,-2.889,-2.9077,-2.9094,-2.9264,-2.9416,-2.9382,-2.9331,-2.9264,-2.9281,-2.9297,-2.923,-2.9145,-2.8874,-2.8773,-2.8925,-2.8874,-2.8722,-2.8824,-2.8976,-2.9061,-2.9059,-2.9196,-2.9583,-2.9956,-3.0159,-3.0362,-3.0565,-3.0412,-3.0226,-2.9871,-2.9431,-2.9161,-2.9008,-2.8587,-2.8299,-2.813,-2.7876,-2.7553,-2.7059,-2.6796,-2.6089,-2.5104,-2.4363,-2.3973,-2.3631,-2.361,-2.361,-2.3595,-2.3595,-2.3595,-2.355,-2.346,-2.3595,-4.4629,-4.4282,-4.4293,-4.3826,-4.3166,-4.3132,-4.2388,-4.1305,-4.1238,-4.0849,-4.0231,-4.0113,-4.0113,-4.0113,-4.0113,-4.0113,-4.0113,-4.0113,-4.0113,-4.0113,-4.0113,-4.0113,-4.0113,-4.0113,-4.0011,-3.969,-3.9005,-3.8616,-3.8311,-3.7026,-3.6451,-3.6451,-3.5859,-3.5515,-3.5261,-3.4776,-3.4421,-3.4134,-3.3491,-3.3102,-3.3,-3.2374,-3.2039,-3.1955,-3.1515,-3.114,-3.092,-3.0903,-3.0277,-2.9111,-2.8993,-2.8942,-2.8704,-2.867,-2.8553,-2.8333,-2.8333,-2.8434,-2.862,-2.867,-2.8807,-2.901,-2.9568,-2.9803,-2.9837,-3.0311,-3.0548,-3.0615,-3.0635,-3.0565,-3.0581,-3.0548,-3.0565,-3.0482,-2.9738,-2.9128,-2.9094,-2.8993,-2.8993,-2.9027,-2.9499,-2.9753,-2.9905,-3.0209,-3.0565,-3.0784,-3.0852,-3.0886,-3.1038,-3.1072,-3.0734,-3.0649,-3.0345,-3.0023,-2.9685,-2.923,-2.8925,-2.8824,-2.8722,-2.8671,-2.8217,-2.7859,-2.6805,-2.5603,-2.5102,-2.4689,-2.4003,-2.364,-2.3625,-2.3894,-2.3834,-2.3924,-2.3729,-2.3625,-2.3999,-4.4598,-4.4598,-4.4598,-4.4316,-4.3927,-4.391,-4.3234,-4.2219,-4.1779,-4.1255,-4.0612,-4.0214,-4.0113,-4.0113,-4.0113,-4.0113,-4.0113,-4.0113,-4.0113,-4.0113,-4.0113,-4.0113,-4.0113,-4.0113,-4.0113,-4.0011,-3.9343,-3.9022,-3.87,-3.7523,-3.688,-3.662,-3.6011,-3.5633,-3.5549,-3.5233,-3.4979,-3.4844,-3.4269,-3.3863,-3.3795,-3.3136,-3.2835,-3.2632,-3.2073,-3.1565,-3.1275,-3.1173,-3.0734,-3.0091,-2.9924,-2.9788,-2.9482,-2.9448,-2.9331,-2.9061,-2.8993,-2.9094,-2.9416,-2.9448,-2.9619,-2.9907,-3.0378,-3.0497,-3.0598,-3.0987,-3.119,-3.114,-3.119,-3.119,-3.119,-3.119,-3.119,-3.1021,-3.0412,-2.9924,-2.9905,-2.9991,-2.9941,-3.0042,-3.0277,-3.0565,-3.0565,-3.097,-3.1123,-3.1173,-3.1123,-3.114,-3.1173,-3.119,-3.1207,-3.1106,-3.0987,-3.0649,-3.0514,-3.0194,-2.9924,-2.977,-2.967,-2.9619,-2.9095,-2.8655,-2.7535,-2.6435,-2.5902,-2.5331,-2.4722,-2.435,-2.4567,-2.4687,-2.4462,-2.4388,-2.4343,-2.4163,-2.4507,-4.4598,-4.4598,-4.4598,-4.4598,-4.4564,-4.4581,-4.4012,-4.3335,-4.2675,-4.1931,-4.1153,-4.0476,-4.0248,-4.0113,-4.0113,-4.0113,-4.0113,-4.0113,-4.0113,-4.0113,-4.0113,-4.0113,-4.0096,-3.991,-3.9876,-3.9757,-3.9233,-3.887,-3.8447,-3.7405,-3.6863,-3.6626,-3.6011,-3.565,-3.56,-3.5549,-3.56,-3.5414,-3.4945,-3.4624,-3.4472,-3.3914,-3.3525,-3.3406,-3.2818,-3.209,-3.1579,-3.136,-3.1241,-3.1157,-3.119,-3.0768,-3.026,-3.019,-2.9956,-2.9534,-2.9484,-2.9668,-3.0074,-3.0226,-3.0446,-3.092,-3.1055,-3.119,-3.1123,-3.1157,-3.119,-3.119,-3.119,-3.119,-3.119,-3.119,-3.1292,-3.1309,-3.1241,-3.119,-3.136,-3.1292,-3.119,-3.119,-3.1157,-3.1173,-3.119,-3.119,-3.119,-3.119,-3.119,-3.119,-3.119,-3.119,-3.1326,-3.1481,-3.1343,-3.1207,-3.1173,-3.1157,-3.0987,-3.0835,-3.07,-3.0495,-2.9719,-2.9084,-2.8152,-2.7323,-2.6773,-2.6227,-2.5667,-2.5546,-2.5511,-2.536,-2.5061,-2.527,-2.545,-2.5136,-2.5211,-4.4598,-4.4598,-4.4598,-4.4598,-4.4598,-4.4581,-4.413,-4.3436,-4.325,-4.2422,-4.1407,-4.1018,-4.0612,-4.0113,-4.0113,-4.0113,-4.0113,-4.0113,-4.0113,-4.0113,-4.0113,-4.0113,-3.9977,-3.958,-3.9283,-3.9131,-3.8497,-3.8176,-3.7905,-3.7347,-3.6812,-3.6694,-3.6045,-3.5616,-3.5616,-3.5616,-3.5616,-3.5583,-3.5397,-3.5312,-3.5165,-3.4641,-3.4235,-3.4134,-3.3525,-3.2814,-3.2242,-3.2073,-3.1785,-3.136,-3.1207,-3.1157,-3.0937,-3.0903,-3.0768,-3.0632,-3.0615,-3.0734,-3.0903,-3.0903,-3.1021,-3.1207,-3.1292,-3.119,-3.119,-3.1292,-3.1258,-3.1207,-3.119,-3.1343,-3.1376,-3.1241,-3.1546,-3.1853,-3.1664,-3.1732,-3.2425,-3.1901,-3.1326,-3.1292,-3.1309,-3.1207,-3.1241,-3.136,-3.1326,-3.1224,-3.1258,-3.1224,-3.1292,-3.1393,-3.1664,-3.2019,-3.1867,-3.1799,-3.1935,-3.1935,-3.1799,-3.1749,-3.1681,-3.1596,-3.0816,-3.0156,-2.9477,-2.8554,-2.7623,-2.7063,-2.6481,-2.6036,-2.5854,-2.5749,-2.5734,-2.5884,-2.5974,-2.5839,-2.5914,-4.4598,-4.4598,-4.4598,-4.4598,-4.4598,-4.4598,-4.4378,-4.3927,-4.3527,-4.2794,-4.1813,-4.1407,-4.0781,-4.013,-4.0113,-4.0113,-4.0113,-4.0113,-4.0113,-4.0113,-4.0113,-4.0113,-3.9943,-3.9394,-3.8988,-3.8886,-3.8261,-3.7939,-3.7719,-3.7178,-3.6812,-3.6745,-3.6011,-3.565,-3.5616,-3.5616,-3.5616,-3.5616,-3.5616,-3.5616,-3.5498,-3.5228,-3.4776,-3.4539,-3.4083,-3.3575,-3.2899,-3.2814,-3.2611,-3.2256,-3.1901,-3.1549,-3.1258,-3.119,-3.119,-3.119,-3.119,-3.119,-3.119,-3.1207,-3.1343,-3.1701,-3.1718,-3.1955,-3.2121,-3.2239,-3.2239,-3.2239,-3.2256,-3.2239,-3.2222,-3.2239,-3.2493,-3.2594,-3.2476,-3.2628,-3.3034,-3.2391,-3.1904,-3.2087,-3.2324,-3.2307,-3.2239,-3.2019,-3.2154,-3.2341,-3.2391,-3.2374,-3.2442,-3.2527,-3.256,-3.2696,-3.2493,-3.2476,-3.2662,-3.2662,-3.2544,-3.2544,-3.2577,-3.256,-3.2246,-3.1675,-3.1106,-2.9897,-2.8592,-2.7759,-2.7185,-2.6711,-2.6495,-2.6632,-2.6716,-2.6587,-2.6557,-2.6677,-2.6821,-4.4598,-4.4598,-4.4598,-4.4598,-4.4598,-4.4598,-4.4581,-4.4451,-4.3893,-4.3132,-4.2303,-4.1627,-4.0984,-4.0248,-4.0113,-4.0113,-4.0113,-4.0113,-4.0113,-4.0113,-4.0113,-4.0113,-3.9926,-3.9419,-3.8988,-3.8886,-3.8041,-3.7669,-3.728,-3.6958,-3.6468,-3.6451,-3.5994,-3.5633,-3.5616,-3.5616,-3.5616,-3.5616,-3.5616,-3.5616,-3.5616,-3.5532,-3.5233,-3.4878,-3.4692,-3.4286,-3.3728,-3.3558,-3.3453,-3.3368,-3.2818,-3.2209,-3.1701,-3.1241,-3.119,-3.1207,-3.1326,-3.1478,-3.1546,-3.1613,-3.1918,-3.2446,-3.2462,-3.2733,-3.3152,-3.322,-3.3169,-3.322,-3.3186,-3.3186,-3.3351,-3.3203,-3.3305,-3.3474,-3.3508,-3.3503,-3.3571,-3.3085,-3.3,-3.3068,-3.3017,-3.2949,-3.3051,-3.3017,-3.3237,-3.3406,-3.344,-3.344,-3.3474,-3.3457,-3.3372,-3.3305,-3.3119,-3.2899,-3.3034,-3.3152,-3.3068,-3.3152,-3.3271,-3.3288,-3.3271,-3.2749,-3.195,-3.0729,-2.9586,-2.8811,-2.8139,-2.7719,-2.7595,-2.772,-2.748,-2.7165,-2.727,-2.7555,-2.76,-4.4598,-4.4598,-4.4598,-4.4598,-4.4598,-4.4598,-4.4598,-4.4598,-4.4429,-4.3599,-4.2405,-4.2134,-4.1331,-4.0434,-4.0113,-4.0113,-4.0113,-4.0113,-4.0113,-4.0113,-4.0113,-4.0113,-3.996,-3.9503,-3.9073,-3.8599,-3.7838,-3.6992,-3.6332,-3.5836,-3.596,-3.5808,-3.5684,-3.5616,-3.5684,-3.5633,-3.5752,-3.587,-3.5802,-3.5735,-3.5735,-3.5616,-3.5549,-3.5295,-3.5278,-3.4962,-3.4489,-3.4286,-3.4049,-3.3474,-3.3305,-3.3169,-3.2797,-3.1935,-3.1427,-3.1478,-3.187,-3.2104,-3.2175,-3.2628,-3.2983,-3.3203,-3.322,-3.3254,-3.3457,-3.3491,-3.3677,-3.3592,-3.3575,-3.3491,-3.3406,-3.3609,-3.3795,-3.3981,-3.3981,-3.396,-3.4653,-3.4523,-3.388,-3.3778,-3.3626,-3.3575,-3.3778,-3.388,-3.3914,-3.3981,-3.3964,-3.3909,-3.3892,-3.388,-3.3829,-3.3761,-3.3711,-3.3474,-3.3339,-3.344,-3.3491,-3.3609,-3.3711,-3.3728,-3.366,-3.344,-3.2676,-3.1835,-3.0952,-3.017,-2.954,-2.8774,-2.8341,-2.8166,-2.7895,-2.766,-2.7914,-2.8139,-2.7944,-4.4598,-4.4598,-4.4598,-4.4598,-4.4598,-4.4598,-4.4598,-4.4598,-4.4581,-4.3944,-4.3014,-4.2439,-4.1711,-4.0781,-4.0214,-4.0113,-4.0113,-4.0113,-4.0113,-4.0113,-4.0113,-4.0113,-4.0113,-3.9706,-3.9368,-3.8937,-3.8193,-3.7286,-3.6265,-3.5825,-3.5701,-3.5616,-3.5616,-3.5808,-3.6129,-3.6265,-3.6434,-3.6586,-3.6434,-3.6214,-3.6146,-3.587,-3.5633,-3.5616,-3.56,-3.5397,-3.5216,-3.5081,-3.4928,-3.4551,-3.4184,-3.4015,-3.366,-3.3085,-3.2341,-3.2408,-3.2662,-3.2848,-3.2865,-3.3254,-3.3508,-3.3914,-3.3964,-3.4184,-3.4416,-3.4607,-3.4472,-3.4484,-3.4518,-3.4535,-3.4585,-3.4489,-3.4742,-3.4928,-3.4726,-3.4873,-3.5261,-3.5194,-3.4861,-3.4455,-3.4607,-3.4658,-3.4692,-3.4709,-3.4607,-3.4518,-3.4484,-3.4433,-3.4382,-3.4399,-3.4438,-3.4506,-3.4523,-3.4421,-3.4218,-3.4201,-3.4163,-3.4235,-3.4286,-3.4286,-3.4349,-3.4303,-3.4049,-3.3506,-3.2608,-3.1362,-3.0385,-2.95,-2.9052,-2.8677,-2.8659,-2.8663,-2.8663,-2.8648,-2.8483,-4.4598,-4.4598,-4.4598,-4.4598,-4.4598,-4.4598,-4.4598,-4.4598,-4.4598,-4.4012,-4.3166,-4.254,-4.1779,-4.0984,-4.0409,-4.0113,-4.0113,-4.0113,-4.0113,-4.0113,-4.0113,-4.0113,-4.0113,-4.0045,-3.9808,-3.9385,-3.8903,-3.8311,-3.7094,-3.6315,-3.6028,-3.6124,-3.6039,-3.6231,-3.688,-3.7009,-3.7466,-3.7499,-3.7364,-3.6992,-3.6654,-3.6214,-3.5718,-3.5616,-3.5616,-3.56,-3.5515,-3.5498,-3.5515,-3.5312,-3.5008,-3.4709,-3.4624,-3.4167,-3.3863,-3.3829,-3.3711,-3.3626,-3.366,-3.3897,-3.4286,-3.4675,-3.4709,-3.5047,-3.5295,-3.5363,-3.5481,-3.5616,-3.5532,-3.5464,-3.5363,-3.5532,-3.5549,-3.5532,-3.5532,-3.56,-3.5566,-3.5515,-3.5481,-3.538,-3.5616,-3.5498,-3.5278,-3.5245,-3.5076,-3.5076,-3.5042,-3.5092,-3.5059,-3.5177,-3.5228,-3.5346,-3.538,-3.538,-3.5261,-3.516,-3.5092,-3.5042,-3.5059,-3.5059,-3.5228,-3.5363,-3.493,-3.4286,-3.3336,-3.2071,-3.1138,-3.0247,-2.9696,-2.9399,-2.9567,-2.9502,-2.9247,-2.9202,-2.9157,-4.4598,-4.4598,-4.4598,-4.4598,-4.4598,-4.4598,-4.4598,-4.4598,-4.4598,-4.3768,-4.2692,-4.2313,-4.1568,-4.0519,-4.0214,-4.0113,-4.0113,-4.0113,-4.0113,-4.0113,-4.0113,-4.0113,-4.0113,-4.0113,-4.0062,-3.9757,-3.9292,-3.8582,-3.7838,-3.7094,-3.6975,-3.7246,-3.6924,-3.7009,-3.7686,-3.777,-3.7821,-3.7905,-3.7855,-3.7466,-3.6907,-3.6671,-3.6248,-3.5853,-3.5616,-3.5616,-3.5616,-3.5616,-3.5616,-3.5583,-3.5515,-3.5447,-3.5447,-3.5414,-3.5346,-3.5165,-3.481,-3.437,-3.4455,-3.4793,-3.5092,-3.5301,-3.5385,-3.5498,-3.5566,-3.5616,-3.5616,-3.5616,-3.5616,-3.5616,-3.5616,-3.5616,-3.5616,-3.5616,-3.5616,-3.5616,-3.5616,-3.5616,-3.5616,-3.5616,-3.5616,-3.5616,-3.5498,-3.5549,-3.5583,-3.56,-3.5616,-3.5616,-3.5616,-3.5616,-3.5616,-3.5616,-3.5616,-3.5616,-3.5616,-3.5616,-3.5616,-3.5616,-3.5616,-3.56,-3.5554,-3.547,-3.5184,-3.4459,-3.3526,-3.2682,-3.1724,-3.0918,-3.0295,-3.0072,-3.0128,-2.9894,-2.9577,-2.9624,-2.9849,-4.4181,-4.4598,-4.4598,-4.4598,-4.4598,-4.4598,-4.4598,-4.4598,-4.4581,-4.4259,-4.3498,-4.2591,-4.1484,-4.0316,-4.0113,-4.0113,-4.0113,-4.0113,-4.0113,-4.0113,-4.0113,-4.0113,-4.0113,-4.0113,-4.0113,-4.0011,-3.9783,-3.9614,-3.8836,-3.8058,-3.7652,-3.7821,-3.7652,-3.7787,-3.8447,-3.8514,-3.8802,-3.892,-3.8734,-3.8142,-3.7499,-3.7032,-3.6637,-3.6265,-3.5893,-3.5718,-3.5684,-3.5616,-3.5616,-3.5616,-3.5616,-3.56,-3.56,-3.5583,-3.5583,-3.5549,-3.5312,-3.5148,-3.5182,-3.543,-3.5549,-3.5616,-3.5616,-3.5583,-3.56,-3.5616,-3.5616,-3.5616,-3.5616,-3.5616,-3.5616,-3.5616,-3.5616,-3.5616,-3.5616,-3.5616,-3.5616,-3.5616,-3.5616,-3.5616,-3.5616,-3.5616,-3.5616,-3.5616,-3.5616,-3.5616,-3.5616,-3.5616,-3.5616,-3.5616,-3.5616,-3.5616,-3.5616,-3.5616,-3.5616,-3.5616,-3.5616,-3.5616,-3.5616,-3.5577,-3.5492,-3.5316,-3.5028,-3.4447,-3.3473,-3.2722,-3.2106,-3.1531,-3.0872,-3.0739,-3.0702,-3.0522,-3.0387,-3.0612,-3.0806,-4.3758,-4.4327,-4.4513,-4.4598,-4.4598,-4.4598,-4.4598,-4.4598,-4.4598,-4.4378,-4.3684,-4.2414,-4.106,-4.0316,-4.0113,-4.0113,-4.0113,-4.0113,-4.0113,-4.0113,-4.0113,-4.0113,-4.0113,-4.0113,-4.0113,-4.0113,-4.0045,-3.996,-3.969,-3.9131,-3.8531,-3.843,-3.8294,-3.8616,-3.9073,-3.9292,-3.952,-3.9808,-3.9503,-3.8903,-3.8227,-3.7709,-3.7371,-3.6958,-3.6552,-3.6174,-3.6174,-3.6242,-3.6259,-3.6276,-3.6062,-3.6028,-3.6011,-3.5769,-3.5633,-3.56,-3.5498,-3.5515,-3.5498,-3.5583,-3.56,-3.5616,-3.5616,-3.5616,-3.5616,-3.5616,-3.5616,-3.5616,-3.5616,-3.5616,-3.5616,-3.5616,-3.5616,-3.5616,-3.5616,-3.5616,-3.5616,-3.5616,-3.5616,-3.5616,-3.5616,-3.5616,-3.5616,-3.5616,-3.5616,-3.5616,-3.5616,-3.5616,-3.5616,-3.5616,-3.5616,-3.5616,-3.5616,-3.5616,-3.5616,-3.5616,-3.5616,-3.5616,-3.5616,-3.56,-3.5532,-3.527,-3.4934,-3.4202,-3.3339,-3.2632,-3.1971,-3.1723,-3.1481,-3.1256,-3.1107,-3.1286,-3.1346,-3.1496,-3.1466,-4.3453,-4.3527,-4.4293,-4.4581,-4.4598,-4.4598,-4.4598,-4.4598,-4.4598,-4.3853,-4.2675,-4.1128,-4.0553,-4.0163,-4.0146,-4.0113,-4.0113,-4.0113,-4.0113,-4.0113,-4.0113,-4.0113,-4.0113,-4.0113,-4.0113,-4.0113,-4.0113,-4.0113,-4.0079,-3.9876,-3.9774,-3.9893,-3.9157,-3.9428,-3.9723,-3.9859,-3.9893,-4.0096,-3.991,-3.9605,-3.9073,-3.8684,-3.8396,-3.7905,-3.777,-3.7729,-3.7696,-3.751,-3.7425,-3.7391,-3.6958,-3.6688,-3.662,-3.6242,-3.6039,-3.6005,-3.5988,-3.5955,-3.5853,-3.5667,-3.5616,-3.5616,-3.5616,-3.5616,-3.5616,-3.5616,-3.5616,-3.5616,-3.5616,-3.5616,-3.5616,-3.5616,-3.5616,-3.5616,-3.5616,-3.5616,-3.5616,-3.5616,-3.5616,-3.5616,-3.5616,-3.5616,-3.5616,-3.5616,-3.5616,-3.5616,-3.5616,-3.5616,-3.5616,-3.5616,-3.5616,-3.5616,-3.5616,-3.5616,-3.5616,-3.5616,-3.5616,-3.5616,-3.5616,-3.5616,-3.5577,-3.5247,-3.4568,-3.3962,-3.3103,-3.2434,-3.1894,-3.1653,-3.1496,-3.1496,-3.1496,-3.1496,-3.1496,-3.1496,-3.1496,-4.2564,-4.3436,-4.3758,-4.413,-4.4598,-4.4598,-4.4598,-4.4598,-4.4581,-4.4039,-4.2895,-4.1914,-4.1187,-4.0764,-4.0248,-4.0113,-4.0113,-4.0113,-4.0113,-4.0113,-4.0113,-4.0113,-4.0113,-4.0113,-4.0113,-4.0113,-4.0113,-4.0113,-4.0113,-4.0113,-4.0113,-3.996,-3.9757,-3.9859,-4.0045,-4.0113,-4.0113,-4.0113,-4.0113,-3.9893,-3.9723,-3.9199,-3.887,-3.8633,-3.8024,-3.7939,-3.7865,-3.7882,-3.7882,-3.7872,-3.7635,-3.7516,-3.7432,-3.7077,-3.6901,-3.6867,-3.685,-3.6664,-3.6248,-3.5926,-3.5616,-3.5616,-3.5616,-3.5616,-3.5616,-3.5616,-3.5616,-3.5616,-3.5616,-3.5616,-3.5616,-3.5616,-3.5616,-3.5616,-3.5616,-3.5616,-3.5616,-3.5616,-3.5616,-3.5616,-3.5616,-3.5616,-3.5616,-3.5616,-3.5616,-3.5616,-3.5616,-3.5616,-3.5616,-3.5616,-3.5616,-3.5616,-3.5616,-3.5616,-3.5616,-3.5616,-3.5616,-3.5616,-3.5616,-3.5616,-3.5509,-3.4512,-3.3862,-3.3339,-3.2837,-3.2132,-3.1653,-3.1553,-3.1496,-3.1496,-3.1496,-3.1496,-3.1496,-3.1496,-3.1496,-4.1796,-4.275,-4.3234,-4.3876,-4.4564,-4.4598,-4.4598,-4.4598,-4.4598,-4.4147,-4.3352,-4.2439,-4.1711,-4.1085,-4.0468,-4.0113,-4.0113,-4.0113,-4.0113,-4.0113,-4.0113,-4.0113,-4.0113,-4.0113,-4.0113,-4.0113,-4.0113,-4.0113,-4.0113,-4.0113,-4.0113,-4.0113,-4.0096,-4.0096,-4.0096,-4.0113,-4.0113,-4.0113,-4.0113,-4.0113,-3.9994,-3.9656,-3.9385,-3.9317,-3.8903,-3.8734,-3.8734,-3.8768,-3.8734,-3.8616,-3.843,-3.8244,-3.8142,-3.8058,-3.7939,-3.7898,-3.7872,-3.7652,-3.706,-3.6231,-3.5667,-3.5616,-3.5616,-3.5616,-3.5616,-3.5616,-3.5616,-3.5616,-3.5616,-3.5616,-3.5616,-3.5616,-3.5616,-3.5616,-3.5616,-3.5616,-3.5616,-3.5616,-3.5616,-3.5616,-3.5616,-3.5616,-3.5616,-3.5616,-3.5616,-3.5616,-3.5616,-3.5616,-3.5616,-3.5616,-3.5616,-3.5616,-3.5616,-3.5616,-3.5616,-3.5616,-3.5616,-3.5616,-3.5616,-3.5616,-3.527,-3.4301,-3.3675,-3.3401,-3.2783,-3.1838,-3.1496,-3.1496,-3.1496,-3.1496,-3.1496,-3.1496,-3.1496,-3.1496,-3.1496,-4.1238,-4.1424,-4.2767,-4.3826,-4.4496,-4.4598,-4.4598,-4.4598,-4.4581,-4.4181,-4.342,-4.2134,-4.1508,-4.1238,-4.0807,-4.0519,-4.0468,-4.0383,-4.0367,-4.0451,-4.0383,-4.0231,-4.0163,-4.018,-4.0113,-4.0113,-4.0113,-4.0113,-4.0113,-4.0113,-4.0113,-4.0113,-4.0113,-4.0113,-4.0113,-4.0113,-4.0113,-4.0113,-4.0113,-4.0113,-4.0079,-3.9977,-3.9926,-3.9859,-3.9774,-3.9622,-3.9622,-3.9622,-3.9605,-3.9571,-3.9174,-3.9005,-3.8937,-3.8464,-3.8244,-3.8176,-3.8125,-3.799,-3.7753,-3.6411,-3.5752,-3.5616,-3.5616,-3.5616,-3.5616,-3.5616,-3.5616,-3.5616,-3.5616,-3.5616,-3.5616,-3.5616,-3.5616,-3.5616,-3.5616,-3.5616,-3.5616,-3.5616,-3.5616,-3.5616,-3.5616,-3.5616,-3.5616,-3.5616,-3.5616,-3.5616,-3.5616,-3.5616,-3.5616,-3.5616,-3.5616,-3.5616,-3.5616,-3.5616,-3.5616,-3.5616,-3.5616,-3.5616,-3.5616,-3.5616,-3.5379,-3.4721,-3.4128,-3.3633,-3.2826,-3.1923,-3.1653,-3.1496,-3.1496,-3.1496,-3.1496,-3.1496,-3.1496,-3.1496,-3.1496,-4.0747,-4.1305,-4.2269,-4.3115,-4.3826,-4.4395,-4.4598,-4.4598,-4.4581,-4.4445,-4.4028,-4.3081,-4.2675,-4.2439,-4.1863,-4.1467,-4.15,-4.1568,-4.1542,-4.1467,-4.1077,-4.0882,-4.073,-4.0417,-4.0163,-4.0113,-4.0113,-4.0113,-4.0113,-4.0113,-4.0113,-4.0113,-4.0113,-4.0113,-4.0113,-4.0113,-4.0113,-4.0113,-4.0113,-4.0113,-4.0113,-4.0113,-4.0113,-4.0113,-4.0113,-4.0113,-4.0113,-4.0113,-4.0113,-4.0113,-3.969,-3.9673,-3.9656,-3.9249,-3.9276,-3.9292,-3.9276,-3.8819,-3.7905,-3.6586,-3.5667,-3.5616,-3.5616,-3.5616,-3.5616,-3.5616,-3.5616,-3.5616,-3.5616,-3.5616,-3.5616,-3.5616,-3.5616,-3.5616,-3.5616,-3.5616,-3.5616,-3.5616,-3.5616,-3.5616,-3.5616,-3.5616,-3.5616,-3.5616,-3.5616,-3.5616,-3.5616,-3.5616,-3.5616,-3.5616,-3.5616,-3.5616,-3.5616,-3.5616,-3.5616,-3.5616,-3.5616,-3.5616,-3.5616,-3.5616,-3.5293,-3.4864,-3.4301,-3.3659,-3.2853,-3.212,-3.1768,-3.1496,-3.1496,-3.1496,-3.1496,-3.1496,-3.1496,-3.1496,-3.1496,-4.0358,-4.0882,-4.161,-4.2354,-4.3132,-4.413,-4.4598,-4.4598,-4.4598,-4.4598,-4.4412,-4.3758,-4.3369,-4.3149,-4.2675,-4.2303,-4.2303,-4.2286,-4.2269,-4.2236,-4.183,-4.1627,-4.1339,-4.0882,-4.0629,-4.0434,-4.0214,-4.0113,-4.0113,-4.0113,-4.0113,-4.0113,-4.0113,-4.0113,-4.0113,-4.0113,-4.0113,-4.0113,-4.0113,-4.0113,-4.0113,-4.0113,-4.0113,-4.0113,-4.0113,-4.0113,-4.0113,-4.0113,-4.0113,-4.0113,-4.0113,-4.0113,-4.0113,-4.0113,-4.0113,-4.0113,-3.9723,-3.8962,-3.7533,-3.6806,-3.6028,-3.5633,-3.5616,-3.5616,-3.5616,-3.5616,-3.5616,-3.5616,-3.5633,-3.5667,-3.5701,-3.5684,-3.5735,-3.5752,-3.5735,-3.5752,-3.5735,-3.5752,-3.5752,-3.5735,-3.5684,-3.5667,-3.5701,-3.5616,-3.5616,-3.5616,-3.5616,-3.5667,-3.5701,-3.5633,-3.5616,-3.5616,-3.5616,-3.5616,-3.5616,-3.5616,-3.5616,-3.5616,-3.5577,-3.5532,-3.5224,-3.4793,-3.4211,-3.3582,-3.2637,-3.1894,-3.1653,-3.1496,-3.1496,-3.1496,-3.1496,-3.1496,-3.1496,-3.1496,-3.1496,-4.0113,-4.0214,-4.0899,-4.1644,-4.2455,-4.3853,-4.453,-4.4581,-4.4598,-4.4598,-4.4547,-4.3826,-4.3606,-4.3403,-4.276,-4.2574,-4.2625,-4.2591,-4.2625,-4.2523,-4.2455,-4.2371,-4.2083,-4.161,-4.1305,-4.1001,-4.0781,-4.0671,-4.0282,-4.0536,-4.0519,-4.0248,-4.0333,-4.0333,-4.0333,-4.018,-4.0146,-4.0113,-4.0113,-4.0113,-4.0113,-4.0113,-4.0113,-4.0113,-4.0113,-4.0113,-4.0113,-4.0113,-4.0113,-4.0113,-4.0113,-4.0113,-4.0113,-4.0113,-4.0113,-3.9926,-3.9428,-3.8379,-3.7557,-3.7083,-3.6603,-3.6208,-3.5955,-3.5769,-3.5667,-3.5735,-3.5926,-3.591,-3.5926,-3.5893,-3.5853,-3.5938,-3.6005,-3.5988,-3.5971,-3.5971,-3.5971,-3.5971,-3.5971,-3.5955,-3.5893,-3.5926,-3.6113,-3.6062,-3.6062,-3.6293,-3.636,-3.6326,-3.6225,-3.5667,-3.565,-3.5616,-3.5616,-3.5616,-3.5616,-3.56,-3.5616,-3.5616,-3.5402,-3.5293,-3.4981,-3.4704,-3.4153,-3.3401,-3.2324,-3.1695,-3.1553,-3.1496,-3.1496,-3.1496,-3.1496,-3.1496,-3.1496,-3.1496,-3.1496,-4.0113,-4.018,-4.0899,-4.1322,-4.1728,-4.3115,-4.4045,-4.4564,-4.4598,-4.4598,-4.4581,-4.435,-4.4164,-4.4215,-4.4039,-4.3921,-4.3904,-4.3938,-4.3955,-4.3752,-4.3284,-4.3149,-4.2828,-4.2388,-4.2083,-4.1914,-4.1728,-4.1457,-4.161,-4.1619,-4.1247,-4.0984,-4.0882,-4.0865,-4.0696,-4.0383,-4.0299,-4.0197,-4.0214,-4.0113,-4.0113,-4.0113,-4.0113,-4.0113,-4.0113,-4.0113,-4.0113,-4.0113,-4.0113,-4.0113,-4.0113,-4.0113,-4.0113,-4.0113,-4.0096,-4.0011,-3.9445,-3.8751,-3.8369,-3.7855,-3.7398,-3.7138,-3.7121,-3.6462,-3.6174,-3.6129,-3.6434,-3.6451,-3.6468,-3.6518,-3.6721,-3.6817,-3.6834,-3.6817,-3.6817,-3.6817,-3.6817,-3.6817,-3.68,-3.6755,-3.6654,-3.6586,-3.6738,-3.6654,-3.6705,-3.7043,-3.7155,-3.707,-3.6789,-3.6208,-3.587,-3.5859,-3.5616,-3.5616,-3.5577,-3.5577,-3.56,-3.5577,-3.5247,-3.5005,-3.4981,-3.4633,-3.4078,-3.3235,-3.2173,-3.171,-3.1524,-3.1496,-3.1496,-3.1496,-3.1496,-3.1496,-3.1496,-3.1496,-3.1496,-4.0113,-4.0163,-4.0561,-4.0933,-4.139,-4.2446,-4.3267,-4.3741,-4.4327,-4.4598,-4.4598,-4.4581,-4.4598,-4.4564,-4.453,-4.4513,-4.4513,-4.4445,-4.4445,-4.431,-4.4062,-4.3961,-4.3623,-4.3149,-4.2811,-4.2675,-4.2455,-4.2117,-4.2337,-4.2269,-4.1948,-4.1694,-4.1627,-4.1627,-4.1525,-4.1305,-4.1111,-4.084,-4.0553,-4.0214,-4.0146,-4.0163,-4.0113,-4.013,-4.013,-4.0113,-4.0113,-4.0113,-4.0113,-4.0113,-4.0113,-4.0113,-4.0113,-4.0113,-3.9825,-3.9665,-3.9276,-3.8768,-3.8362,-3.8075,-3.7939,-3.8007,-3.8176,-3.7686,-3.7195,-3.7026,-3.7161,-3.7229,-3.7263,-3.7347,-3.7652,-3.7865,-3.7848,-3.7831,-3.7831,-3.7831,-3.7831,-3.7831,-3.7804,-3.7753,-3.7652,-3.7533,-3.7449,-3.733,-3.728,-3.7516,-3.7611,-3.7594,-3.728,-3.6755,-3.6434,-3.6299,-3.591,-3.5616,-3.5611,-3.5514,-3.527,-3.5028,-3.4544,-3.4423,-3.4681,-3.4252,-3.3401,-3.2718,-3.202,-3.171,-3.1496,-3.1496,-3.1496,-3.1496,-3.1496,-3.1496,-3.1496,-3.1496,-3.1496,-4.0113,-4.0113,-4.0113,-4.0561,-4.1255,-4.1948,-4.2269,-4.2465,-4.3752,-4.4395,-4.431,-4.4361,-4.431,-4.4293,-4.4299,-4.4451,-4.4547,-4.4598,-4.4598,-4.4598,-4.4496,-4.4384,-4.4198,-4.3876,-4.3572,-4.3267,-4.3031,-4.2844,-4.254,-4.2642,-4.2794,-4.2431,-4.2371,-4.2371,-4.2337,-4.2083,-4.1863,-4.1737,-4.1145,-4.0637,-4.0485,-4.0333,-4.018,-4.0231,-4.018,-4.0113,-4.0113,-4.0113,-4.0113,-4.0113,-4.0113,-4.0113,-4.0113,-4.0096,-3.9698,-3.9495,-3.9326,-3.9056,-3.8768,-3.8514,-3.8396,-3.8497,-3.8667,-3.8599,-3.8345,-3.7939,-3.7973,-3.799,-3.8007,-3.8227,-3.8531,-3.8667,-3.8684,-3.8667,-3.8667,-3.8667,-3.8684,-3.8684,-3.8667,-3.8548,-3.8311,-3.8244,-3.8396,-3.8319,-3.821,-3.821,-3.8311,-3.8362,-3.8041,-3.755,-3.7161,-3.6948,-3.6383,-3.5988,-3.5739,-3.5528,-3.4897,-3.4471,-3.4052,-3.3836,-3.4062,-3.3453,-3.261,-3.2117,-3.1739,-3.1625,-3.1496,-3.1511,-3.1525,-3.1496,-3.1496,-3.1496,-3.1511,-3.157,-3.1496,-4.0113,-4.0113,-4.0113,-4.051,-4.117,-4.139,-4.1779,-4.2286,-4.2642,-4.2844,-4.2871,-4.2922,-4.325,-4.3758,-4.3792,-4.4012,-4.453,-4.4598,-4.4598,-4.4598,-4.4598,-4.4598,-4.4598,-4.4299,-4.4215,-4.4265,-4.4073,-4.3623,-4.3335,-4.3538,-4.3673,-4.3217,-4.3149,-4.3149,-4.3115,-4.2811,-4.255,-4.2567,-4.2211,-4.1788,-4.1771,-4.1238,-4.0933,-4.0747,-4.062,-4.0248,-4.018,-4.0113,-4.0113,-4.0113,-4.0113,-4.0113,-4.0113,-4.0113,-4.0028,-3.9876,-3.9774,-3.9571,-3.9469,-3.9292,-3.9292,-3.9411,-3.9656,-3.9673,-3.9469,-3.9005,-3.8751,-3.8734,-3.8836,-3.9089,-3.93,-3.9385,-3.9453,-3.9453,-3.9453,-3.9428,-3.9445,-3.9445,-3.9486,-3.9242,-3.8971,-3.9022,-3.9208,-3.9242,-3.9191,-3.9292,-3.9529,-3.9546,-3.9259,-3.8843,-3.8227,-3.7821,-3.7015,-3.654,-3.6222,-3.5766,-3.5266,-3.4469,-3.3976,-3.3728,-3.3533,-3.3146,-3.2688,-3.1987,-3.1524,-3.175,-3.1824,-3.157,-3.157,-3.175,-3.1809,-3.1959,-3.1824,-3.1809,-3.163,-4.0113,-4.0113,-4.0113,-4.035,-4.0663,-4.0696,-4.095,-4.1271,-4.1331,-4.1331,-4.1457,-4.1999,-4.2709,-4.3291,-4.3392,-4.3792,-4.4462,-4.4581,-4.4598,-4.4598,-4.4598,-4.4598,-4.4598,-4.4598,-4.4547,-4.4598,-4.4581,-4.4299,-4.4028,-4.4181,-4.4198,-4.3944,-4.3893,-4.3876,-4.3842,-4.347,-4.3261,-4.3335,-4.3244,-4.3244,-4.3064,-4.2354,-4.1762,-4.1474,-4.1068,-4.0679,-4.0451,-4.0367,-4.0113,-4.0113,-4.0113,-4.0113,-4.0113,-4.0113,-4.0113,-4.0079,-4.0062,-4.0113,-4.0113,-4.0113,-4.0113,-4.0113,-4.0096,-3.9926,-3.9943,-3.9512,-3.9495,-3.9478,-3.9478,-3.9723,-3.9757,-3.9825,-3.9842,-3.9825,-3.9825,-3.9842,-3.9842,-3.9842,-3.9842,-3.9774,-3.9605,-3.9622,-3.974,-3.9723,-3.969,-3.9706,-4.0045,-4.0062,-3.991,-3.9791,-3.9242,-3.8685,-3.7851,-3.7391,-3.7175,-3.6543,-3.5786,-3.4946,-3.4021,-3.3681,-3.3482,-3.3249,-3.2848,-3.257,-3.2407,-3.2482,-3.2452,-3.2198,-3.2362,-3.2677,-3.2632,-3.2512,-3.2333,-3.2213,-3.2273,-4.0113,-4.0113,-4.0113,-4.0113,-4.0113,-4.0113,-4.0146,-4.0163,-4.0146,-4.0248,-4.0519,-4.1534,-4.2405,-4.2929,-4.3301,-4.3826,-4.4248,-4.4513,-4.4564,-4.4598,-4.4598,-4.4598,-4.4598,-4.4598,-4.4598,-4.4598,-4.4598,-4.4581,-4.4479,-4.4581,-4.4581,-4.4598,-4.4598,-4.4581,-4.4598,-4.4564,-4.4378,-4.4293,-4.4276,-4.4429,-4.3955,-4.3234,-4.2658,-4.2185,-4.1779,-4.1407,-4.1119,-4.0849,-4.0468,-4.0383,-4.0468,-4.0383,-4.0282,-4.0248,-4.0113,-4.0113,-4.0113,-4.0113,-4.0113,-4.0113,-4.0113,-4.0113,-4.0113,-4.0113,-4.0113,-4.0096,-4.0062,-4.0062,-4.0062,-4.0062,-4.0096,-4.0113,-4.0113,-4.0113,-4.0113,-4.0113,-4.0113,-4.0113,-4.0113,-4.0113,-4.0096,-4.0079,-4.0079,-4.0079,-4.0079,-4.0096,-4.0113,-4.0113,-4.0079,-3.9994,-3.9723,-3.9227,-3.8614,-3.8268,-3.8053,-3.6995,-3.6026,-3.5342,-3.4446,-3.3879,-3.3441,-3.3336,-3.3442,-3.3787,-3.3679,-3.3305,-3.323,-3.308,-3.3305,-3.3425,-3.3185,-3.2991,-3.3051,-3.2991,-3.3215,-4.0113,-4.0113,-4.0113,-4.0113,-4.0113,-4.0113,-4.0113,-4.0113,-4.0113,-4.0417,-4.073,-4.0536,-4.0899,-4.1677,-4.2286,-4.3031,-4.3995,-4.4333,-4.4564,-4.4598,-4.4598,-4.4598,-4.4598,-4.4598,-4.4598,-4.4598,-4.4598,-4.4598,-4.4598,-4.4598,-4.4598,-4.4598,-4.4598,-4.4598,-4.4598,-4.4598,-4.4598,-4.4598,-4.4598,-4.4598,-4.4384,-4.3792,-4.3325,-4.2885,-4.2489,-4.2219,-4.2016,-4.1948,-4.1897,-4.1711,-4.1322,-4.1068,-4.0849,-4.0595,-4.0417,-4.0299,-4.0282,-4.018,-4.018,-4.0113,-4.0113,-4.0113,-4.0113,-4.0113,-4.0113,-4.0113,-4.0079,-4.0079,-4.0079,-4.0079,-4.0113,-4.0113,-4.0113,-4.0113,-4.0113,-4.0113,-4.0113,-4.0113,-4.0113,-4.0113,-4.0096,-4.0096,-4.0096,-4.0096,-4.0096,-4.0113,-4.0113,-4.0113,-4.0113,-4.0113,-4.0113,-3.9699,-3.9201,-3.9009,-3.8697,-3.7072,-3.6006,-3.5419,-3.4914,-3.4379,-3.3937,-3.3621,-3.3784,-3.4307,-3.4098,-3.3649,-3.3634,-3.3933,-3.3769,-3.3784,-3.3559,-3.3425,-3.3559,-3.3739,-3.3948]},{"header":{"parameterUnit":"m.s-1","parameterCategory":1,"la1":31.0,"la2":29.5877,"lo1":-88.7671,"lo2":-86.6584,"dy":0.0162,"dx":0.0185,"nx":115,"ny":88,"refTime":"2026-04-12T12:00:00:Z","depth":0,"parameterNumber":3,"parameterNumberName":"V-component_of_WINDS"},"data":[0.0,0.0,0.0,0.0,0.0,0.0,0.0,0.0,0.0,0.0,0.0,0.0,0.0,0.0,0.0,0.0,0.0,0.0,0.0,0.0,0.0,0.0,0.0,0.0,0.0,0.0,0.0,0.0,0.0,0.0,0.0,0.0,0.0,0.0,0.0,0.0,0.0,0.0,0.0,0.0,0.0,0.0,0.0,0.0,0.0,0.0,0.0,0.0,0.0,0.0,0.0,0.0,0.0,0.0,0.0,0.0,0.0,0.0,0.0,0.0,0.0,0.0,0.0,0.0,0.0,0.0,0.0,0.0,0.0,0.0,0.0,0.0,0.0,0.0,0.0,0.0,0.0,0.0,0.0,0.0,0.0,0.0,0.0,0.0,0.0,0.0,0.0,0.0,0.0,0.0,0.0,0.0,0.0,0.0,0.0,0.0,0.0,0.0,0.0,0.0,0.0,0.0,0.0,0.0,0.0,0.0,0.0,0.0,0.0,0.0,0.0,0.0,0.0,0.0,0.0,0.0,0.0,0.0,0.0,0.0,0.0,0.0,0.0,0.0,0.0,0.0,0.0,0.0,0.0,0.0,0.0,0.0,0.0,0.0,0.0,0.0,0.0,0.0,0.0,0.0,0.0,0.0,0.0,0.0,0.0,0.0,0.0,0.0,0.0,0.0,0.0,0.0,0.0,0.0,0.0,0.0,0.0,0.0,0.0,0.0,0.0,0.0,0.0,0.0,0.0,0.0,0.0,0.0,0.0,0.0,0.0,0.0,0.0,0.0,0.0,0.0,0.0,0.0,0.0,0.0,0.0,0.0,0.0,0.0,0.0,0.0,0.0,0.0,0.0,0.0,0.0,0.0,0.0,0.0,0.0,0.0,0.0,0.0,0.0,0.0,0.0,0.0,0.0,0.0,0.0,0.0,0.0,0.0,0.0,0.0,0.0,0.0,0.0,0.0,0.0,0.0,0.0,0.0,0.0,0.0,0.0,0.0,0.0,0.0,0.0,0.0,0.0,0.0,0.0,0.0,0.0,0.0,0.0,0.0,0.0,0.0,0.0,0.0,0.0,0.0,0.0,0.0,0.0,0.0,0.0,0.0,0.0,0.0,0.0,0.0,0.0,0.0,0.0,0.0,0.0,0.0,0.0,0.0,0.0,0.0,0.0,0.0,0.0,0.0,0.0,0.0,0.0,0.0,0.0,0.0,0.0,0.0,0.0,0.0,0.0,0.0,0.0,0.0,0.0,0.0,0.0,0.0,0.0,0.0,0.0,0.0,0.0,0.0,0.0,0.0,0.0,0.0,0.0,0.0,0.0,0.0,0.0,0.0,0.0,0.0,0.0,0.0,0.0,0.0,0.0,0.0,0.0,0.0,0.0,0.0,0.0,0.0,0.0,0.0,0.0,0.0,0.0,0.0,0.0,0.0,0.0,0.0,0.0,0.0,0.0,0.0,0.0,0.0,0.0,0.0,0.0,0.0,0.0,0.0,0.0,0.0,0.0,0.0,0.0,0.0,0.0,0.0,0.0,0.0,0.0,0.0,0.0,0.0,0.0,0.0,0.0,0.0,0.0,0.0,0.0,0.0,0.0,0.0,0.0,0.0,0.0,0.0,0.0,0.0,0.0,0.0,0.0,0.0,0.0,0.0,0.0,0.0,0.0,0.0,0.0,0.0,0.0,0.0,0.0,0.0,0.0,0.0,0.0,0.0,0.0,0.0,0.0,0.0,0.0,0.0,0.0,0.0,0.0,0.0,0.0,0.0,0.0,0.0,0.0,0.0,0.0,0.0,0.0,0.0,0.0,0.0,0.0,0.0,0.0,0.0,0.0,0.0,0.0,0.0,0.0,0.0,0.0,0.0,0.0,0.0,0.0,0.0,0.0,0.0,0.0,0.0,0.0,0.0,0.0,0.0,0.0,0.0,0.0,0.0,0.0,0.0,0.0,0.0,0.0,0.0,0.0,0.0,0.0,0.0,0.0,0.0,0.0,0.0,0.0,0.0,0.0,0.0,0.0,0.0,0.0,0.0,0.0,0.0,0.0,0.0,0.0,0.0,0.0,0.0,0.0,0.0,0.0,0.0,0.0,0.0,0.0,0.0,0.0,0.0,0.0,0.0,0.0,0.0,0.0,0.0,0.0,0.0,0.0,0.0,0.0,0.0,0.0,0.0,0.0,0.0,0.0,0.0,0.0,0.0,0.0,0.0,0.0,0.0,0.0,0.0,0.0,0.0,0.0,0.0,0.0,0.0,0.0,0.0,0.0,0.0,0.0,0.0,0.0,0.0,0.0,0.0,0.0,0.0,0.0,0.0,0.0,0.0,0.0,0.0,0.0,0.0,0.0,0.0,0.0,0.0,0.0,0.0,0.0,0.0,0.0,0.0,0.0,0.0,0.0,0.0,0.0,0.0,0.0,0.0,0.0,0.0,0.0,0.0,0.0,0.0,0.0,0.0,0.0,0.0,0.0,0.0,0.0,0.0,0.0,0.0,0.0,0.0,0.0,0.0,0.0,0.0,0.0,0.0,0.0,0.0,0.0,0.0,0.0,0.0,0.0,0.0,0.0,0.0,0.0,0.0,0.0,0.0,0.0,0.0,0.0,0.0,0.0,0.0,0.0,0.0,0.0,0.0,0.0,0.0,0.0,0.0,0.0,0.0,0.0,0.0,0.0,0.0,0.0,0.0,0.0,0.0,0.0,0.0,0.0,0.0,0.0,0.0,0.0,0.0,0.0,0.0,0.0,0.0,0.0,0.0,0.0,0.0,0.0,0.0,0.0,0.0,0.0,0.0,0.0,0.0,0.0,0.0,0.0,0.0,0.0,0.0,0.0,0.0,0.0,0.0,0.0,0.0,0.0,0.0,0.0,0.0,0.0,0.0,0.0,0.0,0.0,0.0,0.0,0.0,0.0,0.0,0.0,0.0,0.0,0.0,0.0,0.0,0.0,0.0,0.0,0.0,0.0,0.0,0.0,0.0,0.0,0.0,0.0,0.0,0.0,0.0,0.0,0.0,0.0,0.0,0.0,0.0,0.0,0.0,0.0,0.0,0.0,0.0,0.0,0.0,0.0,0.0,0.0,0.0,0.0,0.0,0.0,0.0,0.0,0.0,0.0,0.0,0.0,0.0,0.0,0.0,0.0,0.0,0.0,0.0,0.0,0.0,0.0,0.0,0.0,0.0,0.0,0.0,0.0,0.0,0.0,0.0,0.0,0.0,0.0,0.0,0.0,0.0,0.0,0.0,0.0,0.0,0.0,0.0,0.0,0.0,0.0,0.0,0.0,0.0,0.0,0.0,0.0,0.0,0.0,0.0,0.0,0.0,0.0,0.0,0.0,0.0,0.0,0.0,0.0,0.0,0.0,0.0,0.0,0.0,0.0,0.0,0.0,0.0,0.0,0.0,0.0,0.0,0.0,0.0,0.0,0.0,0.0,0.0,0.0,0.0,0.0,0.0,0.0,0.0,0.0,0.0,0.0,0.0,0.0,0.0,0.0,0.0,0.0,0.0,0.0,0.0,0.0,0.0,0.0,0.0,0.0,0.0,0.0,0.0,0.0,0.0,0.0,0.0,0.0,0.0,0.0,0.0,0.0,0.0,0.0,0.0,0.0,0.0,0.0,0.0,0.0,0.0,0.0,0.0,0.0,0.0,0.0,0.0,0.0,0.0,0.0,0.0,0.0,0.0,0.0,0.0,0.0,0.0,0.0,0.0,0.0,0.0,0.0,0.0,0.0,0.0,0.0,0.0,0.0,0.0,0.0,0.0,0.0,0.0,0.0,0.0,0.0,0.0,0.0,0.0,0.0,0.0,0.0,0.0,0.0,0.0,0.0,0.0,0.0,0.0,0.0,0.0,0.0,0.0,0.0,0.0,0.0,0.0,0.0,0.0,0.0,0.0,0.0,0.0,0.0,0.0,0.0,0.0,0.0,0.0,0.0,0.0,0.0,0.0,0.0,0.0,0.0,0.0,0.0,0.0,0.0,0.0,0.0,0.0,0.0,0.0,0.0,0.0,0.0,0.0,0.0,0.0,0.0,0.0,0.0,0.0,0.0,0.0,0.0,0.0,0.0,0.0,0.0,0.0,0.0,0.0,0.0,0.0,0.0,0.0,0.0,0.0,0.0,0.0,0.0,0.0,0.0,0.0,0.0,0.0,0.0,0.0,0.0,0.0,0.0,0.0,0.0,0.0,0.0,0.0,0.0,0.0,0.0,0.0,0.0,0.0,0.0,0.0,0.0,0.0,0.0,0.0,0.0,0.0,0.0,0.0,0.0,0.0,0.0,0.0,0.659,0.0,0.0,0.0,0.0,0.0,0.0,0.0,0.0,0.0,0.0,0.0,0.0,0.0,0.0,0.0,0.0,0.0,0.0,0.0,0.0,0.0,0.0,0.0,0.0,0.0,0.0,0.0,0.0,0.0,0.0,0.0,0.0,0.0,0.0,0.0,0.0,0.0,0.0,0.0,0.0,0.0,0.0,0.0,0.0,0.0,0.0,0.0,0.0,0.0,0.0,0.0,0.0,0.0,0.0,0.0,0.0,0.0,0.0,0.0,0.0,0.0,0.0,0.0,0.0,0.0,0.0,0.0,0.0,0.0,0.0,0.0,0.0,0.0,0.0,0.0,0.0,0.0,0.0,0.0,0.0,0.0,0.0,0.0,0.0,0.0,0.0,0.0,0.0,0.0,0.0,0.0,0.0,0.0,0.0,0.0,0.0,0.0,0.0,0.0,0.0,0.0,0.0,0.0,0.0,0.0,0.0,0.0,0.0,0.0,0.0,0.659,0.659,0.659,0.659,0.659,0.0,0.0,0.0,0.0,0.0,0.0,0.0,0.0,0.0,0.0,0.0,0.0,0.0,0.0,0.0,0.0,0.0,0.0,0.0,0.0,0.0,0.0,0.0,0.0,0.0,0.0,0.0,0.0,0.0,0.0,0.0,0.0,0.0,0.0,0.0,0.0,0.0,0.0,0.0,0.0,0.0,0.0,0.0,0.0,0.0,0.0,0.0,0.0,0.0,0.0,0.0,0.0,0.0,0.0,0.0,0.0,0.0,0.0,0.0,0.0,0.0,0.0,0.0,0.0,0.0,0.0,0.0,0.0,0.0,0.0,0.0,0.0,0.0,0.0,0.0,0.0,0.0,0.0,0.0,0.0,0.0,0.0,0.0,0.0,0.0,0.0,0.0,0.0,0.0,0.0,0.0,0.0,0.0,0.0,0.0,0.0,0.0,0.0,0.0,0.0,0.0,0.0,0.0,0.0,0.0,0.0,0.0,0.0,0.0,0.0,0.0,0.0,0.6849,0.6787,0.6778,0.0,0.0,0.0,0.0,0.0,0.0,0.0,0.0,0.0,0.0,0.0,0.0,0.0,0.0,0.0,0.0,0.0,0.0,0.0,0.0,0.0,0.0,0.0,0.0,0.0,0.0,0.0,0.0,0.0,0.0,0.0,0.0,0.0,0.0,0.0,0.0,0.0,0.0,0.0,0.0,0.0,0.0,0.0,0.0,0.0,0.0,0.0,0.0,0.0,0.0,0.0,0.0,0.0,0.0,0.0,0.0,0.0,0.0,0.0,0.0,0.0,0.0,0.0,0.0,0.0,0.0,0.0,0.0,0.0,0.0,0.0,0.0,0.0,0.0,0.0,0.0,0.0,0.0,0.0,0.0,0.0,0.0,0.0,0.0,0.0,0.0,0.0,0.0,0.0,0.0,0.0,0.0,0.0,0.0,0.0,0.0,0.0,0.0,0.0,0.0,0.0,0.0,0.0,0.0,0.0,0.0,0.0,0.0,0.0,0.0,0.7097,0.8087,0.7603,0.0,0.7319,0.0,0.0,0.0,0.0,0.0,0.0,0.0,0.0,0.0,0.0,0.0,0.0,0.0,0.0,0.0,0.0,0.0,0.0,0.0,0.0,0.0,0.0,0.0,0.0,0.0,0.0,0.0,0.0,0.0,0.0,0.0,0.0,0.0,0.0,0.0,0.0,0.0,0.0,0.0,0.0,0.0,0.0,0.0,0.0,0.0,0.0,0.0,0.0,0.0,0.0,0.0,0.0,0.0,0.0,0.0,0.0,0.0,0.0,0.0,0.0,0.0,0.0,0.0,0.0,0.0,0.0,0.0,0.0,0.0,0.0,0.0,0.0,0.0,0.0,0.0,0.0,0.0,0.0,0.0,0.0,0.0,0.0,0.0,0.0,0.0,0.0,0.0,0.0,0.0,0.0,0.0,0.0,0.0,0.0,0.0,0.0,0.0,0.0,0.0,0.0,0.0,0.0,0.0,0.0,0.0,0.0,0.0,0.0,0.0,0.0,0.7291,0.7741,0.7541,0.7387,0.0,0.0,0.0,0.0,0.0,0.0,0.0,0.0,0.0,0.0,0.0,0.0,0.0,0.0,0.0,0.0,0.0,0.0,0.0,0.0,0.0,0.0,0.0,0.0,0.0,0.0,0.0,0.0,0.0,0.0,0.0,0.0,0.0,0.0,0.0,0.0,0.0,0.0,0.0,0.0,0.0,0.0,0.0,0.0,0.0,0.0,0.0,0.0,0.0,0.0,0.0,0.0,0.0,0.0,0.0,0.0,0.0,0.0,0.0,0.0,0.0,0.0,0.0,0.0,0.0,0.0,0.0,0.0,0.0,0.0,0.0,0.0,0.0,0.0,0.0,0.0,0.0,0.0,0.0,0.0,0.0,0.0,0.0,0.0,0.0,0.0,0.0,0.0,0.0,0.0,0.0,0.0,0.0,0.0,0.0,0.0,0.0,0.0,0.0,0.0,0.0,0.0,0.0,0.0,0.0,0.0,0.0,0.0,0.0,0.0,0.7366,0.7491,0.7641,0.7653,0.7578,0.7396,0.0,0.0,0.0,0.0,0.0,0.0,0.0,0.0,0.0,0.0,0.0,0.0,0.0,0.0,0.0,0.0,0.0,0.0,0.0,0.0,0.0,0.0,0.0,0.0,0.0,0.0,0.0,0.0,0.0,0.0,0.0,0.0,0.0,0.0,0.0,0.0,0.0,0.0,0.0,0.0,0.0,0.0,0.0,0.0,0.0,0.0,0.0,0.0,0.0,0.0,0.0,0.0,0.0,0.0,0.0,0.0,0.0,0.0,0.0,0.0,0.0,0.0,0.0,0.0,0.0,0.0,0.0,0.0,0.0,0.0,0.0,0.0,0.0,0.0,0.0,0.0,0.0,0.0,0.0,0.0,0.0,0.0,0.0,0.0,0.0,0.0,0.0,0.0,0.0,0.0,0.0,0.0,0.0,0.0,0.0,0.0,0.0,0.0,0.0,0.0,0.0,0.0,0.0,0.0,0.0,0.0,0.0,0.0,0.0,0.7926,0.7668,0.8248,0.8239,0.7999,0.0,0.0,0.0,0.0,0.0,0.0,0.0,0.0,0.0,0.0,0.0,0.0,0.0,0.0,0.0,0.0,0.0,0.0,0.0,0.0,0.0,0.0,0.0,0.0,0.0,0.0,0.0,0.0,0.0,0.0,0.0,0.0,0.0,0.0,0.0,0.0,0.0,0.0,0.0,0.0,0.0,0.0,0.0,0.0,0.0,0.0,0.0,0.0,0.0,0.0,0.0,0.0,0.0,0.0,0.0,0.0,0.0,0.0,0.0,0.0,0.0,0.0,0.0,0.0,0.0,0.0,0.0,0.0,0.0,0.0,0.0,0.0,0.0,0.0,0.0,0.0,0.0,0.0,0.0,0.0,0.0,0.0,0.0,0.0,0.0,0.0,0.0,0.0,0.0,0.0,0.0,0.0,0.0,0.0,0.0,0.0,0.0,0.0,0.0,0.0,0.0,0.0,0.0,0.0,0.0,0.0,0.0,0.0,0.0,0.747,0.7425,0.7864,0.8749,0.8102,0.7791,0.0,0.0,0.0,0.0,0.0,0.0,0.0,0.0,0.0,0.0,0.0,0.0,0.0,0.0,0.0,0.0,0.0,0.0,0.0,0.0,0.0,0.0,0.0,0.0,0.0,0.0,0.0,0.0,0.0,0.0,0.0,0.0,0.0,0.0,0.0,0.0,0.0,0.0,0.0,0.0,0.0,0.0,0.0,0.0,0.0,0.0,0.0,0.0,0.0,0.0,0.0,0.0,0.0,0.0,0.0,0.0,0.0,0.0,0.0,0.0,0.0,0.0,0.0,0.0,0.0,0.0,0.0,0.0,0.0,0.0,0.0,0.0,0.0,0.0,0.0,0.0,0.0,0.0,0.0,0.0,0.0,0.0,0.0,0.0,0.0,0.0,0.0,0.0,0.0,0.0,0.0,0.0,0.0,0.0,0.0,0.0,0.0,0.0,0.0,0.0,0.0,0.0,0.0,0.0,0.0,0.0,0.0,0.0,0.0,0.7147,0.0,0.8248,0.0,0.8089,0.7726,0.0,0.0,0.0,0.0,0.0,0.0,0.0,0.0,0.0,0.0,0.0,0.0,0.0,0.0,0.0,0.0,0.0,0.0,0.0,0.0,0.0,0.0,0.0,0.0,0.0,0.0,0.0,0.0,0.0,0.0,0.0,0.0,0.0,0.0,0.0,0.0,0.0,0.0,0.0,0.0,0.0,0.0,0.0,0.0,0.0,0.0,0.0,0.0,0.0,0.0,0.0,0.0,0.0,0.0,0.0,0.0,0.0,0.0,0.0,0.0,0.0,0.0,0.0,0.0,0.0,0.0,0.0,0.0,0.0,0.0,0.0,0.0,0.0,0.0,0.0,0.0,0.0,0.0,0.0,0.0,0.0,0.0,0.0,0.0,0.0,0.0,0.0,0.0,0.0,0.0,0.0,0.0,0.0,0.0,0.0,0.0,0.0,0.0,0.0,0.0,0.0,0.0,0.0,0.0,0.0,0.0,0.0,0.0,0.7175,0.8225,0.8774,0.8837,0.835,0.8288,0.7761,0.0,0.0,0.0,0.0,0.0,0.0,0.0,0.0,0.0,0.0,0.0,0.0,0.0,0.0,0.0,0.0,0.0,0.0,0.0,0.0,0.0,0.0,0.0,0.0,0.0,0.0,0.0,0.0,0.0,0.0,0.0,0.0,0.0,0.0,0.0,0.0,0.0,0.0,0.0,0.0,0.0,0.0,0.0,0.0,0.0,0.0,0.0,0.0,0.0,0.0,0.0,0.0,0.0,0.0,0.0,0.0,0.0,0.0,0.0,0.0,0.0,0.0,0.0,0.0,0.0,0.0,0.0,0.0,0.0,0.0,0.0,0.0,0.0,0.0,0.0,0.0,0.0,0.0,0.0,0.0,0.0,0.0,0.0,0.0,0.0,0.0,0.0,0.0,0.0,0.0,0.0,0.0,0.0,0.0,0.0,0.0,0.0,0.0,0.0,0.0,0.0,0.0,0.0,0.0,0.0,0.0,0.0,0.0,0.0,0.7703,0.8611,0.9214,0.9353,0.8288,0.7889,0.0,0.0,0.0,0.0,0.0,0.0,0.0,0.0,0.0,0.0,0.0,0.0,0.0,0.0,0.0,0.0,0.0,0.0,0.0,0.0,0.0,0.0,0.0,0.0,0.0,0.0,0.0,0.0,0.0,0.0,0.0,0.0,0.0,0.0,0.0,0.0,0.0,0.0,0.0,0.0,0.0,0.0,0.0,0.0,0.0,0.0,0.0,0.0,0.0,0.0,0.0,0.0,0.0,0.0,0.0,0.0,0.0,0.0,0.0,0.0,0.0,0.0,0.0,0.0,0.0,0.0,0.0,0.0,0.0,0.0,0.0,0.0,0.0,0.0,0.0,0.0,0.0,0.0,0.0,0.0,0.0,0.0,0.0,0.0,0.0,0.0,0.0,0.0,0.0,0.0,0.0,0.0,0.0,0.0,0.0,0.0,0.0,0.0,0.0,0.0,0.0,0.0,0.0,0.0,0.0,0.0,0.0,0.0,0.0,0.8402,0.9453,0.9893,0.9629,0.8576,0.8173,0.8424,0.0,0.0,0.0,0.0,0.0,0.0,0.0,0.0,0.0,0.0,0.0,0.0,0.0,0.0,0.0,0.0,0.0,0.0,0.0,0.0,0.0,0.0,0.0,0.0,0.0,0.0,0.0,0.0,0.0,0.0,0.0,0.0,0.0,0.0,0.0,0.0,0.0,0.0,0.0,0.0,0.0,0.0,0.0,0.0,0.0,0.0,0.0,0.0,0.0,0.0,0.0,0.0,0.0,0.0,0.0,0.0,0.0,0.0,0.0,0.0,0.0,0.0,0.0,0.0,0.0,0.0,0.0,0.0,0.0,0.0,0.0,0.0,0.0,0.0,0.0,0.0,0.0,0.0,0.0,0.0,0.0,0.0,0.0,0.0,0.0,0.0,0.0,0.0,0.0,0.0,0.0,0.0,0.0,0.0,0.0,0.0,0.0,0.0,0.0,0.0,0.0,0.0,0.0,0.0,0.0,0.0,0.0,0.0,0.9931,1.1073,1.0938,0.939,0.9214,0.8637,0.0,0.0,0.0,0.0,0.0,0.0,0.0,0.0,0.0,0.0,0.0,0.0,0.0,0.0,0.0,0.0,0.0,0.0,0.0,0.0,0.0,0.0,0.0,0.0,0.0,0.0,0.0,0.0,0.0,0.0,0.0,0.0,0.0,0.0,0.0,0.0,0.0,0.0,0.0,0.0,0.0,0.0,0.0,0.0,0.0,0.0,0.0,0.0,0.0,0.0,0.0,0.0,0.0,0.0,0.0,0.0,0.0,0.0,0.0,0.0,0.0,0.0,0.0,0.0,0.0,0.0,0.0,0.0,0.0,0.0,0.0,0.0,0.0,0.0,0.0,0.0,0.0,0.0,0.0,0.0,0.0,0.0,0.0,0.0,0.0,0.0,0.0,0.0,0.0,0.0,0.0,0.0,0.0,0.0,0.0,0.0,0.0,0.0,0.0,0.0,0.0,0.0,0.0,0.0,0.0,0.0,0.0,0.0,0.0,1.0506,1.1999,1.2388,1.1538,1.0346,0.9554,0.0,0.0,0.0,0.0,0.0,0.0,0.0,0.0,0.0,0.0,0.0,0.0,0.0,0.0,0.0,0.0,0.0,0.0,0.0,0.0,0.0,0.0,0.0,0.0,0.0,0.0,0.0,0.0,0.0,0.0,0.0,0.0,0.0,0.0,0.0,0.0,0.0,0.0,0.0,0.0,0.0,0.0,0.0,0.0,0.0,0.0,0.0,0.0,0.0,0.0,0.0,0.0,0.0,0.0,0.0,0.0,0.0,0.0,0.0,0.0,0.0,0.0,0.0,0.0,0.0,0.0,0.0,0.0,0.0,0.0,0.0,0.0,0.0,0.0,0.0,0.0,0.0,0.0,0.0,0.0,0.0,0.0,0.0,0.0,0.0,0.0,0.0,0.0,0.0,0.0,0.0,0.0,0.0,0.0,0.0,0.0,0.0,0.0,0.0,0.0,0.0,0.0,0.0,0.0,0.0,0.0,0.0,0.0,1.0394,1.1395,1.2359,1.2839,1.2739,1.1585,1.0508,0.0,0.0,0.0,0.0,0.0,0.0,0.0,0.0,0.0,0.0,0.0,0.0,0.0,0.0,0.0,0.0,0.0,0.0,0.0,0.0,0.0,0.0,0.0,0.0,0.0,0.0,0.0,0.0,0.0,0.0,0.0,0.0,0.0,0.0,0.0,0.0,0.0,0.0,0.0,0.0,0.0,0.0,0.0,0.0,0.0,0.0,0.0,0.0,0.0,0.0,0.0,0.0,0.0,0.0,0.0,0.0,0.0,0.0,0.0,0.0,0.0,0.0,0.0,0.0,0.0,0.0,0.0,0.0,0.0,0.0,0.0,0.0,0.0,0.0,0.0,0.0,0.0,0.0,0.0,0.0,0.0,0.0,0.0,0.0,0.0,0.0,0.0,0.0,0.0,0.0,0.0,0.0,0.0,0.0,0.0,0.0,0.0,0.0,0.0,0.0,0.0,0.0,0.0,0.0,0.0,0.0,0.0,0.0,1.082,1.2366,1.2467,1.2689,1.3073,1.2651,1.141,0.0,0.0,0.0,0.0,0.0,0.0,0.0,0.0,0.0,0.0,0.0,0.0,0.0,0.0,0.0,0.0,0.0,0.0,0.0,0.0,0.0,0.0,0.0,0.0,0.0,0.0,0.0,0.0,0.0,0.0,0.0,0.0,0.0,0.0,0.0,0.0,0.0,0.0,0.0,0.0,0.0,0.0,0.0,0.0,0.0,0.0,0.0,0.0,0.0,0.0,0.0,0.0,0.0,0.0,0.0,0.0,0.0,0.0,0.0,0.0,0.0,0.0,0.0,0.0,0.0,0.0,0.0,0.0,0.0,0.0,0.0,0.0,0.0,0.0,0.0,0.0,0.0,0.0,0.0,0.0,0.0,0.0,0.0,0.0,0.0,0.0,0.0,0.0,0.0,0.0,0.0,0.0,0.0,0.0,0.0,0.0,0.0,0.0,0.0,0.0,0.0,0.0,0.0,0.0,0.0,0.0,0.0,0.0,1.1598,1.2391,1.2826,1.2872,1.2576,1.2463,1.1748,0.0,0.0,0.0,0.0,0.0,0.0,0.0,0.0,0.0,0.0,0.0,0.0,0.0,0.0,0.0,0.0,0.0,0.0,0.0,0.0,0.0,0.0,0.0,0.0,0.0,0.0,0.0,0.0,0.0,0.0,0.0,0.0,0.0,0.0,0.0,0.0,0.0,0.0,0.0,0.0,0.0,0.0,0.0,0.0,0.0,0.0,0.0,0.0,0.8828,0.0,0.0,0.0,0.0,0.0,0.0,0.0,0.0,0.0,0.0,0.0,0.0,0.0,0.0,0.0,0.0,0.0,0.0,0.0,0.0,0.0,0.0,0.0,0.0,0.0,0.0,0.0,0.0,0.0,0.0,0.0,0.0,0.0,0.0,0.0,0.0,0.0,0.0,0.0,0.0,0.0,0.0,0.0,0.0,0.0,0.0,0.0,0.0,0.0,0.0,0.0,0.0,0.0,0.0,0.0,0.0,0.0,0.0,0.0,1.2241,1.2764,1.306,1.306,1.2772,1.2526,1.1874,0.0,0.0,0.0,0.0,0.0,0.0,0.0,0.0,0.0,0.0,0.0,0.0,0.0,0.0,0.0,0.0,0.0,0.0,0.0,0.0,0.0,0.0,0.0,0.0,0.0,0.0,0.0,0.0,0.0,0.0,0.0,0.0,0.0,0.0,0.0,0.0,0.0,0.0,0.0,0.0,0.0,0.0,0.0,0.0,0.0,0.0,0.0,0.0,0.0,0.0,0.0,0.0,0.0,0.0,0.0,0.0,0.0,0.0,0.0,0.0,0.0,0.0,0.0,0.0,0.0,0.0,0.0,0.0,0.0,0.0,0.0,0.0,0.0,0.0,0.0,0.0,0.0,0.0,0.0,0.0,0.0,0.0,0.0,0.0,0.0,0.0,0.0,0.0,0.0,0.0,0.0,0.0,0.0,0.0,0.0,0.0,0.0,0.0,0.0,0.0,0.0,0.0,0.0,0.0,0.0,0.0,0.0,1.1685,1.2663,1.3185,1.321,1.321,1.3185,1.2764,1.1999,1.0883,0.0,0.0,0.0,0.0,0.0,0.0,0.0,0.0,0.0,0.0,0.0,0.0,0.0,0.0,0.0,0.0,0.0,0.0,0.0,0.0,0.0,0.0,0.0,0.0,0.0,0.0,0.0,0.0,0.0,0.0,0.0,0.0,0.0,0.0,0.0,0.0,0.0,0.0,0.8074,0.9024,0.0,0.0,0.0,0.0,0.0,0.0,0.0,0.0,0.97,0.0,0.0,0.0,0.0,0.0,0.0,0.0,0.0,0.0,0.0,0.0,0.0,0.0,0.0,0.0,0.0,0.0,0.0,0.0,0.0,0.0,0.0,0.0,0.0,0.0,0.0,0.0,0.0,0.0,0.0,0.0,0.0,0.0,0.0,0.0,0.0,0.0,0.0,0.0,0.0,0.0,0.0,0.0,0.0,0.0,0.0,0.0,0.0,0.0,0.0,0.0,0.0,0.0,0.0,0.0,0.0,1.1977,1.225,1.2651,1.3203,1.321,1.321,1.3198,1.311,1.2551,1.1462,0.0,0.0,0.0,0.0,0.0,0.0,0.0,0.0,0.0,0.0,0.0,0.0,0.0,0.0,0.0,0.0,0.0,0.0,0.0,0.0,0.0,0.0,0.0,0.0,0.0,0.0,0.0,0.0,0.0,0.0,0.0,0.0,0.0,0.0,0.0,0.0,0.0,0.0,0.0,0.9851,1.0695,0.0,0.0,0.0,0.0,0.0,0.0,0.0,0.0,0.9875,0.0,0.0,0.0,0.0,0.0,0.0,0.0,0.0,0.0,0.0,0.0,0.0,0.0,0.0,0.0,0.0,0.0,0.0,0.0,0.0,0.0,0.0,0.0,0.0,0.0,0.0,0.0,0.0,0.0,0.0,0.0,0.0,0.0,0.0,0.0,0.0,0.0,0.0,0.0,0.0,0.0,0.0,0.0,0.0,0.0,0.0,0.0,0.0,0.0,0.0,0.0,0.0,0.0,0.0,0.0,1.146,1.2099,1.2663,1.3185,1.321,1.321,1.3198,1.2663,1.2112,0.0,0.0,0.0,0.0,0.0,0.0,0.0,0.0,0.0,0.0,0.0,0.0,0.0,0.0,0.0,0.0,0.0,0.0,0.0,0.0,0.0,0.0,0.0,0.0,0.0,0.0,0.0,0.0,0.0,0.0,0.0,0.0,0.0,0.0,0.0,0.0,0.0,0.0,0.0,0.0,1.0134,1.0697,1.0371,0.0,0.0,0.0,0.0,0.0,0.0,1.0334,1.0263,0.0,0.0,0.0,0.0,0.0,0.0,0.0,0.0,0.0,0.0,0.0,0.0,0.0,0.0,0.0,0.0,0.0,0.0,0.0,0.0,0.0,0.0,0.0,0.0,0.0,0.0,0.0,0.0,0.0,0.0,0.0,0.0,0.0,0.0,0.0,0.0,0.0,0.0,0.0,0.0,0.0,0.0,0.0,0.0,0.0,0.0,0.0,0.0,0.0,0.0,0.0,0.0,0.0,0.0,0.0,1.0858,1.1874,1.2663,1.3185,1.321,1.321,1.3198,1.2479,1.1942,0.0,0.0,0.0,0.0,0.0,0.0,0.0,0.0,0.0,0.0,0.0,0.0,0.0,0.0,0.0,0.0,0.0,0.0,0.0,0.0,0.0,0.0,0.0,0.0,0.0,0.0,0.0,0.0,0.0,0.0,0.0,0.0,0.0,0.0,0.0,0.0,0.0,0.0,0.0,0.0,0.0,1.0925,1.1054,1.0836,0.0,0.0,0.0,0.0,1.0842,1.0825,0.0,0.0,0.0,0.0,0.0,0.0,0.0,0.0,0.0,0.0,0.0,0.0,0.0,0.0,0.0,0.0,0.0,0.0,0.0,0.0,0.0,0.0,0.0,0.0,0.0,0.0,0.0,0.0,0.0,0.0,0.0,0.0,0.0,0.0,0.0,0.0,0.0,0.0,0.0,0.0,0.0,0.0,0.0,0.0,0.0,0.0,0.0,0.0,0.0,0.0,0.0,0.0,0.0,0.0,0.0,0.0,1.1452,1.2074,1.2663,1.3173,1.321,1.321,1.321,1.3589,1.3116,0.0,0.0,0.0,0.0,0.0,0.0,0.0,0.0,0.0,0.0,0.0,0.0,0.0,0.0,0.0,0.0,0.0,0.0,0.0,0.0,0.0,0.0,0.0,0.0,0.0,0.0,0.0,0.0,0.0,0.0,0.0,0.0,0.0,0.0,0.0,0.0,0.0,0.0,0.0,0.0,0.0,1.2357,1.0582,1.1368,1.1947,0.0,0.0,1.1577,1.2092,1.1731,0.0,0.0,0.0,0.0,0.0,0.0,0.0,0.0,0.0,0.0,0.0,0.0,0.0,0.0,0.0,0.0,0.0,0.0,0.0,0.0,0.0,0.0,0.0,0.0,0.0,0.0,0.0,0.0,0.0,0.0,0.0,0.0,0.0,0.0,0.0,0.0,0.0,0.0,0.0,0.0,0.0,0.0,0.0,0.0,0.0,0.0,0.0,0.0,0.0,0.0,0.0,0.0,0.0,0.0,0.0,0.9918,1.1538,1.2128,1.268,1.3185,1.321,1.321,1.321,1.317,1.2659,0.0,0.0,0.0,0.0,0.0,0.0,0.0,0.0,0.0,0.0,0.0,0.0,0.0,0.0,0.0,0.0,0.0,0.0,0.0,0.0,0.0,0.0,0.0,0.0,0.0,0.0,0.0,0.0,0.0,0.0,0.0,0.0,0.0,0.0,0.0,0.0,0.0,0.0,0.0,0.0,0.0,0.0,1.2006,1.2559,0.0,0.0,0.0,1.269,1.3094,0.0,0.0,0.0,0.0,0.0,0.0,0.0,0.0,0.0,0.0,0.0,0.0,0.0,0.0,0.0,0.0,0.0,0.0,0.0,0.0,0.0,0.0,0.0,0.0,0.0,0.0,0.0,0.0,0.0,0.0,0.0,0.0,0.0,0.0,0.0,0.0,0.0,0.0,0.0,0.0,0.0,0.0,0.0,0.0,0.0,0.0,0.0,0.0,0.0,0.0,0.0,0.0,0.0,0.0,0.0,0.0,0.0,1.155,1.225,1.2801,1.3185,1.321,1.321,1.3198,1.2814,0.0,0.0,0.0,0.0,0.0,0.0,0.0,0.0,0.0,0.0,0.0,0.0,0.0,0.0,0.0,0.0,0.0,0.0,0.0,0.0,0.0,0.0,0.0,0.0,0.0,0.0,0.0,0.4336,0.0,0.0,0.0,0.0,0.0,0.0,0.0,0.0,0.0,0.0,0.0,0.0,0.0,0.0,1.1823,1.2965,1.3439,1.3862,0.0,0.0,1.3667,1.3634,1.3087,1.2395,0.0,0.0,0.0,0.0,0.0,0.0,0.0,0.0,0.0,0.0,0.0,0.0,0.0,0.0,0.0,0.0,0.0,0.0,0.0,0.0,0.0,0.0,0.0,0.0,0.0,0.0,0.0,0.0,0.0,0.0,0.0,0.0,0.0,0.0,0.0,0.0,0.0,0.0,0.0,0.0,0.0,0.0,0.0,0.0,0.0,0.0,0.0,0.0,0.0,0.0,0.0,0.0,0.0,0.0,0.0,1.1575,1.2626,1.316,1.321,1.321,1.321,1.321,1.316,1.2651,0.0,0.0,0.0,0.0,0.0,0.0,0.0,0.0,0.0,0.0,0.0,0.0,0.0,0.0,0.0,0.0,0.0,0.0,0.0,0.0,0.0,0.0,0.0,0.0,0.0,0.0,0.0,0.0,0.0,0.0,0.0,0.0,0.0,0.0,0.0,0.0,0.0,0.0,0.0,0.0,0.0,1.2238,1.2365,1.3557,1.4199,0.0,0.0,1.4191,1.354,1.3387,1.2876,1.1547,0.0,0.0,0.0,0.0,0.0,0.0,0.0,0.0,0.0,0.0,0.0,0.0,0.0,0.0,0.0,0.0,0.0,0.0,0.0,0.0,0.0,0.0,0.0,0.0,0.0,0.0,0.0,0.0,0.0,0.0,0.0,0.0,0.0,0.0,0.0,0.0,0.0,0.0,0.0,0.0,0.0,0.0,0.0,0.0,0.0,0.0,0.0,0.0,0.0,0.0,0.0,0.0,0.0,0.992,1.156,1.2373,1.2908,1.321,1.321,1.321,1.321,1.2872,1.235,0.0,0.0,0.0,0.0,0.0,0.0,0.0,0.0,0.0,0.0,0.0,0.0,0.0,0.0,0.0,0.0,0.0,0.0,0.0,0.0,0.0,0.0,0.0,0.0,0.0,0.0,0.0,0.0,0.5499,0.5661,0.6247,0.0,0.0,0.0,0.0,0.0,0.0,0.0,0.0,0.0,0.0,1.2006,1.2587,1.3439,0.0,0.0,1.4005,1.4315,1.4481,1.3892,1.3226,1.2671,1.2218,0.0,0.0,0.0,0.0,0.0,0.0,0.0,0.0,0.0,0.0,0.0,0.0,0.0,0.0,0.0,0.0,0.0,0.0,0.0,0.0,0.0,0.0,0.0,0.0,0.0,0.0,0.0,0.0,0.0,0.0,0.0,0.0,0.0,0.0,0.0,0.0,0.0,0.0,0.0,0.0,0.0,0.0,0.0,0.0,0.0,0.0,0.0,0.0,0.0,0.0,0.0,0.0,0.9591,1.1354,1.2083,1.2696,1.3113,1.3161,1.3176,1.3164,1.2813,1.2312,0.0,0.0,0.0,0.0,0.0,0.0,0.0,0.0,0.0,0.0,0.0,0.0,0.0,0.0,0.0,0.0,0.0,0.0,0.0,0.0,0.0,0.0,0.0,0.0,0.0,0.0,0.0,0.0,0.5879,0.5998,0.6447,0.0,0.0,0.0,0.0,0.0,0.0,0.0,0.0,0.0,0.0,1.191,1.296,1.3617,1.4004,1.4044,1.4422,1.4846,1.5116,1.4625,1.408,1.3637,0.0,0.0,0.0,0.0,0.0,0.0,0.0,0.0,0.0,0.0,0.0,0.0,0.0,0.0,0.0,0.0,0.0,0.0,0.0,0.0,0.0,0.0,0.0,0.0,0.0,0.0,0.0,0.7627,0.0,0.0,0.6482,0.0,0.0,0.0,0.0,0.0,0.0,0.0,0.0,0.0,0.0,0.0,0.0,0.0,0.0,0.0,0.0,0.0,0.0,0.0,0.0,0.0,0.0,0.9323,1.091,1.1916,1.2613,1.3027,1.3069,1.312,1.3116,1.3153,1.2676,1.1603,0.0,0.0,0.0,0.0,0.0,0.0,0.0,0.0,0.0,0.0,0.0,0.0,0.0,0.0,0.0,0.0,0.0,0.0,0.0,0.0,0.0,0.0,0.0,0.0,0.0,0.0,0.6853,0.6522,0.6304,0.0,0.0,0.0,0.0,0.0,0.0,0.0,0.0,0.0,0.0,1.1381,1.2005,1.3377,1.419,1.4608,1.4571,1.5452,1.5901,1.5233,1.5632,1.5582,0.0,0.0,0.0,0.0,0.0,0.0,0.0,0.0,0.0,0.0,0.0,0.0,0.0,0.0,0.0,0.0,0.0,0.0,0.0,0.0,0.0,0.0,0.0,0.0,0.0,0.0,0.0,0.9669,0.9375,0.0,0.0,0.0,0.0,0.0,0.0,0.0,0.0,0.0,0.0,0.0,1.0948,1.1199,0.0,0.0,0.0,0.0,0.0,0.0,0.0,0.0,0.0,0.0,0.0,0.0,0.9601,1.1861,1.2355,1.3081,1.4205,1.3924,1.3766,1.3748,1.3037,1.1989,1.0522,0.0,0.0,0.0,0.0,0.0,0.0,0.0,0.0,0.0,0.0,0.0,0.0,0.0,0.0,0.0,0.0,0.0,0.0,0.0,0.0,0.0,0.0,0.0,0.0,0.0,0.6761,0.0,0.0,0.0,0.0,0.0,0.0,0.0,0.0,0.0,0.0,0.0,1.0427,1.0816,1.1611,1.2603,1.3757,1.4148,1.4403,0.0,0.0,0.0,0.0,0.0,0.0,0.0,0.0,0.0,0.0,0.0,0.0,0.0,0.0,1.5695,1.34,1.2207,1.1659,1.1906,0.0,0.0,0.0,0.0,0.0,0.0,0.0,0.0,0.0,0.0,0.0,0.0,0.0,0.0,1.1173,0.0,1.0381,0.0,0.0,0.0,0.0,0.0,0.0,0.0,0.0,1.1709,1.2259,1.2269,1.2539,1.235,0.0,1.1533,1.0851,0.0,0.0,0.0,0.0,0.0,0.0,0.0,0.0,0.9918,1.2088,1.2359,1.3025,1.4145,1.4078,1.3927,1.371,1.2852,1.1874,1.0795,1.0382,0.9842,0.0,0.0,0.0,0.0,0.0,0.0,0.0,0.0,0.0,0.0,0.0,0.0,0.0,0.0,0.0,0.0,0.0,0.0,0.0,0.0,0.0,0.0,0.0,0.6852,0.0,0.0,0.0,0.0,0.0,0.0,0.0,0.0,0.0,0.8728,0.9876,1.085,1.1271,1.1993,1.2981,1.4288,0.0,0.0,0.0,0.0,0.0,0.0,0.0,1.6979,1.7426,1.671,1.589,1.5288,1.5863,1.6406,1.6348,0.0,0.0,1.4718,1.3644,1.3069,1.3362,1.2989,1.2704,1.2969,1.3189,1.3292,0.0,0.0,0.0,0.0,0.0,0.0,0.0,0.0,1.2155,1.224,0.0,1.1602,0.0,0.0,0.0,0.0,0.0,1.1628,0.0,0.0,1.3145,1.3545,1.3545,1.3545,1.3535,1.35,1.3467,1.3003,1.2116,0.9755,0.0,0.0,0.0,0.0,0.0,0.0,1.0303,1.1642,1.2073,1.2479,1.3016,1.359,1.3615,1.3029,1.2597,1.2375,1.2337,1.1334,1.0731,1.0681,0.9717,0.0,0.0,0.0,0.0,0.0,0.0,0.0,0.0,0.0,0.0,0.0,0.0,0.0,0.0,0.0,0.0,0.0,0.0,0.0,0.0,0.7384,0.0,0.0,0.0,0.0,0.0,0.0,0.0,0.0,0.0,0.0,1.0013,1.0471,1.1219,1.2401,0.0,0.0,0.0,0.0,1.4773,1.5927,1.6895,1.7464,1.7437,1.782,1.7945,1.7404,0.0,0.0,1.4877,1.5849,1.6553,1.5854,1.5827,1.6152,1.7429,1.6455,1.5866,1.6526,1.5535,1.5028,1.5675,1.5913,1.633,1.4078,0.0,0.0,0.0,0.0,1.4475,1.4756,1.5165,1.4911,1.4598,1.4199,1.349,0.0,0.0,0.0,0.0,0.0,0.0,1.3276,1.3588,1.416,1.4424,1.4424,1.4441,1.4258,1.3919,1.3617,1.3379,1.3061,1.1755,1.042,0.9077,0.0,0.0,0.0,0.0,1.1244,1.2603,1.2777,1.3271,1.4167,1.4005,1.3618,1.3077,1.2633,1.2388,1.2388,1.2074,1.1548,1.0744,1.0808,0.0,0.0,0.0,0.0,0.0,0.0,0.0,0.0,0.0,0.0,0.0,0.0,0.0,0.0,0.0,0.0,0.0,0.0,0.0,0.7976,0.7313,0.725,0.0,0.0,0.0,0.0,0.0,0.0,0.0,0.0,0.0,1.1071,1.1929,1.2759,0.0,0.0,1.4673,1.5952,1.5666,1.5524,1.6148,1.6858,0.0,1.6576,1.7182,1.7676,1.7604,1.7,1.6515,1.6516,1.6485,1.6451,1.6467,1.6486,1.6642,1.6897,1.6127,1.5444,1.5562,1.5459,1.5392,1.5649,1.5821,1.5944,1.498,1.4566,1.4626,1.4979,1.5467,1.5064,1.5386,1.6213,1.6021,1.5985,1.6025,1.5391,1.4708,1.3958,1.3385,0.0,0.0,0.0,1.4648,1.4922,1.5361,1.5557,1.5557,1.5557,1.5332,1.4893,1.4463,1.418,1.403,1.3295,1.235,1.116,0.0,0.0,1.1034,1.1309,1.1945,1.2947,1.3001,1.3344,1.3967,1.3691,1.3504,1.3447,1.2932,1.2689,1.271,1.2513,1.2187,1.1708,1.1412,1.0784,0.0,0.0,0.0,0.0,0.0,0.0,0.0,0.0,0.0,0.0,0.0,0.7269,0.694,0.0,0.0,0.0,0.7613,0.8225,0.8575,0.8375,0.0,0.0,0.0,0.0,0.0,0.0,0.0,1.1222,1.1558,1.1924,1.252,1.3333,1.3848,1.3765,1.4029,1.4619,1.5718,0.0,1.5545,1.5981,1.675,1.7134,1.6673,1.7008,1.7352,1.737,1.708,1.6959,1.7349,1.6891,1.655,1.6671,1.6554,1.6409,1.6394,1.5934,1.5629,1.5757,1.5944,1.61,1.623,1.6262,1.6294,1.5723,1.5464,1.4162,1.4509,1.577,1.4826,1.5279,1.6551,1.6192,1.6767,1.7988,1.7194,1.6833,1.6755,1.5946,0.0,1.5605,1.6026,1.6202,1.6261,1.6611,1.6746,1.6755,1.6746,1.6553,1.6134,1.5713,1.5303,1.4883,1.4416,1.3997,1.3584,1.2396,1.1953,1.2291,1.2317,1.2568,1.293,1.2954,1.2944,1.2905,1.2958,1.3292,1.3825,1.3369,1.3112,1.3124,1.2693,1.2651,1.2998,1.1698,1.0833,1.0606,0.0,0.0,0.0,0.0,0.0,0.0,0.0,0.0,0.0,0.0,0.0,0.0,0.0,0.0,0.0,0.8487,0.0,0.9151,0.9955,0.0,0.0,0.0,0.9317,1.0041,1.0425,1.1109,1.2321,0.0,0.0,1.4009,1.4525,1.4469,1.3461,1.3411,1.3842,1.4903,1.5041,1.516,1.5742,1.6543,1.7145,1.697,1.6975,1.6955,1.6852,1.6835,1.6977,1.7362,1.7061,1.6676,1.6725,1.6263,1.5964,1.5949,1.6265,1.6497,1.6791,1.6808,1.6853,1.7072,1.7145,1.72,1.5665,1.624,1.5128,1.5771,1.7495,1.7269,1.7713,1.8596,1.85,1.8444,1.8442,1.8237,1.7974,1.7695,1.748,1.7393,1.735,1.7168,1.7269,1.7519,1.7324,1.7227,1.7227,1.7227,1.7002,1.6551,1.6443,1.6191,1.5782,1.5312,1.4893,1.4463,1.3838,1.3393,1.3198,1.35,1.3549,1.3359,1.3359,1.3203,1.2929,1.2981,1.291,1.271,1.2966,1.2964,1.2692,1.2901,1.2701,1.204,1.2388,1.1833,1.0168,0.973,0.0,0.0,0.0,0.0,0.0,0.0,0.0,0.0,0.0,0.8764,0.7506,0.0,0.8699,0.0,0.8938,0.9265,0.9654,0.8912,0.0,0.0,0.9396,0.9537,1.1611,1.0902,1.0938,1.2805,1.2507,1.2644,1.3937,1.4216,1.4352,1.4475,1.5203,1.5811,1.6074,1.5756,1.5693,1.6158,1.6195,1.6063,1.6029,1.6168,1.6355,1.6306,1.631,1.635,1.647,1.6362,1.6354,1.6742,1.6756,1.6803,1.7126,1.7314,1.7346,1.7425,1.7143,1.6831,1.6917,1.6917,1.6955,1.5698,1.6186,1.5567,1.6242,1.7564,1.6962,1.7237,1.8113,1.8476,1.865,1.8657,1.8829,1.8799,1.8584,1.8574,1.8574,1.8564,1.834,1.8359,1.8545,1.8135,1.7939,1.793,1.7754,1.7441,1.7031,1.7021,1.6797,1.6367,1.6113,1.5781,1.5381,1.5107,1.4775,1.4365,1.4182,1.3997,1.3763,1.3603,1.3311,1.2925,1.2936,1.2851,1.2632,1.2911,1.2946,1.2731,1.2812,1.2669,1.2292,1.2428,1.2078,1.1069,1.0519,1.0005,0.0,0.0,0.0,0.0,0.0,0.0,0.0,0.0,0.0,0.0,0.0,0.8912,0.9119,0.9363,0.9839,1.0634,1.0168,1.029,1.1382,1.0595,1.0634,1.2283,1.1491,1.1543,1.3371,1.3125,1.3228,1.4318,1.4651,1.4925,1.5221,1.5982,1.6312,1.5881,1.5706,1.5806,1.6082,1.6107,1.6031,1.596,1.614,1.6368,1.6581,1.6638,1.6701,1.6915,1.6729,1.6656,1.6914,1.6758,1.67,1.7238,1.7355,1.7405,1.7578,1.7441,1.7181,1.7062,1.704,1.7004,1.5825,1.5825,1.5825,1.6173,1.6759,1.5617,1.5765,1.6828,1.7533,1.8227,1.8887,1.9393,1.959,1.9541,1.9531,1.9512,1.9443,1.9431,1.9365,1.9346,1.8916,1.8685,1.8666,1.8247,1.79,1.7549,1.748,1.7236,1.6794,1.6785,1.6582,1.6193,1.6114,1.5909,1.5478,1.4697,1.4241,1.4182,1.3809,1.3389,1.3003,1.2969,1.2954,1.2903,1.2962,1.2976,1.2919,1.2645,1.2625,1.293,1.2366,1.2085,1.2246,1.143,1.0871,0.0,1.0193,0.0,0.0,0.0,0.0,0.0,0.0,0.0,0.0,0.9155,0.904,0.928,0.9796,1.0479,1.1402,1.1878,1.2158,1.218,1.1785,1.1748,1.2297,1.1969,1.2277,1.3785,1.3859,1.3999,1.4636,1.5118,1.5373,1.5608,1.6014,1.6081,1.5392,1.5588,1.5856,1.5793,1.6187,1.6446,1.6443,1.6493,1.6638,1.7058,1.7089,1.7374,1.7699,1.7339,1.7033,1.7049,1.6615,1.6418,1.6937,1.7089,1.7242,1.7692,1.7816,1.7763,1.744,1.7345,1.7245,1.5825,1.5825,1.5825,1.5886,1.6014,1.5732,1.6509,1.7897,1.8048,1.8744,1.9844,2.0907,2.1191,2.0879,2.083,2.0664,2.0351,1.9951,1.9757,1.9775,1.9355,1.917,1.9141,1.8721,1.8442,1.8344,1.8057,1.7676,1.7256,1.7256,1.7041,1.6602,1.6281,1.6046,1.5958,0.0,0.0,0.0,1.4238,1.3782,1.3408,1.3389,1.3042,1.2395,1.2791,0.0,1.2468,1.2738,1.2722,1.2405,1.3147,0.0,0.0,0.0,0.0,0.0,0.0,0.0,0.0,0.0,0.0,0.0,1.0003,1.0096,1.0427,1.0855,1.0782,1.0033,1.0425,1.0643,1.0425,1.0245,1.0394,1.1009,1.0799,1.1023,1.2122,1.1902,1.2048,1.3029,1.257,1.2627,1.3895,1.3816,1.4148,1.536,1.5704,1.5901,1.6123,1.6224,1.6325,1.6371,1.6437,1.6513,1.6513,1.6513,1.6543,1.6659,1.6659,1.6723,1.6837,1.6773,1.6804,1.7127,1.6809,1.6732,1.7655,1.7876,1.7831,1.8016,1.8355,1.8454,1.7773,1.7631,1.7587,1.5825,0.0,1.5825,1.5825,0.0,1.5825,1.6618,1.7926,1.7702,1.8529,2.0078,2.1349,2.1768,2.1553,2.1553,2.1318,2.0889,2.0625,2.0449,2.0215,1.9795,1.96,1.959,1.916,1.8838,1.8598,1.8393,1.8105,1.7705,1.7695,1.7471,1.7019,1.6826,1.6535,1.6085,1.5664,1.5205,1.4785,1.457,1.415,1.3519,1.348,1.3203,1.2588,1.2812,0.0,0.0,0.0,0.0,0.0,0.0,0.0,0.0,0.0,0.0,1.1639,1.1519,1.1267,1.0857,1.1439,1.1744,1.1549,1.1612,1.1297,1.0532,1.0749,1.0915,1.0823,1.1028,1.1204,1.1193,1.1025,1.1206,1.1776,1.153,1.1655,1.2415,1.2223,1.2349,1.3193,1.3033,1.315,1.415,1.4082,1.4204,1.5005,1.541,1.571,1.603,1.6324,1.6513,1.6513,1.6513,1.6513,1.6513,1.6513,1.6513,1.6513,1.6513,1.6513,1.6513,1.6513,1.6595,1.6837,1.668,1.6795,1.7476,1.7706,1.7787,1.8086,1.8516,1.8757,1.8361,1.8248,1.8056,1.5825,1.5825,1.5825,1.5825,1.5825,1.5825,1.6386,1.739,0.0,0.0,0.0,2.1578,2.206,2.2002,2.1992,2.1758,2.1307,2.1229,2.1035,2.0703,2.0234,2.0029,2.001,1.96,1.9209,1.8831,1.8754,1.849,1.8135,1.8081,1.791,1.7529,1.7455,1.6975,1.6124,1.5703,1.5312,1.4922,1.4893,1.4521,1.376,1.373,1.3496,1.3008,1.3013,1.2793,1.233,1.2015,1.1872,1.1892,1.1642,1.1811,1.2542,1.2691,1.2711,1.2611,1.2899,1.288,1.2428,1.276,1.296,1.2877,1.2793,1.2112,1.0534,1.0513,1.0819,1.1491,1.1511,1.1696,1.2118,1.217,1.2361,1.2796,1.2519,1.2444,1.2872,1.2657,1.2767,1.3628,1.3671,1.3914,1.4337,1.4326,1.4466,1.466,1.496,1.539,1.5583,1.6103,1.6513,1.6513,1.6513,1.6513,1.6513,1.6513,1.6513,1.6513,1.6513,1.6513,1.6513,1.6513,1.6513,1.6543,1.6513,1.6701,1.7055,1.7167,1.7312,1.7747,1.823,1.8626,1.8608,1.8688,1.8579,1.5825,1.5825,1.5825,1.5825,1.5825,1.5825,1.5872,1.6332,1.9323,2.0855,2.1175,2.2408,2.2721,2.2422,2.2422,2.2187,2.1768,2.1366,2.1161,2.1083,2.0684,2.0507,2.0488,2.0029,1.9757,1.9679,1.9365,1.8975,1.8559,1.851,1.8305,1.792,1.7568,1.6975,1.6163,1.6036,1.5791,1.5332,1.5322,1.5088,1.4619,1.4609,1.4228,1.3467,1.3428,1.3223,1.2803,1.2739,1.2738,1.275,1.3166,1.3269,1.2967,1.3388,1.3466,1.299,1.2992,1.2799,1.2373,1.274,1.2835,1.2425,1.2041,1.1649,1.1366,1.1726,1.1891,1.1638,1.1614,1.1614,1.1715,1.1745,1.1977,1.2285,1.2266,1.2414,1.2912,1.2901,1.3025,1.3536,1.3233,1.3246,1.3626,1.3455,1.3593,1.4199,1.4419,1.4446,1.538,1.602,1.6439,1.6513,1.6513,1.6513,1.6626,1.6513,1.655,1.6513,1.6513,1.6513,1.6513,1.6513,1.6513,1.6513,1.6513,1.6543,1.6637,1.6616,1.6723,1.6879,1.7291,1.7619,1.7686,1.8254,1.8932,1.5825,1.5825,1.5825,1.6204,1.6943,1.8203,1.8388,1.8118,2.098,2.1525,2.0486,2.1578,2.2387,2.2818,2.2808,2.2584,2.2217,2.2012,2.167,2.12,2.1025,2.0801,2.0605,2.0352,2.0137,1.9912,1.9727,1.9404,1.9004,1.8724,1.851,1.8311,1.7715,1.7178,1.6819,1.6543,1.6221,1.5781,1.5537,1.5205,1.4805,1.4785,1.451,1.3857,1.3821,1.3535,1.2935,1.2915,1.269,1.2201,1.2458,1.2605,1.2642,1.2904,1.2904,1.2637,1.2851,1.2793,1.2272,1.2687,1.2843,1.2624,1.2437,1.2312,1.2275,1.2238,1.2273,1.2292,1.2299,1.2322,1.2308,1.2504,1.2719,1.29,1.31,1.3315,1.3516,1.3539,1.3643,1.3753,1.3477,1.3301,1.3477,1.334,1.3347,1.3877,1.4152,1.4931,1.6029,1.6539,1.6816,1.6863,1.7163,1.7393,1.7378,1.7149,1.7011,1.6986,1.6688,1.6538,1.6513,1.6513,1.6513,1.6513,1.6513,1.6513,1.6513,1.6513,1.6513,1.6565,1.6909,1.725,1.7422,1.8165,1.9006,1.5825,1.5825,1.5825,1.6527,1.787,1.967,2.0079,1.9716,2.1445,2.14,2.0169,2.1168,2.2217,2.3047,2.3101,2.2916,2.2666,2.2559,2.2158,2.1512,2.1278,2.1045,2.0772,2.0664,2.0429,2.0088,2.0059,1.9834,1.9434,1.9046,1.8773,1.8549,1.7891,1.7471,1.7416,1.7051,1.665,1.6251,1.5781,1.5352,1.4941,1.495,1.4717,1.4289,1.426,1.3926,1.3213,1.3164,1.2852,1.223,1.2162,1.2322,1.2677,1.2607,1.2578,1.2599,1.2814,1.2825,1.2553,1.292,1.3164,1.3164,1.3164,1.3164,1.3135,1.2837,1.272,1.2978,1.3096,1.3164,1.3193,1.3418,1.3627,1.3672,1.3909,1.4036,1.4094,1.4114,1.4153,1.4172,1.3906,1.3682,1.376,1.3701,1.3662,1.3789,1.4506,1.5558,1.6381,1.6745,1.6975,1.7105,1.7654,1.8094,1.8179,1.7865,1.7601,1.7551,1.7237,1.7061,1.6926,1.6751,1.6622,1.6672,1.6575,1.6513,1.6513,1.6513,1.6513,1.6543,1.6816,1.7105,1.7312,1.8027,1.8855,1.5825,1.5825,1.5825,1.6527,1.7638,1.8002,1.868,1.9497,1.977,2.0395,2.1248,2.2403,2.296,2.3101,2.3101,2.3062,2.2994,2.2685,2.2418,2.2285,2.1541,2.1171,2.1083,2.0801,2.0586,2.0537,2.0527,2.0292,1.9873,1.9775,1.9348,1.8637,1.8139,1.7754,1.7432,1.7344,1.71,1.6648,1.623,1.5821,1.5391,1.5361,1.5146,1.4764,1.4717,1.4512,1.3987,1.3987,1.3948,1.388,1.3821,1.3867,1.388,1.3592,1.3386,1.3356,1.3106,1.3027,1.3359,1.3763,1.3958,1.3987,1.3948,1.3948,1.3948,1.3938,1.3773,1.3613,1.3773,1.3919,1.3997,1.4016,1.4055,1.4055,1.4133,1.4114,1.4172,1.4114,1.426,1.4687,1.4346,1.4209,1.4463,1.4287,1.4065,1.4124,1.479,1.5369,1.5478,1.61,1.6681,1.6814,1.7489,1.8114,1.816,1.8168,1.7974,1.7998,1.8042,1.7869,1.7668,1.7177,1.6672,1.7174,1.6948,1.6688,1.6575,1.6513,1.6525,1.6513,1.6616,1.6731,1.7188,1.7767,1.8341,1.5825,1.5825,1.5825,1.6109,1.6709,1.8133,1.9047,1.9534,2.026,2.1257,2.235,2.2906,2.3101,2.3101,2.3101,2.3101,2.3081,2.2916,2.2701,2.25,2.2139,2.1687,2.121,2.1025,2.084,2.0615,2.0615,2.0507,2.0282,1.9805,1.9228,1.8627,1.8178,1.792,1.7754,1.7754,1.7549,1.7129,1.6943,1.6535,1.588,1.5537,1.5303,1.5176,1.5156,1.4951,1.457,1.4521,1.4377,1.4133,1.4114,1.4114,1.4114,1.3948,1.3851,1.3841,1.3721,1.3665,1.3841,1.4016,1.4114,1.4114,1.4114,1.4114,1.4124,1.4338,1.4434,1.4297,1.4172,1.4114,1.4143,1.4365,1.4531,1.4551,1.4736,1.4855,1.4864,1.4883,1.4952,1.5107,1.4785,1.457,1.4727,1.4639,1.4639,1.4796,1.5234,1.5408,1.5717,1.6218,1.6631,1.7075,1.7585,1.7781,1.7843,1.7545,1.7605,1.7846,1.7739,1.7629,1.8083,1.7928,1.7626,1.784,1.7664,1.7375,1.7087,1.7011,1.6961,1.676,1.6513,1.6573,1.6808,1.725,1.7686,1.5851,1.5832,1.615,1.6298,1.652,1.858,1.9679,2.0079,2.0935,2.1987,2.3047,2.3101,2.3101,2.3101,2.3101,2.3101,2.3101,2.3101,2.2935,2.2685,2.2568,2.2168,2.1561,2.1288,2.1064,2.0771,2.0664,2.0605,2.0527,1.9881,1.9238,1.8809,1.8354,1.8125,1.8018,1.8008,1.7861,1.7578,1.7451,1.7061,1.6486,1.5996,1.5634,1.5449,1.542,1.5264,1.498,1.4961,1.4814,1.4475,1.4465,1.4455,1.4455,1.4358,1.4231,1.4133,1.4221,1.4289,1.4289,1.4387,1.4455,1.4455,1.4455,1.4455,1.4504,1.4775,1.4941,1.4932,1.4658,1.4484,1.4494,1.4766,1.4941,1.4971,1.5254,1.541,1.5391,1.542,1.5391,1.5381,1.5127,1.4961,1.4961,1.4971,1.5059,1.5312,1.5391,1.5526,1.6036,1.6169,1.6368,1.6912,1.6985,1.7169,1.7434,1.7396,1.7383,1.7774,1.7872,1.798,1.8461,1.8619,1.8493,1.8506,1.8544,1.8329,1.7765,1.7576,1.7413,1.6974,1.6773,1.671,1.6611,1.6985,1.725,1.6086,1.6028,1.7131,1.7591,1.7731,1.8956,2.0169,2.1114,2.1248,2.1987,2.3003,2.3101,2.3101,2.3101,2.3101,2.3101,2.3101,2.3101,2.3071,2.2994,2.2705,2.25,2.2402,2.16,2.119,2.1083,2.0791,2.0644,2.0576,2.0098,1.9678,1.9258,1.8763,1.8364,1.8096,1.8027,1.7998,1.791,1.7607,1.7386,1.7246,1.6865,1.6229,1.5576,1.543,1.542,1.5361,1.5352,1.5323,1.5313,1.5303,1.5312,1.5303,1.4971,1.458,1.4241,1.4541,1.4756,1.4805,1.5078,1.5283,1.5312,1.5254,1.5322,1.5206,1.5283,1.5322,1.5371,1.5273,1.5264,1.5264,1.5264,1.5332,1.5342,1.5381,1.542,1.542,1.542,1.542,1.542,1.5361,1.5312,1.5352,1.5381,1.5352,1.54,1.542,1.5468,1.5497,1.5526,1.5613,1.5633,1.5748,1.5987,1.7219,1.7148,1.7548,1.7951,1.7969,1.8618,1.9287,1.966,1.9359,1.9208,1.9346,1.9095,1.8455,1.8041,1.7827,1.7551,1.7375,1.7225,1.6977,1.7059,1.7251,1.7739,1.8218,1.8626,1.8856,1.891,1.9314,2.0215,2.1248,2.1293,2.1987,2.296,2.3101,2.3101,2.3101,2.3101,2.3101,2.3101,2.3101,2.3101,2.3081,2.2935,2.273,2.249,2.2168,2.1687,2.1229,2.1034,2.084,2.0566,2.0127,1.9844,1.96,1.8975,1.852,1.8354,1.811,1.8008,1.7988,1.7842,1.7656,1.7412,1.7227,1.6824,1.6258,1.5977,1.5693,1.542,1.542,1.542,1.542,1.542,1.542,1.54,1.5264,1.5127,1.4962,1.5079,1.5186,1.5205,1.5293,1.542,1.542,1.542,1.542,1.542,1.542,1.542,1.542,1.542,1.542,1.542,1.542,1.542,1.542,1.542,1.542,1.542,1.542,1.542,1.542,1.542,1.542,1.542,1.542,1.542,1.542,1.542,1.5439,1.542,1.542,1.5439,1.542,1.541,1.5575,1.5958,1.6159,1.6376,1.694,1.7324,1.7908,1.8558,1.9515,1.9484,1.937,1.962,1.956,1.8832,1.8468,1.8254,1.8066,1.7903,1.7815,1.7629,1.754,1.7427,1.8831,1.9695,2.0129,1.997,1.9588,1.9906,2.0539,2.1293,2.1293,2.1978,2.296,2.3101,2.3101,2.3101,2.3101,2.3101,2.3101,2.3101,2.3101,2.3101,2.3101,2.2988,2.2691,2.2578,2.2217,2.167,2.1307,2.0996,2.0615,2.0273,2.0059,1.9826,1.928,1.8861,1.8607,1.835,1.813,1.8047,1.8008,1.7861,1.7617,1.7588,1.7383,1.6973,1.6641,1.6232,1.5654,1.5488,1.542,1.542,1.542,1.542,1.542,1.542,1.542,1.542,1.541,1.542,1.542,1.542,1.542,1.542,1.542,1.542,1.542,1.542,1.542,1.542,1.542,1.542,1.542,1.542,1.542,1.542,1.542,1.542,1.542,1.542,1.542,1.542,1.542,1.542,1.542,1.542,1.5488,1.5586,1.5625,1.5654,1.5791,1.5693,1.5625,1.5605,1.5488,1.5439,1.5604,1.569,1.5968,1.6482,1.6708,1.7274,1.795,1.8953,1.9501,1.9501,1.9543,1.9508,1.9309,1.892,1.8706,1.8518,1.8406,1.8356,1.8118,1.7865,1.7806,1.9358,2.0424,2.1454,2.1151,2.0164,2.097,2.1338,2.1436,2.1436,2.212,2.3047,2.3101,2.3101,2.3101,2.3101,2.3101,2.3101,2.3101,2.3101,2.3101,2.3101,2.3091,2.3023,2.2691,2.2529,2.2344,2.158,2.1025,2.0674,2.0576,2.0361,2.0,1.9883,1.9397,1.8646,1.8607,1.8373,1.811,1.8047,1.7988,1.7998,1.7959,1.7773,1.7432,1.7347,1.6946,1.6153,1.5684,1.5459,1.542,1.542,1.542,1.542,1.542,1.542,1.542,1.542,1.542,1.542,1.542,1.542,1.543,1.543,1.5488,1.5508,1.5527,1.5557,1.5576,1.5557,1.5508,1.5498,1.5547,1.5508,1.542,1.542,1.542,1.542,1.542,1.542,1.542,1.5439,1.54,1.54,1.5517,1.5723,1.6016,1.6105,1.6173,1.6367,1.6221,1.6124,1.5997,1.5771,1.5586,1.5498,1.5468,1.5864,1.6265,1.635,1.6641,1.7319,1.8167,1.8516,1.8635,1.9254,1.9274,1.9673,1.9346,1.9259,1.9096,1.902,1.8882,1.8706,1.848,1.8292,2.2178,2.3075,2.3455,2.3227,2.2533,2.2848,2.2875,2.2555,2.2536,2.2775,2.3047,2.3101,2.3101,2.3101,2.3101,2.3101,2.3101,2.3101,2.3101,2.3101,2.3101,2.3101,2.3071,2.2964,2.274,2.2412,2.16,2.1132,2.0986,2.0713,2.0517,2.038,2.0059,1.9795,1.9463,1.8919,1.851,1.8393,1.812,1.8008,1.8008,1.8008,1.7939,1.7803,1.7539,1.7259,1.6995,1.629,1.5723,1.5459,1.542,1.542,1.542,1.542,1.542,1.542,1.542,1.542,1.542,1.543,1.5439,1.5478,1.5684,1.587,1.5898,1.6133,1.6248,1.6268,1.6287,1.6297,1.6297,1.6287,1.6024,1.5488,1.542,1.5469,1.5498,1.5459,1.542,1.5449,1.5664,1.584,1.5918,1.6055,1.6278,1.6465,1.6523,1.6572,1.6475,1.6572,1.6406,1.6271,1.5996,1.5859,1.585,1.5771,1.5881,1.6026,1.6042,1.6085,1.6726,1.7219,1.7539,1.8221,1.8794,1.9293,1.9669,1.9748,1.9635,1.9623,1.9497,1.9384,1.9284,1.9095,1.8832,2.381,2.4621,2.4658,2.4414,2.4033,2.4023,2.3779,2.3418,2.3335,2.3247,2.312,2.3101,2.3101,2.3101,2.3101,2.3101,2.3101,2.3101,2.3101,2.3101,2.3101,2.3101,2.3101,2.3101,2.2877,2.2461,2.1765,2.1356,2.1171,2.0801,2.0605,2.0546,2.0283,2.0059,1.9902,1.9377,1.9017,1.8857,1.8467,1.8208,1.8203,1.8086,1.8008,1.7969,1.7754,1.7539,1.7363,1.6826,1.6388,1.5996,1.5878,1.581,1.5684,1.5654,1.5586,1.5439,1.543,1.5478,1.5645,1.5674,1.5742,1.5878,1.6152,1.6309,1.6357,1.658,1.6687,1.6697,1.6668,1.6697,1.6687,1.6687,1.6424,1.5956,1.5907,1.5878,1.5898,1.5898,1.5918,1.6006,1.6162,1.6289,1.6396,1.6504,1.6775,1.6872,1.6973,1.7051,1.6904,1.6963,1.6836,1.667,1.6475,1.6377,1.6299,1.6162,1.5977,1.589,1.5802,1.581,1.6083,1.6443,1.681,1.814,1.8953,1.9423,1.9798,1.9798,1.9736,1.9798,1.9798,1.9685,1.9535,1.9484,1.9284,2.4326,2.5117,2.5107,2.4853,2.4473,2.4453,2.418,2.3809,2.376,2.3525,2.3159,2.3101,2.3101,2.3101,2.3101,2.3101,2.3101,2.3101,2.3101,2.3101,2.3101,2.3101,2.3101,2.3101,2.2906,2.2588,2.2139,2.1738,2.1405,2.0928,2.0644,2.0693,2.0595,2.0371,2.0039,1.9932,1.9639,1.9307,1.8861,1.8646,1.8617,1.8281,1.8076,1.8076,1.7998,1.7812,1.751,1.7383,1.7158,1.6755,1.658,1.6404,1.6212,1.6134,1.5928,1.5635,1.5518,1.5752,1.6046,1.6134,1.623,1.6521,1.668,1.6746,1.6755,1.6853,1.6941,1.6921,1.6892,1.6853,1.6863,1.6872,1.6833,1.6785,1.6629,1.657,1.6658,1.6629,1.6541,1.6599,1.6687,1.6736,1.6777,1.6814,1.708,1.7295,1.7412,1.7529,1.7646,1.7559,1.7451,1.7246,1.6992,1.6836,1.6748,1.6463,1.6297,1.62,1.6054,1.5988,1.6058,1.638,1.7024,1.8281,1.9163,1.9587,1.9785,1.9811,1.9811,1.9798,1.9798,1.9798,1.9761,1.9685,1.9798,2.5314,2.5566,2.5508,2.5303,2.4922,2.4902,2.4473,2.3848,2.3809,2.3584,2.3169,2.3101,2.3101,2.3101,2.3101,2.3101,2.3101,2.3101,2.3101,2.3101,2.3101,2.3101,2.3101,2.3101,2.3042,2.2857,2.2519,2.2295,2.2119,2.1377,2.1045,2.1045,2.0703,2.0556,2.041,2.0078,1.9873,1.9707,1.9336,1.9111,1.9053,1.8691,1.8451,1.8403,1.8149,1.7978,1.7852,1.7842,1.748,1.6765,1.6697,1.6668,1.6572,1.6553,1.6443,1.6317,1.6317,1.6375,1.6482,1.6553,1.659,1.6707,1.7028,1.7207,1.7227,1.75,1.7637,1.7676,1.7642,1.7646,1.7656,1.7637,1.7646,1.7555,1.7126,1.6775,1.6755,1.6697,1.6697,1.6716,1.7031,1.7178,1.7266,1.7441,1.7646,1.7773,1.7812,1.7832,1.792,1.7939,1.7744,1.7695,1.7519,1.7334,1.7139,1.6833,1.6658,1.6599,1.6541,1.6512,1.6746,1.7114,1.7995,1.9118,1.9612,2.0037,1.9919,1.9836,1.9823,2.0049,1.9999,2.0075,1.9911,1.9823,2.0137,2.5684,2.5684,2.5684,2.5586,2.5361,2.5352,2.4961,2.4375,2.4121,2.3818,2.3447,2.3159,2.3101,2.3101,2.3101,2.3101,2.3101,2.3101,2.3101,2.3101,2.3101,2.3101,2.3101,2.3101,2.3101,2.3042,2.2715,2.2529,2.2344,2.1609,2.1239,2.1143,2.0791,2.0625,2.0576,2.0342,2.0195,2.0117,1.9785,1.9551,1.9512,1.9131,1.8909,1.8792,1.8471,1.8178,1.8057,1.7998,1.7744,1.7373,1.7233,1.7155,1.7021,1.7002,1.6892,1.6736,1.6697,1.6755,1.6941,1.7002,1.7058,1.7223,1.7539,1.7607,1.7666,1.7891,1.8008,1.7978,1.8008,1.8008,1.8008,1.8008,1.8008,1.791,1.7559,1.7233,1.7266,1.7272,1.7243,1.7301,1.748,1.7646,1.7646,1.7881,1.7969,1.7998,1.7969,1.7978,1.7998,1.8008,1.8018,1.7959,1.7891,1.7695,1.7617,1.7389,1.7233,1.7187,1.7087,1.7058,1.7181,1.7646,1.8485,1.9339,1.992,2.033,2.0244,2.0296,2.0614,2.0715,2.0526,2.0464,2.0426,2.0275,2.0564,2.5684,2.5684,2.5684,2.5684,2.5664,2.5674,2.541,2.5019,2.4639,2.4209,2.376,2.3369,2.3179,2.3101,2.3101,2.3101,2.3101,2.3101,2.3101,2.3101,2.3101,2.3101,2.3091,2.2984,2.2964,2.2896,2.2594,2.2441,2.2197,2.1541,2.1229,2.1093,2.0791,2.0635,2.0605,2.0576,2.0605,2.0498,2.0176,1.999,1.9902,1.958,1.9355,1.9287,1.89,1.8481,1.8232,1.8105,1.8037,1.7988,1.8008,1.7764,1.7471,1.7474,1.7295,1.7009,1.698,1.7129,1.7363,1.7451,1.7578,1.7852,1.793,1.8008,1.7969,1.7988,1.8008,1.8008,1.8008,1.8008,1.8008,1.8008,1.8066,1.8076,1.8037,1.8008,1.8105,1.8066,1.8008,1.8008,1.7988,1.7998,1.8008,1.8008,1.8008,1.8008,1.8008,1.8008,1.8008,1.8008,1.8086,1.813,1.8096,1.8018,1.7998,1.7988,1.7891,1.7803,1.7725,1.765,1.7506,1.7954,1.8722,1.9444,2.0129,2.0583,2.0785,2.0965,2.1312,2.128,2.1029,2.1204,2.1355,2.1091,2.1154,2.5684,2.5684,2.5684,2.5684,2.5684,2.5674,2.5478,2.5078,2.4971,2.4492,2.3906,2.3682,2.3447,2.3101,2.3101,2.3101,2.3101,2.3101,2.3101,2.3101,2.3101,2.3101,2.3023,2.2852,2.2623,2.2535,2.2227,2.2041,2.1885,2.1562,2.12,2.1132,2.081,2.0615,2.0615,2.0615,2.0615,2.0595,2.0488,2.0439,2.0303,2.0,1.9766,1.9707,1.9355,1.8945,1.8568,1.8471,1.8305,1.8105,1.8018,1.7988,1.7861,1.7842,1.7764,1.7686,1.7676,1.7744,1.7842,1.7842,1.791,1.8018,1.8066,1.8008,1.8008,1.8066,1.8047,1.8018,1.8008,1.8096,1.8115,1.8037,1.8213,1.8344,1.8281,1.832,1.8721,1.8418,1.8086,1.8066,1.8076,1.8018,1.8037,1.8105,1.8086,1.8027,1.8047,1.8027,1.8066,1.8125,1.8281,1.8486,1.8398,1.8359,1.8437,1.8437,1.8359,1.833,1.8291,1.8242,1.8107,1.8299,1.9051,1.9763,2.0394,2.0813,2.13,2.1414,2.1694,2.1606,2.1594,2.1719,2.1794,2.1681,2.1744,2.5684,2.5684,2.5684,2.5684,2.5684,2.5684,2.5557,2.5361,2.5194,2.4707,2.4141,2.3906,2.3545,2.311,2.3101,2.3101,2.3101,2.3101,2.3101,2.3101,2.3101,2.3101,2.3003,2.2744,2.251,2.2451,2.209,2.1904,2.1777,2.1465,2.12,2.1161,2.0791,2.0635,2.0615,2.0615,2.0615,2.0615,2.0615,2.0615,2.0546,2.039,2.0078,1.9941,1.9678,1.9385,1.8994,1.8945,1.8828,1.8623,1.8418,1.8169,1.8047,1.8008,1.8008,1.8008,1.8008,1.8008,1.8008,1.8018,1.8096,1.8256,1.8266,1.8403,1.8545,1.8613,1.8613,1.8613,1.8623,1.8613,1.8603,1.8613,1.876,1.8818,1.875,1.8838,1.9072,1.8701,1.8373,1.8525,1.8662,1.8652,1.8613,1.8486,1.8564,1.8672,1.8701,1.8691,1.873,1.8779,1.8799,1.8877,1.876,1.875,1.8857,1.8857,1.8789,1.8789,1.8809,1.8799,1.8758,1.9032,1.9437,1.9977,2.0489,2.1542,2.2014,2.2068,2.2085,2.2347,2.2368,2.2309,2.2284,2.2385,2.2456,2.5684,2.5684,2.5684,2.5684,2.5684,2.5684,2.5674,2.5664,2.5342,2.4902,2.4424,2.4033,2.3662,2.3179,2.3101,2.3101,2.3101,2.3101,2.3101,2.3101,2.3101,2.3101,2.2994,2.2701,2.251,2.2451,2.1963,2.1748,2.1523,2.1338,2.1055,2.1045,2.0781,2.0625,2.0615,2.0615,2.0615,2.0615,2.0615,2.0615,2.0615,2.0566,2.0342,2.0137,2.0029,1.9795,1.9473,1.9375,1.9363,1.9314,1.89,1.8549,1.8256,1.8037,1.8008,1.8018,1.8086,1.8174,1.8213,1.8252,1.8428,1.8685,1.8695,1.8851,1.9141,1.918,1.915,1.918,1.916,1.916,1.9304,1.917,1.9228,1.9326,1.9346,1.9392,1.9431,1.9102,1.9053,1.9092,1.9062,1.9023,1.9082,1.9062,1.9189,1.9287,1.9307,1.9307,1.9326,1.9316,1.9268,1.9228,1.9121,1.8994,1.9072,1.9141,1.9092,1.9141,1.9209,1.9219,1.9209,1.929,1.9483,1.9956,2.0572,2.1514,2.2133,2.2098,2.2346,2.2902,2.3007,2.2744,2.2832,2.307,2.3108,2.5684,2.5684,2.5684,2.5684,2.5684,2.5684,2.5684,2.5684,2.5586,2.5109,2.4482,2.4326,2.3803,2.3286,2.3101,2.3101,2.3101,2.3101,2.3101,2.3101,2.3101,2.3101,2.3013,2.275,2.2559,2.2285,2.1846,2.1357,2.0977,2.0742,2.0762,2.0674,2.0654,2.0615,2.0654,2.0625,2.0693,2.0762,2.0723,2.0683,2.0683,2.0615,2.0576,2.0429,2.0419,2.0185,1.9912,1.9795,1.9658,1.9326,1.9228,1.915,1.8936,1.8437,1.8144,1.8174,1.8354,1.8535,1.8529,1.8838,1.9043,1.917,1.918,1.9199,1.9316,1.9336,1.9443,1.9394,1.9385,1.9336,1.9287,1.9404,1.9512,1.9619,1.9619,1.9656,2.0057,1.9932,1.9561,1.9502,1.9414,1.9385,1.9502,1.9561,1.958,1.9619,1.9609,1.9627,1.9617,1.9561,1.9531,1.9492,1.9463,1.9326,1.9248,1.9307,1.9336,1.9404,1.9463,1.9473,1.9434,1.9307,1.9489,1.9893,2.0293,2.093,2.1413,2.2079,2.2695,2.3374,2.3303,2.3158,2.3371,2.3559,2.3396,2.5684,2.5684,2.5684,2.5684,2.5684,2.5684,2.5684,2.5684,2.5674,2.5371,2.4834,2.4502,2.4082,2.3545,2.3159,2.3101,2.3101,2.3101,2.3101,2.3101,2.3101,2.3101,2.3101,2.2867,2.2672,2.248,2.2051,2.1473,2.0937,2.0684,2.0664,2.0615,2.0615,2.0674,2.0859,2.0937,2.1035,2.1123,2.1035,2.0908,2.0869,2.0762,2.0625,2.0615,2.0605,2.0488,2.0332,2.0254,2.0166,1.9999,1.9736,1.9639,1.9434,1.9102,1.8672,1.8711,1.8857,1.8965,1.8975,1.9199,1.9346,1.958,1.9609,1.9736,1.992,1.998,1.9902,1.9959,1.9979,1.9989,2.0018,1.9912,2.0059,2.0166,2.0049,2.0184,2.041,2.037,2.0127,1.9893,1.998,2.001,2.0029,2.0039,1.998,1.9979,1.9959,1.993,1.9901,1.9911,1.9883,1.9922,1.9932,1.9873,1.9756,1.9746,1.9774,1.9766,1.9795,1.9795,1.9881,1.9805,1.9658,1.9736,2.0129,2.1054,2.2076,2.3152,2.3526,2.3798,2.3942,2.3998,2.3998,2.3985,2.3847,2.5684,2.5684,2.5684,2.5684,2.5684,2.5684,2.5684,2.5684,2.5684,2.541,2.4922,2.456,2.4121,2.3662,2.333,2.3101,2.3101,2.3101,2.3101,2.3101,2.3101,2.3101,2.3101,2.3062,2.2925,2.2682,2.2461,2.2119,2.1416,2.0967,2.0801,2.0909,2.086,2.0918,2.1239,2.1367,2.1631,2.165,2.1572,2.1357,2.1162,2.0908,2.0674,2.0615,2.0615,2.0605,2.0556,2.0546,2.0556,2.0439,2.0263,2.0039,1.999,1.9727,1.9551,1.9531,1.9463,1.9414,1.9434,1.957,1.9795,2.0019,2.0039,2.0234,2.0429,2.0468,2.0537,2.0615,2.0566,2.0527,2.0468,2.0566,2.0576,2.0566,2.0566,2.0605,2.0586,2.0556,2.0537,2.0478,2.0615,2.0546,2.0419,2.04,2.0302,2.0302,2.0282,2.0312,2.0292,2.0361,2.039,2.0458,2.0478,2.0478,2.041,2.0351,2.0312,2.0282,2.0292,2.0292,2.039,2.0468,2.0319,2.0297,2.1391,2.2404,2.3358,2.3845,2.394,2.4181,2.4591,2.47,2.4487,2.4449,2.4412,2.5684,2.5684,2.5684,2.5684,2.5684,2.5684,2.5684,2.5684,2.5684,2.5206,2.4648,2.4368,2.3939,2.3335,2.3159,2.3101,2.3101,2.3101,2.3101,2.3101,2.3101,2.3101,2.3101,2.3101,2.3071,2.2896,2.2685,2.2275,2.1846,2.1416,2.1348,2.1504,2.1318,2.1367,2.1758,2.1807,2.1836,2.1885,2.1855,2.1631,2.1309,2.1172,2.0928,2.0752,2.0615,2.0615,2.0615,2.0615,2.0615,2.0595,2.0556,2.0517,2.0517,2.0498,2.0458,2.0303,2.0098,1.9844,1.9893,2.0088,2.0312,2.0381,2.043,2.0546,2.0586,2.0615,2.0615,2.0615,2.0615,2.0615,2.0615,2.0615,2.0615,2.0615,2.0615,2.0615,2.0615,2.0615,2.0615,2.0615,2.0615,2.0615,2.0546,2.0576,2.0595,2.0605,2.0615,2.0615,2.0615,2.0615,2.0615,2.0615,2.0615,2.0615,2.0615,2.0615,2.0615,2.0615,2.0615,2.0605,2.0683,2.0789,2.1193,2.148,2.256,2.3097,2.3421,2.3778,2.4098,2.4624,2.5169,2.5084,2.4763,2.4858,2.5046,2.5508,2.5684,2.5684,2.5684,2.5684,2.5684,2.5684,2.5684,2.5674,2.5489,2.505,2.459,2.389,2.3218,2.3101,2.3101,2.3101,2.3101,2.3101,2.3101,2.3101,2.3101,2.3101,2.3101,2.3101,2.3042,2.2969,2.2871,2.2422,2.1973,2.1738,2.1836,2.1738,2.1816,2.2197,2.2236,2.2402,2.2471,2.2363,2.2021,2.165,2.1327,2.1152,2.0937,2.0723,2.0674,2.0654,2.0615,2.0615,2.0615,2.0615,2.0605,2.0605,2.0595,2.0595,2.0576,2.0439,2.0293,2.0312,2.0507,2.0576,2.0615,2.0615,2.0595,2.0605,2.0615,2.0615,2.0615,2.0615,2.0615,2.0615,2.0615,2.0615,2.0615,2.0615,2.0615,2.0615,2.0615,2.0615,2.0615,2.0615,2.0615,2.0615,2.0615,2.0615,2.0615,2.0615,2.0615,2.0615,2.0615,2.0615,2.0615,2.0615,2.0615,2.0615,2.0615,2.0615,2.0615,2.0615,2.0644,2.075,2.1011,2.1413,2.2264,2.3329,2.3611,2.3595,2.4359,2.528,2.5565,2.5762,2.5611,2.5498,2.5686,2.585,2.5264,2.5528,2.5635,2.5684,2.5684,2.5684,2.5684,2.5684,2.5684,2.5557,2.5157,2.4426,2.3647,2.3218,2.3101,2.3101,2.3101,2.3101,2.3101,2.3101,2.3101,2.3101,2.3101,2.3101,2.3101,2.3101,2.3062,2.3013,2.2857,2.2535,2.2246,2.2187,2.2109,2.2295,2.2559,2.2685,2.276,2.2925,2.275,2.2461,2.207,2.1717,2.1522,2.1338,2.1103,2.0938,2.0938,2.0977,2.0987,2.0997,2.082,2.0801,2.0791,2.0703,2.0625,2.0605,2.0546,2.0556,2.0546,2.0595,2.0605,2.0615,2.0615,2.0615,2.0615,2.0615,2.0615,2.0615,2.0615,2.0615,2.0615,2.0615,2.0615,2.0615,2.0615,2.0615,2.0615,2.0615,2.0615,2.0615,2.0615,2.0615,2.0615,2.0615,2.0615,2.0615,2.0615,2.0615,2.0615,2.0615,2.0615,2.0615,2.0615,2.0615,2.0615,2.0615,2.0615,2.0615,2.0615,2.0605,2.0722,2.1088,2.1565,2.2638,2.3891,2.459,2.481,2.5689,2.6474,2.6285,2.616,2.6311,2.6361,2.6487,2.6461,2.5088,2.5194,2.5508,2.5674,2.5684,2.5684,2.5684,2.5684,2.5684,2.5255,2.4639,2.3686,2.3354,2.313,2.312,2.3101,2.3101,2.3101,2.3101,2.3101,2.3101,2.3101,2.3101,2.3101,2.3101,2.3101,2.3101,2.3101,2.3081,2.2964,2.2906,2.2974,2.2607,2.2764,2.2877,2.2955,2.2974,2.3091,2.2984,2.2808,2.2559,2.2334,2.2168,2.1885,2.1807,2.1838,2.1818,2.1711,2.1662,2.1642,2.1338,2.1182,2.1143,2.0977,2.086,2.084,2.083,2.0811,2.0752,2.0644,2.0615,2.0615,2.0615,2.0615,2.0615,2.0615,2.0615,2.0615,2.0615,2.0615,2.0615,2.0615,2.0615,2.0615,2.0615,2.0615,2.0615,2.0615,2.0615,2.0615,2.0615,2.0615,2.0615,2.0615,2.0615,2.0615,2.0615,2.0615,2.0615,2.0615,2.0615,2.0615,2.0615,2.0615,2.0615,2.0615,2.0615,2.0615,2.0615,2.0615,2.0644,2.1126,2.2075,2.2962,2.4217,2.517,2.5943,2.6267,2.6487,2.6487,2.6487,2.6487,2.6487,2.6487,2.6487,2.4636,2.5078,2.5264,2.5478,2.5684,2.5684,2.5684,2.5684,2.5674,2.5362,2.4766,2.4199,2.3779,2.3535,2.3179,2.3101,2.3101,2.3101,2.3101,2.3101,2.3101,2.3101,2.3101,2.3101,2.3101,2.3101,2.3101,2.3101,2.3101,2.3101,2.3101,2.3013,2.2896,2.2955,2.3062,2.3101,2.3101,2.3101,2.3101,2.2974,2.2877,2.2574,2.2441,2.2305,2.1953,2.1904,2.1916,2.1926,2.1926,2.1865,2.1728,2.166,2.1611,2.1406,2.1359,2.1339,2.1329,2.1222,2.0928,2.0742,2.0615,2.0615,2.0615,2.0615,2.0615,2.0615,2.0615,2.0615,2.0615,2.0615,2.0615,2.0615,2.0615,2.0615,2.0615,2.0615,2.0615,2.0615,2.0615,2.0615,2.0615,2.0615,2.0615,2.0615,2.0615,2.0615,2.0615,2.0615,2.0615,2.0615,2.0615,2.0615,2.0615,2.0615,2.0615,2.0615,2.0615,2.0615,2.0615,2.0615,2.076,2.2199,2.311,2.3891,2.4576,2.5616,2.6267,2.6418,2.6487,2.6487,2.6487,2.6487,2.6487,2.6487,2.6487,2.4131,2.4744,2.4961,2.5332,2.5664,2.5684,2.5684,2.5684,2.5684,2.5488,2.5029,2.4502,2.4082,2.3721,2.3305,2.3101,2.3101,2.3101,2.3101,2.3101,2.3101,2.3101,2.3101,2.3101,2.3101,2.3101,2.3101,2.3101,2.3101,2.3101,2.3101,2.3101,2.3091,2.3091,2.3091,2.3101,2.3101,2.3101,2.3101,2.3101,2.3033,2.2838,2.2682,2.2643,2.2461,2.2363,2.2363,2.2383,2.2363,2.2295,2.2187,2.208,2.2021,2.1973,2.1904,2.1936,2.1865,2.1738,2.1396,2.0918,2.0644,2.0615,2.0615,2.0615,2.0615,2.0615,2.0615,2.0615,2.0615,2.0615,2.0615,2.0615,2.0615,2.0615,2.0615,2.0615,2.0615,2.0615,2.0615,2.0615,2.0615,2.0615,2.0615,2.0615,2.0615,2.0615,2.0615,2.0615,2.0615,2.0615,2.0615,2.0615,2.0615,2.0615,2.0615,2.0615,2.0615,2.0615,2.0615,2.0615,2.1088,2.2489,2.3415,2.377,2.4648,2.6013,2.6487,2.6487,2.6487,2.6487,2.6487,2.6487,2.6487,2.6487,2.6487,2.3809,2.3916,2.4754,2.5303,2.5625,2.5684,2.5684,2.5684,2.5674,2.5508,2.5068,2.4326,2.3965,2.3809,2.35,2.3335,2.3305,2.3257,2.3247,2.3296,2.3257,2.3169,2.313,2.314,2.3101,2.3101,2.3101,2.3101,2.3101,2.3101,2.3101,2.3101,2.3101,2.3101,2.3101,2.3101,2.3101,2.3101,2.3101,2.3101,2.3081,2.3023,2.2994,2.2955,2.2906,2.2818,2.2818,2.2818,2.2808,2.2789,2.2617,2.2519,2.248,2.2207,2.208,2.2041,2.2012,2.1934,2.1797,2.1075,2.0693,2.0615,2.0615,2.0615,2.0615,2.0615,2.0615,2.0615,2.0615,2.0615,2.0615,2.0615,2.0615,2.0615,2.0615,2.0615,2.0615,2.0615,2.0615,2.0615,2.0615,2.0615,2.0615,2.0615,2.0615,2.0615,2.0615,2.0615,2.0615,2.0615,2.0615,2.0615,2.0615,2.0615,2.0615,2.0615,2.0615,2.0615,2.0615,2.0615,2.0944,2.1907,2.275,2.3441,2.4624,2.5908,2.6267,2.6487,2.6487,2.6487,2.6487,2.6487,2.6487,2.6487,2.6487,2.3525,2.3848,2.4404,2.4893,2.5303,2.5567,2.5684,2.5684,2.5674,2.5596,2.542,2.4873,2.4639,2.4502,2.417,2.3881,2.39,2.3939,2.3984,2.3881,2.3656,2.3603,2.3516,2.3276,2.313,2.3101,2.3101,2.3101,2.3101,2.3101,2.3101,2.3101,2.3101,2.3101,2.3101,2.3101,2.3101,2.3101,2.3101,2.3101,2.3101,2.3101,2.3101,2.3101,2.3101,2.3101,2.3101,2.3101,2.3101,2.3101,2.2857,2.2847,2.2838,2.2604,2.2676,2.2685,2.2676,2.2412,2.1885,2.1123,2.0644,2.0615,2.0615,2.0615,2.0615,2.0615,2.0615,2.0615,2.0615,2.0615,2.0615,2.0615,2.0615,2.0615,2.0615,2.0615,2.0615,2.0615,2.0615,2.0615,2.0615,2.0615,2.0615,2.0615,2.0615,2.0615,2.0615,2.0615,2.0615,2.0615,2.0615,2.0615,2.0615,2.0615,2.0615,2.0615,2.0615,2.0615,2.0615,2.0615,2.1049,2.168,2.2489,2.3404,2.4588,2.5664,2.6129,2.6487,2.6487,2.6487,2.6487,2.6487,2.6487,2.6487,2.6487,2.3301,2.3603,2.4023,2.4453,2.4902,2.5478,2.5684,2.5684,2.5684,2.5684,2.5577,2.5264,2.5039,2.4912,2.4639,2.4424,2.4424,2.4414,2.4404,2.4385,2.415,2.4033,2.3867,2.3603,2.3457,2.3286,2.3159,2.3101,2.3101,2.3101,2.3101,2.3101,2.3101,2.3101,2.3101,2.3101,2.3101,2.3101,2.3101,2.3101,2.3101,2.3101,2.3101,2.3101,2.3101,2.3101,2.3101,2.3101,2.3101,2.3101,2.3101,2.3101,2.3101,2.3101,2.3101,2.3101,2.2877,2.2438,2.167,2.125,2.0801,2.0625,2.0615,2.0615,2.0615,2.0615,2.0615,2.0615,2.0625,2.0644,2.0664,2.0654,2.0683,2.0693,2.0683,2.0693,2.0683,2.0693,2.0693,2.0683,2.0654,2.0644,2.0664,2.0615,2.0615,2.0615,2.0615,2.0644,2.0664,2.0625,2.0615,2.0615,2.0615,2.0615,2.0615,2.0615,2.0615,2.0615,2.0644,2.0722,2.1165,2.1794,2.259,2.3514,2.4874,2.5943,2.6267,2.6487,2.6487,2.6487,2.6487,2.6487,2.6487,2.6487,2.6487,2.3101,2.3159,2.3613,2.4043,2.4512,2.5255,2.5645,2.5674,2.5684,2.5684,2.5654,2.5303,2.5176,2.5059,2.4687,2.458,2.4609,2.459,2.4609,2.4551,2.4512,2.4463,2.4297,2.4023,2.3848,2.3672,2.3545,2.3422,2.3198,2.3344,2.3335,2.3179,2.3227,2.3227,2.3227,2.314,2.312,2.3101,2.3101,2.3101,2.3101,2.3101,2.3101,2.3101,2.3101,2.3101,2.3101,2.3101,2.3101,2.3101,2.3101,2.3101,2.3101,2.3101,2.3101,2.2994,2.2764,2.2158,2.1629,2.1356,2.1133,2.0957,2.0811,2.0703,2.0644,2.0683,2.0742,2.0732,2.0742,2.0723,2.0752,2.0801,2.084,2.083,2.082,2.082,2.082,2.082,2.082,2.0811,2.0723,2.0742,2.085,2.082,2.082,2.1006,2.1045,2.1026,2.0967,2.0644,2.0635,2.0615,2.0615,2.0615,2.0615,2.0605,2.0615,2.0615,2.0905,2.1049,2.1489,2.1897,2.2713,2.377,2.5311,2.6186,2.6418,2.6487,2.6487,2.6487,2.6487,2.6487,2.6487,2.6487,2.6487,2.3101,2.314,2.3613,2.3857,2.4092,2.4893,2.543,2.5664,2.5684,2.5684,2.5674,2.5605,2.5498,2.5527,2.5362,2.5294,2.5284,2.5304,2.5313,2.5196,2.499,2.4912,2.4727,2.4473,2.4297,2.4199,2.4092,2.3935,2.4023,2.3968,2.3754,2.3662,2.3603,2.3594,2.3496,2.3257,2.3208,2.3149,2.3159,2.3101,2.3101,2.3101,2.3101,2.3101,2.3101,2.3101,2.3101,2.3101,2.3101,2.3101,2.3101,2.3101,2.3101,2.3101,2.3091,2.3042,2.2773,2.2373,2.2097,2.1855,2.1592,2.1496,2.1486,2.1104,2.0938,2.0859,2.1035,2.1045,2.1055,2.1084,2.1201,2.131,2.1319,2.131,2.131,2.131,2.131,2.131,2.13,2.1221,2.1162,2.1123,2.1211,2.1162,2.1191,2.1387,2.1505,2.1456,2.124,2.0957,2.0762,2.0703,2.0615,2.0615,2.0644,2.0644,2.0605,2.0644,2.1126,2.1451,2.1489,2.201,2.2824,2.4036,2.5534,2.6198,2.6452,2.6487,2.6487,2.6487,2.6487,2.6487,2.6487,2.6487,2.6487,2.3101,2.313,2.3418,2.3633,2.3896,2.4568,2.498,2.5254,2.5528,2.5684,2.5684,2.5674,2.5684,2.5664,2.5645,2.5635,2.5635,2.5596,2.5596,2.5518,2.5439,2.5381,2.5185,2.4912,2.4717,2.4639,2.4512,2.4316,2.4443,2.4404,2.4219,2.4072,2.4033,2.4033,2.3975,2.3848,2.3676,2.352,2.3354,2.3159,2.312,2.313,2.3101,2.311,2.311,2.3101,2.3101,2.3101,2.3101,2.3101,2.3101,2.3101,2.3101,2.3101,2.2935,2.29,2.2676,2.2383,2.2148,2.1982,2.1904,2.1943,2.2041,2.1758,2.1475,2.1377,2.1455,2.1494,2.1514,2.1562,2.1738,2.1916,2.1906,2.1897,2.1897,2.1897,2.1897,2.1897,2.1826,2.1797,2.1738,2.167,2.1621,2.1553,2.1523,2.166,2.177,2.176,2.1523,2.1221,2.1035,2.0957,2.0732,2.0615,2.0664,2.0867,2.1088,2.1413,2.2113,2.2301,2.1935,2.2563,2.377,2.4767,2.5756,2.6198,2.6487,2.6487,2.6487,2.6487,2.6487,2.6487,2.6487,2.6487,2.6487,2.3101,2.3101,2.3101,2.3418,2.3818,2.4219,2.4404,2.4456,2.5196,2.5567,2.5518,2.5547,2.5518,2.5508,2.5576,2.5664,2.5654,2.5684,2.5684,2.5684,2.5625,2.5625,2.5518,2.5332,2.5156,2.498,2.4844,2.4736,2.456,2.4619,2.4707,2.4436,2.4463,2.4463,2.4443,2.4297,2.417,2.4036,2.3695,2.3403,2.3315,2.3227,2.314,2.3169,2.314,2.3101,2.3101,2.3101,2.3101,2.3101,2.3101,2.3101,2.3101,2.3091,2.292,2.2803,2.2705,2.2549,2.2383,2.2236,2.2168,2.2227,2.2324,2.2285,2.2139,2.1904,2.1924,2.1934,2.1943,2.207,2.2246,2.2324,2.2334,2.2324,2.2324,2.2324,2.2334,2.2334,2.2324,2.2256,2.2119,2.208,2.2168,2.2068,2.206,2.206,2.2119,2.2148,2.1963,2.168,2.1455,2.1278,2.1006,2.083,2.0947,2.1189,2.17,2.2226,2.2968,2.3147,2.2813,2.3697,2.4909,2.5604,2.6164,2.6302,2.6487,2.6499,2.6512,2.6487,2.6487,2.6487,2.6499,2.6549,2.6487,2.3101,2.3101,2.3101,2.3389,2.3769,2.3896,2.4121,2.4414,2.4619,2.4736,2.469,2.4719,2.4971,2.5264,2.5283,2.541,2.5645,2.5684,2.5684,2.5684,2.5684,2.5684,2.5684,2.5576,2.5527,2.5557,2.5382,2.5185,2.5019,2.5137,2.5215,2.4951,2.4912,2.4912,2.4893,2.4717,2.4504,2.4514,2.4309,2.4066,2.4056,2.3809,2.3633,2.3525,2.3393,2.3179,2.314,2.3101,2.3101,2.3101,2.3101,2.3101,2.3101,2.3101,2.3052,2.2964,2.2906,2.2789,2.273,2.2685,2.2685,2.2754,2.2838,2.2847,2.273,2.2519,2.2373,2.2363,2.2422,2.2568,2.2633,2.2682,2.2721,2.2721,2.2721,2.2764,2.2773,2.2773,2.274,2.2656,2.25,2.2529,2.2637,2.2656,2.2627,2.2685,2.2822,2.2832,2.2666,2.237,2.207,2.1836,2.1317,2.1203,2.1283,2.1703,2.2251,2.2977,2.3735,2.3782,2.3754,2.4751,2.5827,2.6077,2.6452,2.67,2.6763,2.6549,2.6549,2.67,2.6751,2.6876,2.6763,2.6751,2.66,2.3101,2.3101,2.3101,2.3237,2.3477,2.3496,2.3643,2.3828,2.3803,2.3803,2.3935,2.4248,2.4658,2.5057,2.5116,2.5283,2.5606,2.5674,2.5684,2.5684,2.5684,2.5684,2.5684,2.5684,2.5654,2.5684,2.5674,2.5576,2.542,2.5508,2.5518,2.5371,2.5342,2.5332,2.5312,2.5098,2.4914,2.5019,2.4904,2.4904,2.4863,2.4453,2.4111,2.3945,2.3711,2.3486,2.3296,2.3247,2.3101,2.3101,2.3101,2.3101,2.3101,2.3101,2.3101,2.3081,2.3071,2.3101,2.3101,2.3101,2.3101,2.3101,2.3091,2.2994,2.3003,2.2812,2.2803,2.2793,2.2793,2.2877,2.2896,2.2935,2.2945,2.2935,2.2935,2.2945,2.2945,2.2945,2.2945,2.2906,2.2808,2.2818,2.2886,2.2877,2.2857,2.2867,2.3062,2.3071,2.2984,2.2916,2.2656,2.2448,2.2018,2.1642,2.1626,2.223,2.2963,2.3738,2.4548,2.5208,2.5634,2.6094,2.6659,2.7028,2.7253,2.7316,2.7291,2.7077,2.7155,2.7419,2.7381,2.7341,2.719,2.709,2.714,2.3101,2.3101,2.3101,2.3101,2.3101,2.3101,2.312,2.313,2.312,2.3179,2.3335,2.3919,2.4482,2.4785,2.5,2.5303,2.5547,2.5635,2.5664,2.5684,2.5684,2.5684,2.5684,2.5684,2.5684,2.5684,2.5684,2.5674,2.5615,2.5674,2.5674,2.5684,2.5684,2.5674,2.5684,2.5664,2.5557,2.5508,2.5499,2.5586,2.5313,2.4961,2.4629,2.4355,2.4121,2.3906,2.374,2.3584,2.3305,2.3257,2.3305,2.3257,2.3198,2.3179,2.3101,2.3101,2.3101,2.3101,2.3101,2.3101,2.3101,2.3101,2.3101,2.3101,2.3101,2.3091,2.3071,2.3071,2.3071,2.3071,2.3091,2.3101,2.3101,2.3101,2.3101,2.3101,2.3101,2.3101,2.3101,2.3101,2.3091,2.3081,2.3081,2.3081,2.3081,2.3091,2.3101,2.3101,2.3081,2.3033,2.2877,2.2992,2.2916,2.2542,2.2136,2.2949,2.3845,2.4575,2.5489,2.6588,2.7384,2.7358,2.7567,2.81,2.826,2.7946,2.7883,2.7758,2.7946,2.8047,2.7846,2.7682,2.7733,2.7682,2.7871,2.3101,2.3101,2.3101,2.3101,2.3101,2.3101,2.3101,2.3101,2.3101,2.3276,2.3516,2.3344,2.3613,2.4062,2.4414,2.4844,2.54,2.5596,2.5664,2.5684,2.5684,2.5684,2.5684,2.5684,2.5684,2.5684,2.5684,2.5684,2.5684,2.5684,2.5684,2.5684,2.5684,2.5684,2.5684,2.5684,2.5684,2.5684,2.5684,2.5684,2.5625,2.5283,2.5077,2.4822,2.4531,2.4375,2.4258,2.4219,2.4189,2.4082,2.3857,2.3711,2.3584,2.3437,2.3276,2.3208,2.3198,2.314,2.314,2.3101,2.3101,2.3101,2.3101,2.3101,2.3101,2.3101,2.3081,2.3081,2.3081,2.3081,2.3101,2.3101,2.3101,2.3101,2.3101,2.3101,2.3101,2.3101,2.3101,2.3101,2.3091,2.3091,2.3091,2.3091,2.3091,2.3101,2.3101,2.3101,2.3101,2.3101,2.3101,2.3268,2.3496,2.3208,2.2737,2.396,2.492,2.5615,2.6429,2.7592,2.8225,2.8086,2.8348,2.8787,2.8612,2.8235,2.8222,2.8473,2.8335,2.8348,2.816,2.8047,2.816,2.831,2.8486]}]]